     2              OBSERVATION DATA    GPS                 RINEX VERSION / TYPE
ASRINEXO V2.4.4 UX USGS 17-JAN-97 11:20                     PGM / RUN BY / DATE
                                                            COMMENT
Original Marker Name: oldd Old_1935_USC&GS_(LAPW5)          COMMENT
Campaign Name: usgs.landers.pro                             COMMENT
4-Character Station Name: OLDD                              COMMENT
6-Character Antenna Code: ASHL12                            COMMENT
Vertical Measurement Point: BBE                             COMMENT
Vertical Offset to Rinex Ref. Point: 0.0595                 COMMENT
Radial Measurement Point: EGP                               COMMENT
Radial Offset to Rinex Ref. Point: 0.1424                   COMMENT
Antenna Height from Field Measurement: 1.3870 m             COMMENT
Additional Antenna Identification Info.:                    COMMENT
Original Ashtech L1/L2                                      COMMENT
Original XYZ: -2367581.1597 -4707896.4404 3582812.6619      COMMENT
New XYZ position is based on association with SCEC monument COMMENT
E1F2H2E1+0011. Position of that monument is believed to be  COMMENT
valid to within 1 m horizontally; vertical accuracy         COMMENT
should be no worse than 3-times this value.                 COMMENT
                                                            COMMENT
Revised Rinex header created by UCSD GPS archive for        COMMENT
GSAC on 11-Nov-1999 (1999:315) 02:23:48 GMT                 COMMENT
For assistance contact dagnew@ucsd.edu or hjohnson@ucsd.edu COMMENT
                                                            COMMENT
OLDD OLD_1935_USC&GS_(LAPW5)                                MARKER NAME
CHS UNKNOWN INSTITUTION                                     OBSERVER / AGENCY
597 ASHTECH Z-XII3 1E95                                     REC # / TYPE / VERS
598 ASHTECH GEODETIC L                                      ANT # / TYPE
 -2367603.0000 -4707876.0000  3582807.0000                  APPROX POSITION XYZ
        1.3202        0.0000        0.0000                  ANTENNA: DELTA H/E/N
     1     1     0                                          WAVELENGTH FACT L1/2
     5    C1    L1    L2    P1    P2                        # / TYPES OF OBSERV
    30                                                      INTERVAL
  1997     1     8    17    34    0.000000                  TIME OF FIRST OBS
  1997     1     8    23    29   60.000000                  TIME OF LAST OBS
                                                            END OF HEADER
 97  1  8 17 34  0.0000000  0  5 22 29 25 14 15
  21501817.812     -435620.10049   -326053.45049  21501815.6434   21501821.4164
  20899477.618     -265524.25049   -193512.03349  20899476.8934   20899480.3084
  22690709.313      127188.14949     92964.90649  22690707.6904   22690711.4854
  20451655.798     -362024.59149    -68019.19749  20451654.8344   20451659.2944
  23044555.729      205534.09549    154098.04349  23044554.1074   23044559.7624
 97  1  8 17 34 30.0000000  0  6 22 29 25 18 14 15
  21481884.826     -540367.49449   -407674.75049  21481882.4724   21481888.0604
  20886748.876     -332414.97749   -245634.67749  20886748.1554   20886751.5524
  22696352.378      156843.72249    116073.11649  22696351.2234   22696355.8754
  24265553.598     -295066.50949                  24265553.297    24265557.2844
  20435046.380     -449308.35649   -136032.51849  20435045.3724   20435049.8484
  23052798.782      248851.83749    187852.09049  23052797.5604   23052803.6914
 97  1  8 17 35  0.0000000  0  6 22 29 25 18 14 15
  21461802.334     -645901.28249   -489908.82549  21461800.1854   21461806.3094
  20873810.800     -400405.44849   -298614.25949  20873810.0724   20873813.4344
  22701773.966      185334.35649    138273.59549  22701772.5504   22701776.5794
  24240026.629     -529485.93159   -399603.10149  24240021.5624   24240026.6804
  20418276.862     -537432.67649   -204700.81749  20418275.6124   20418280.4204
  23060824.097      291024.39049    220713.78049  23060822.6754   23060828.1434
 97  1  8 17 35 30.0000000  0  6 22 29 25 18 14 15
  21441583.604     -752151.06049   -572700.81849  21441581.5524   21441587.1964
  20860674.197     -469438.95149   -352406.59349  20860673.2264   20860676.7724
  22706991.611      212753.14249    159638.86249  22706990.6474   22706994.9884
  24214264.599     -664857.67749   -505087.57249  24214261.5064   24214267.2004
  20401362.531     -626318.10349   -273962.18449  20401361.5314   20401366.2034
  23068644.647      332121.60649    252737.55949  23068642.8214   23068648.8384
 97  1  8 17 36  0.0000000  0  7 22 29 25 18 14 15 16
  21421244.424     -859033.86849   -655986.08149  21421242.6724   21421247.9084
  20847350.525     -539455.15549   -406964.67349  20847349.5204   20847352.8554
  22712018.642      239170.17849    180223.53349  22712017.1484   22712022.0924
  24188283.468     -801385.74549   -611473.08849  24188280.1124   24188285.9294
  20384315.520     -715901.03749   -343767.06249  20384314.4334   20384319.0684
  23076274.420      372216.96949    283980.65549  23076273.1394   23076279.1924
  21965443.202    21965448.157                                    21965444.7174
 97  1  8 17 36 29.9990000  0  7 22 29 25 18 14 15 16
  21400795.004     -966496.36249   -739723.04949  21400793.4694   21400798.7994
  20833848.622     -610408.03549   -462252.63549  20833847.8574   20833851.1554
  22716867.354      264650.04049    200077.95749  22716866.3514   22716870.7404
  24162092.446     -939017.59349   -718718.65249  24162091.0224   24162096.9364
  20367148.823     -806112.78449   -414061.93149  20367147.8674   20367152.3734
  23083723.357      411361.83549    314483.10849  23083722.5614   23083728.2394
  21939551.715     -224043.68049   -114100.89149  21939550.0164   21939554.8854
 97  1  8 17 36 59.9990000  0  7 22 29 25 18 14 15 16
  21380243.625    -1074494.57249   -823877.46849  21380241.9464   21380247.1574
  20820178.657     -682244.03349   -518228.73149  20820177.6814   20820180.8044
  22721549.251      289253.50449    219249.47249  22721547.7904   22721552.4204
  24135703.616    -1077691.03149   -826775.89049  24135701.5524   24135706.8824
  20349873.108     -896897.41349   -484803.20049  20349872.0874   20349876.3804
  23091002.469      449613.54249    344289.59349  23091001.2224   23091006.4784
  21913514.549     -360866.70449   -220716.22049  21913513.4004   21913518.0324
 97  1  8 17 37 29.9990000  0  7 22 29 25 18 14 15 16
  21359613.466    -1182906.91449   -908354.57949  21359612.2384   21359616.5444
  20806364.653     -754837.07649   -574794.73349  20806363.8444   20806367.1454
  22726084.787      313088.18449    237821.93249  22726084.0094   22726088.6434
  24109138.743    -1217289.08049   -935553.56849  24109137.9314   24109142.6914
  20332507.306     -988155.30449   -555913.24349  20332506.1594   20332510.9254
  23098131.057      487074.00449    373479.54449  23098129.2684   23098135.5554
  21887354.124     -498345.30549   -327842.40149  21887351.9224   21887357.2154
 97  1  8 17 37 59.9990000  0  7 22 29 25 18 14 15 16
  21338925.688    -1291621.70849   -993067.37749  21338924.0404   21338928.9464
  20792429.068     -828069.06049   -631858.60649  20792428.2914   20792431.8654
  22730491.039      336243.03449    255864.64749  22730490.3594   22730494.2244
  24082419.389    -1357699.30949  -1044964.14949  24082418.2094   24082423.5544
  20315072.402    -1079776.25049   -627306.19149  20315071.2194   20315075.7744
  23105128.026      523842.88949    402130.62049  23105125.5244   23105132.5344
  21861086.084     -636383.38149   -435404.51949  21861084.6464   21861088.9264
 97  1  8 17 38 29.9990000  0  7 22 29 25 18 14 15 16
  21318193.910    -1400567.75749  -1077960.36749  21318192.2834   21318197.0774
  20778386.894     -901861.04749   -689358.85049  20778385.8934   20778389.5834
  22734780.221      358782.69249    273427.98349  22734779.1904   22734783.4034
  24055564.226    -1498824.59349  -1154931.89149  24055563.4904   24055567.5734
  20297586.195    -1171666.78149   -698909.20749  20297585.2544   20297589.5224
  23112006.827      559991.20349    430298.11649  23112004.8024   23112010.6194
  21834726.066     -774905.38349   -543343.73249  21834724.4354   21834729.1474
 97  1  8 17 38 59.9990000  0  7 22 29 25 18 14 15 16
  21297427.063    -1509698.19149  -1162997.04249  21297425.1194   21297429.9274
  20764249.232     -976154.70449   -747250.01449  20764248.1004   20764251.6564
  22738959.124      380743.65449    290540.38749  22738957.8774   22738962.8714
  24028583.964    -1640607.83649  -1265412.30849  24028583.0684   24028587.4394
  20280056.922    -1263783.55849   -770688.51749  20280055.5504   20280059.8544
  23118776.849      595568.35049    458020.49949  23118776.4244   23118781.1644
  21808282.187     -913868.84349   -651626.93949  21808280.4324   21808284.8444
 97  1  8 17 39 29.9990000  0  7 22 29 25 18 14 15 16
  21276631.640    -1618978.53249  -1248150.52549  21276630.4954   21276635.1944
  20750017.780    -1050941.18049   -805525.18849  20750016.9524   20750020.5714
  22743033.780      402156.51549    307225.70449  22743032.8964   22743037.8864
  24001485.546    -1783011.30549  -1376376.01549  24001484.0484   24001488.5894
  20262491.734    -1356088.93749   -842614.78449  20262490.6804   20262495.0454
  23125444.156      630604.98049    485321.74849  23125442.1904   23125448.1514
  21781761.426    -1053236.01849   -760224.72149  21781760.2214   21781764.5004
 97  1  8 17 39 59.9990000  0  7 22 29 25 18 14 15 16
  21255811.609    -1728388.66449  -1333405.14749  21255809.9694   21255814.5064
  20735690.536    -1126231.13949   -864192.69449  20735689.5414   20735693.1344
  22747007.742      423039.25349    323497.93249  22747006.9454   22747011.3404
  23974272.250    -1926017.60049  -1487809.47249  23974269.6684   23974275.5554
  20244895.588    -1448557.32149   -914668.07849  20244894.3614   20244898.8574
  23132012.526      665121.50849    512217.67749  23132010.7024   23132017.1574
  21755170.828    -1192970.22249   -869108.50349  21755169.5304   21755173.6794
 97  1  8 17 40 29.9990000  0  7 22 29 25 18 14 15 16
  21234969.468    -1837914.73849  -1418750.11549  21234968.3074   21234972.8174
  20721271.975    -1202000.96149   -923234.11549  20721271.1424   20721274.5934
  22750885.904      443418.42649    339377.76849  22750884.9404   22750889.6804
  23946943.116    -2069631.24149  -1599716.15449  23946942.3874   23946946.9774
  20227269.980    -1541180.52849   -986842.01049  20227269.1134   20227273.2944
  23138485.728      699138.24049    538724.17249  23138483.2514   23138489.5844
  21728517.810    -1333032.64449   -978248.04249  21728516.6014   21728520.7274
 97  1  8 17 40 59.9990000  0  7 22 29 25 18 14 15 16
  21214112.631    -1947518.50149  -1504155.61949  21214111.3564   21214116.2464
  20706768.534    -1278217.21449   -982623.40749  20706767.8134   20706771.1804
  22754675.904      463334.82949    354896.99249  22754674.7064   22754679.2624
  23919499.782    -2213846.60449  -1712091.71149  23919497.3174   23919503.6344
  20209619.936    -1633932.42649  -1059116.21849  20209619.3424   20209623.5994
  23144868.658      732680.56949    564860.99849  23144867.4224   23144873.9284
  21701808.391    -1473391.87949  -1087618.86349  21701806.5624   21701812.0194
 97  1  8 17 41 29.9990000  0  7 22 29 25 18 14 15 16
  21193248.680    -2057159.62049  -1589590.23449  21193247.1204   21193252.1514
  20692183.598    -1354861.89749  -1042346.54449  20692183.1204   20692186.1714
  22758382.058      482810.72549    370072.97749  22758381.3404   22758385.6874
  23891944.642    -2358647.99349  -1824923.91449  23891942.0134   23891948.2224
  20191951.653    -1726780.49249  -1131465.36449  20191950.8334   20191955.1264
  23151164.427      765765.17249    590641.16649  23151163.6934   23151170.3964
  21675048.663    -1614015.25749  -1197195.51649  21675047.5074   21675051.9904
 97  1  8 17 41 59.9990000  0  7 22 29 25 18 14 15 16
  21172380.427    -2166823.35449  -1675042.46849  21172379.0174   21172383.4724
  20677526.753    -1431884.37349  -1102364.05949  20677526.2364   20677529.5694
  22762006.477      501856.80149    384914.03149  22762006.0714   22762009.9284
  23864278.424    -2504034.06449  -1938211.71849  23864276.5354   23864282.1184
  20174270.367    -1819696.37749  -1203867.35649  20174269.4044   20174273.8774
  23157375.681      798405.75649    616075.37049  23157373.5044   23157380.6164
  21648243.268    -1754878.69449  -1306959.22549  21648241.9244   21648246.0934
 97  1  8 17 42 29.9990000  0  7 22 29 25 18 14 15 16
  21151514.059    -2276476.97849  -1760486.82549  21151512.5934   21151517.3314
  20662806.080    -1509242.31349  -1162642.97849  20662805.5874   20662808.6764
  22765552.188      520489.43849    399432.93149  22765551.5374   22765555.9654
  23836508.717    -2649964.30549  -2051923.54549  23836507.7494   23836513.3124
  20156583.784    -1912640.06249  -1276291.01149  20156582.8484   20156587.5404
  23163506.212      830622.24149    641179.08649  23163505.0694   23163512.4014
  21621395.028    -1895967.08549  -1416898.22449  21621393.4414   21621398.4084
 97  1  8 17 42 59.9990000  0  7 22 29 25 18 14 15 16
  21130655.809    -2386088.06549  -1845898.03549  21130654.1434   21130658.6204
  20648021.581    -1586935.88749  -1223183.42849  20648020.9634   20648024.1254
  22769021.918      538722.70949    413640.63249  22769021.9944   22769025.1994
  23808644.509    -2796392.20049  -2166023.15549  23808643.6594   23808648.9484
  20138897.948    -2005579.55349  -1348711.39849  20138897.1324   20138901.6034
  23169559.048      862429.87749    665964.20949  23169558.8384   23169565.5794
  21594506.536    -2037266.81949  -1527001.90549  21594504.9054   21594510.3354
 97  1  8 17 43 29.9990000  0  7 22 29 25 18 14 15 16
  21109805.800    -2495655.77249  -1931275.44349  21109804.1474   21109808.7834
  20633173.195    -1664964.89349  -1283985.25849  20633172.6624   20633175.6174
  22772415.906      556557.31449    427537.69749  22772415.4054   22772419.3364
  23780691.230    -2943288.42249  -2280487.73749  23780690.8604   23780695.2964
  20121215.533    -2098500.84249  -1421117.60449  20121214.2334   20121219.2764
  23175535.443      893835.66449    690436.22149  23175534.1224   23175540.9044
  21567578.292    -2178775.67049  -1637268.53649  21567577.3974   21567581.8254
 97  1  8 17 43 59.9990000  0  7 22 29 25 18 14 15 16
  21088965.408    -2605172.46249  -2016613.09649  21088964.0444   21088968.3524
  20618263.938    -1743313.79649  -1345036.35449  20618263.3834   20618266.5664
  22775736.896      574008.63449    441136.09549  22775736.5364   22775740.3634
  23752653.733    -3090627.71249  -2395297.53649  23752653.4904   23752658.5484
  20103540.665    -2191382.58249  -1493492.99549  20103539.5494   20103544.3764
  23181437.571      924851.45149    714604.33349  23181437.6654   23181442.7544
  21540611.671    -2320486.07249  -1747692.20849  21540610.0164   21540615.6184
 97  1  8 17 44 29.9990000  0  7 22 29 25 18 14 15 16
  21068138.005    -2714621.28249  -2101897.86549  21068136.5334   21068140.8894
  20603290.433    -1822000.34049  -1406350.55049  20603289.7394   20603293.0144
  22778987.890      591091.85349    454447.66849  22778986.7364   22778991.0844
  23724535.000    -3238393.74649  -2510439.89349  23724534.7564   23724538.6094
  20085873.614    -2284223.46249  -1565836.54249  20085872.6304   20085877.1014
  23187266.461      955482.39049    738472.55649  23187264.6114   23187273.5854
  21513607.962    -2462391.35949  -1858267.75649  21513606.3904   21513611.7334
 97  1  8 17 44 59.9990000  0  7 22 29 25 18 14 15 16
  21047322.303    -2824008.26949  -2187134.45049  21047320.7734   21047324.9804
  20588253.898    -1901018.23549  -1467922.94349  20588253.1394   20588256.4184
  22782170.650      607816.78749    467480.05449  22782170.3824   22782174.2344
  23696332.053    -3386602.52449  -2625927.23949  23696332.2014   23696336.3464
  20068215.773    -2377016.14749  -1638142.53249  20068214.9144   20068219.4794
  23193022.460      985730.26749    762042.28449  23193021.8854   23193027.8464
  21486570.545    -2604473.86249  -1968981.38749  21486569.0984   21486574.5694
 97  1  8 17 45 29.9990000  0  7 22 29 25 18 14 15 16
  21026522.516    -2933311.60749  -2272305.86749  21026520.8134   21026525.4534
  20573161.051    -1980331.61049  -1529725.57949  20573160.3274   20573163.9404
  22785289.329      624205.37949    480250.36449  22785288.1934   22785292.4494
  23668046.137    -3535247.14349  -2741754.18849  23668045.6434   23668050.2404
  20050569.034    -2469750.72349  -1710403.24549  20050568.1414   20050572.6464
  23198708.308     1015609.38749    785324.65349  23198708.3184   23198713.6644
  21459504.796    -2746705.05549  -2079810.88449  21459503.6554   21459508.6904
 97  1  8 17 45 59.9990000  0  7 22 29 25 18 14 15 16
  21005743.603    -3042505.69949  -2357392.15449  21005741.9874   21005746.7584
  20558016.463    -2059916.85449  -1591740.06049  20558015.6224   20558019.0194
  22788348.797      640282.62049    492778.06549  22788348.1454   22788351.8474
  23639676.327    -3684332.65849  -2857924.70749  23639675.8034   23639681.0754
  20032935.346    -2562416.38849  -1782610.25649  20032934.4084   20032939.0274
  23204326.034     1045130.51549    808328.08549  23204325.1104   23204329.1724
  21432419.212    -2889041.10549  -2190722.08749  21432418.1564   21432423.3174
 97  1  8 17 46 29.9990000  0  7 22 29 25 18 14 15 16
  20984987.333    -3151580.50649  -2442385.49249  20984986.0664   20984990.7054
  20542823.979    -2139754.09549  -1653950.90449  20542823.3094   20542826.6224
  22791350.875      656058.41949    505070.87049  22791349.9974   22791353.8444
  23611222.882    -3833857.16149  -2974437.30049  23611222.1714   23611226.6014
  20015315.163    -2655011.33449  -1854762.16449  20015314.4064   20015318.7454
  23209876.991     1074300.70049    831058.09549  23209879.1854   23209884.7294
  21405318.330    -3031457.69549  -2301696.05249  21405317.1574   21405322.1084
 97  1  8 17 46 59.9990000  0  7 22 29 25 18 14 15 16
  20964254.930    -3260530.24949  -2527281.38249  20964253.7994   20964258.1874
  20527588.278    -2219818.36449  -1716338.65749  20527587.5874   20527590.8954
  22794295.228      671531.12749    517127.49249  22794294.6784   22794298.5634
  23582689.354    -3983801.99249  -3091277.40649  23582688.8844   23582693.2034
  19997710.577    -2747524.09049  -1926850.02849  19997709.6944   19997714.3914
  23215362.398     1103126.27349    853519.55449  23215360.4104   23215366.5294
  21378204.131    -3173943.79349  -2412724.18449  21378202.9084   21378207.5394
 97  1  8 17 47 29.9990000  0  7 22 29 25 18 14 15 16
  20943550.167    -3369334.79249  -2612064.12749  20943548.6934   20943553.1574
  20512312.397    -2300093.70949  -1778890.88349  20512311.7824   20512315.1844
  22797182.559      686704.19149    528950.62749  22797181.7994   22797186.2294
  23554081.121    -4134138.74349  -3208422.90749  23554079.9004   23554085.1564
  19980122.393    -2839950.67149  -1998870.73949  19980121.9194   19980126.0284
  23220784.086     1131617.24249    875720.26449  23220784.3754   23220790.5224
  21351076.902    -3316498.44549  -2523805.72549  21351075.6184   21351080.6424
 97  1  8 17 47 59.9990000  0  7 22 29 25 18 14 15 16
  20922875.594    -3477980.38549  -2696723.01249  20922873.8664   20922878.7254
  20497000.443    -2380558.39549  -1841590.64649  20496999.7324   20497003.2574
  22800014.210      701584.46049    540545.61549  22800013.1594   22800017.6924
  23525403.427    -4284840.80349  -3325853.07449  23525402.4134   23525407.9644
  19962556.957    -2932257.89749  -2070798.45149  19962556.0904   19962560.7214
  23226145.769     1159792.74749    897675.15449  23226147.3334   23226151.4044
  21323938.824    -3459110.09549  -2634931.68349  21323937.6254   21323942.2134
 97  1  8 17 48 29.9980000  0  7 22 29 25 18 14 15 16
  20902232.840    -3586458.78849  -2781251.62149  20902231.1174   20902235.9054
  20481654.292    -2461202.99849  -1904430.60049  20481653.8364   20481656.9794
  22802788.938      716165.68249    551907.58349  22802787.9484   22802792.6544
  23496662.601    -4435873.99549  -3443541.23749  23496661.0704   23496666.8594
  19945016.884    -3024431.57849  -2142622.09649  19945015.9834   19945020.3684
  23231449.713     1187664.40449    919393.30149  23231447.6034   23231457.3214
  21296790.107    -3601777.85949  -2746101.36649  21296789.0804   21296793.2204
 97  1  8 17 48 59.9980000  0  7 22 29 25 18 14 15 16
  20881620.611    -3694776.70649  -2865655.18249  20881618.9764   20881623.6344
  20466269.085    -2542052.88249  -1967430.51849  20466268.5774   20466271.9334
  22805503.670      730431.38849    563023.68149  22805503.1394   22805507.1984
  23467854.489    -4587260.77049  -3561504.93349  23467852.2144   23467858.4094
  19927499.037    -3116488.51049  -2214354.77149  19927498.0304   19927502.5634
  23236693.720     1215222.07749    940866.75049  23236693.2224   23236699.4014
  21269626.562    -3744523.53349  -2857331.75649  21269625.2154   21269629.7324
 97  1  8 17 49 29.9980000  0  7 22 29 25 18 14 15 16
  20861043.950    -3802907.62949  -2949913.03349  20861042.3314   20861046.8644
  20450845.444    -2623104.68349  -2030587.76849  20450844.8554   20450848.0714
  22808161.846      744400.03749    573908.31849  22808161.6084   22808165.5454
  23438980.309    -4738993.90049  -3679738.50149  23438978.6634   23438984.7664
  19910005.576    -3208417.13849  -2285987.47149  19910004.6314   19910009.1334
  23241879.774     1242474.12249    962102.04349  23241880.8914   23241887.7544
  21242452.990    -3887321.81749  -2968603.13849  21242451.8774   21242455.5064
 97  1  8 17 49 59.9980000  0  7 22 29 25 18 14 15 16
  20840506.242    -3910833.58349  -3034011.17049  20840504.5094   20840509.2764
  20435384.617    -2704352.01849  -2093897.38749  20435384.1684   20435387.3544
  22810768.523      758097.83249    584581.89049  22810768.0344   22810772.6054
  23410043.730    -4891055.34849  -3798227.90049  23410041.4064   23410048.9124
  19892541.410    -3300191.99849  -2357500.36249  19892540.7614   19892545.3804
  23247010.614     1269436.62749    983111.70349  23247012.0184   23247014.8754
  21215275.497    -4030140.34049  -3079890.30449  21215274.2214   21215278.3264
 97  1  8 17 50 29.9980000  0  7 22 29 25 18 14 15 16
  20820010.495    -4018539.32349  -3117937.71449  20820008.8984   20820013.5084
  20419887.579    -2785789.78449  -2157355.39149  20419886.9364   20419890.3454
  22813326.234      771538.72049    595055.27549  22813325.5934   22813330.1174
  23381044.515    -5043445.27349  -3916973.26549  23381043.0814   23381050.1874
  19875108.314    -3391803.75049  -2428886.15149  19875107.4694   19875112.1624
  23252087.178     1296113.32749   1003898.66249  23252088.7944   23252092.1214
  21188096.061    -4172968.99249  -3191185.35149  21188094.6474   21188099.0194
 97  1  8 17 50 59.9980000  0  7 22 29 25 18 14 15 16
  20799559.535    -4126009.98449  -3201681.07749  20799558.0164   20799562.6554
  20404353.737    -2867420.93649  -2220964.08149  20404353.0104   20404356.4244
  22815836.253      784728.56449    605333.04149  22815835.8464   22815840.1044
  23351981.305    -5196172.09449  -4035981.12949  23351979.9414   23351985.5224
  19857708.778    -3483239.33649  -2500134.66849  19857708.0554   19857712.4634
  23257107.781     1322496.99549   1024457.30649  23257106.4804   23257114.4314
  21160913.869    -4315811.95349  -3302491.55349  21160912.3454   21160916.9254
 97  1  8 17 51 29.9980000  0  7 22 29 25 18 14 15 16
  20779157.302    -4233224.51449  -3285224.86549  20779155.8204   20779160.6564
  20388789.017    -2949214.10449  -2284699.01849  20388788.4454   20388791.4364
  22818305.584      797704.90749    615444.43849  22818304.7264   22818309.1914
  23322859.101    -5349209.81249  -4155231.26449  23322857.1124   23322863.6374
  19840349.898    -3574461.13049  -2571216.59349  19840349.3824   19840353.3504
  23262076.411     1348607.65149   1044803.21649  23262074.2214   23262082.5304
  21133734.909    -4458638.12349  -3413784.67249  21133733.5814   21133738.3744
 97  1  8 17 51 59.9980000  0  7 22 29 25 18 14 15 16
  20758801.026    -4340197.48649  -3368580.43049  20758799.9424   20758803.7554
  20373192.674    -3031173.25149  -2348563.28949  20373191.8934   20373195.1904
  22820732.054      810456.08849    625380.37249  22820731.6064   22820735.9424
  23293673.683    -5502579.21949  -4274739.85749  23293672.4364   23293679.2754
  19823029.136    -3665482.69449  -2642142.48849  19823028.6334   19823032.8624
  23266989.765     1374427.06949   1064922.18549  23266987.3104   23266994.7534
  21106555.431    -4601467.13349  -3525080.00449  21106553.9174   21106559.1304
 97  1  8 17 52 29.9980000  0  7 22 29 25 18 14 15 16
  20738497.458    -4446893.77049  -3451720.39049  20738495.9584   20738500.2274
  20357571.010    -3113265.66549  -2412531.40749  20357570.3674   20357573.4674
  22823120.500      823007.52449    635160.65549  22823119.6934   22823123.8544
  23264429.743    -5656256.99149  -4394488.75449  23264429.5114   23264434.6774
  19805747.912    -3756296.49249  -2712906.48849  19805747.2464   19805751.1324
  23271851.370     1399974.50049   1084829.22949  23271849.8544   23271856.6604
  21079381.341    -4744267.63049  -3636353.11749  21079379.9494   21079385.0694
 97  1  8 17 52 59.9980000  0  7 22 29 25 18 14 15 16
  20718243.152    -4553330.99849  -3534658.48649  20718241.5004   20718246.1724
  20341920.720    -3195508.46849  -2476616.70649  20341920.1224   20341923.3934
  22825468.774      835347.86649    644776.45349  22825467.1884   22825472.6524
  23235126.064    -5810249.88549  -4514483.17949  23235125.7874   23235131.0874
  19788499.704    -3846936.72349  -2783535.23949  19788498.8674   19788503.1674
  23276657.170     1425229.04649   1104508.03549  23276656.6664   23276661.9394
  21052212.426    -4887041.28649  -3747605.31249  21052211.1974   21052216.4014
 97  1  8 17 53 29.9980000  0  7 22 29 25 18 14 15 16
  20698037.991    -4659509.34549  -3617394.85549  20698036.3284   20698041.2074
  20326247.032    -3277874.13049  -2540797.74949  20326246.1634   20326249.7524
  22827778.620      847486.38349    654234.98349  22827777.6284   22827783.0764
  23205765.976    -5964538.79049  -4634708.28049  23205765.4334   23205769.6544
  19771284.378    -3937403.85949  -2854029.11349  19771283.4354   19771287.9264
  23281408.619     1450198.38449   1123964.59949  23281407.4774   23281414.3254
  21025051.237    -5029774.48849  -3858825.99049  21025049.9414   21025054.8704
 97  1  8 17 53 59.9980000  0  7 22 29 25 18 14 15 16
  20677882.008    -4765429.47449  -3699930.01049  20677880.6214   20677884.9564
  20310551.701    -3360353.31949  -2605067.24949  20310551.2184   20310554.5654
  22830048.450      859414.70949    663529.73049  22830047.6874   22830052.6294
  23176351.949    -6119110.85449  -4755154.01249  23176351.5664   23176354.3744
  19754102.412    -4027695.46849  -2924386.21949  19754101.2204   19754105.8804
  23286106.941     1474888.14349   1143203.32649  23286103.9964   23286113.5754
  20997896.991    -5172471.27749  -3970018.28849  20997896.0594   20997900.5534
 97  1  8 17 54 29.9980000  0  7 22 29 25 18 14 15 16
  20657772.723    -4871104.76549  -3782274.38249  20657771.4424   20657775.8654
  20294832.004    -3442961.07249  -2669436.93549  20294831.3314   20294834.9404
  22832272.455      871102.12849    672636.75549  22832271.3374   22832276.0034
  23146883.751    -6273967.61749  -4875821.59349  23146882.5674   23146886.8734
  19736954.560    -4117807.49049  -2994603.39049  19736953.3324   19736958.2724
  23290749.088     1499282.98049   1162212.22149  23290747.8714   23290755.3214
  20970748.682    -5315136.79949  -4081186.22349  20970747.5144   20970752.0884
 97  1  8 17 54 59.9980000  0  7 22 29 25 18 14 15 16
  20637707.672    -4976547.58949  -3864437.60849  20637706.4234   20637710.9234
  20279084.633    -3525714.07349  -2733919.80149  20279084.0424   20279087.6494
  22834443.513      882511.01549    681526.73349  22834443.0044   22834447.7824
  23117357.245    -6429130.94949  -4996728.07849  23117356.8174   23117359.5754
  19719845.253    -4207717.30749  -3064663.00149  19719844.3864   19719849.1114
  23295331.369     1523363.09549   1180975.86149  23295330.4684   23295338.1624
  20943600.625    -5457801.01349  -4192353.13749  20943599.5084   20943604.2904
 97  1  8 17 55 29.9980000  0  7 22 29 25 18 14 15 16
  20617695.331    -5081713.26249  -3946384.87049  20617694.1074   20617698.0364
  20263315.111    -3608583.55149  -2798493.42549  20263314.7494   20263318.0734
  22836565.035      893659.23349    690213.59649  22836564.9954   22836569.2944
  23087777.528    -6584573.65149  -5117852.24249  23087775.9654   23087779.6534
  19702786.729    -4297360.56449  -3134514.89849  19702785.9854   19702790.6034
  23299860.551     1547164.05049   1199521.96849  23299859.3734   23299866.8044
  20916459.292    -5600429.87649  -4303492.50949  20916458.3674   20916462.8394
 97  1  8 17 55 59.9980000  0  7 22 29 25 18 14 15 16
  20597739.637    -5186581.37649  -4028100.27349  20597738.2734   20597742.4804
  20247520.761    -3691583.71649  -2863168.88149  20247520.1834   20247523.4644
  22838636.580      904544.53049    698695.58849  22838636.1114   22838640.0984
  23058146.749    -6740284.59949  -5239185.45049  23058146.5174   23058148.6474
  19685780.503    -4386729.37949  -3204152.94949  19685779.8984   19685784.1804
  23304337.574     1570690.61449   1217854.28849  23304335.9644   23304343.2084
  20889329.624    -5742997.65849  -4414584.28349  20889328.1994   20889332.9764
 97  1  8 17 56 29.9980000  0  7 22 29 25 18 14 15 16
  20577845.027    -5291127.99149  -4109565.15849  20577843.7154   20577847.9474
  20231703.206    -3774706.00149  -2927939.49549  20231702.8644   20231706.0544
  22840658.829      915170.99749    706975.89549  22840657.9124   22840662.9744
  23028466.326    -6896257.47349  -5360722.73349  23028465.1454   23028468.8824
  19668827.894    -4475816.37849  -3273571.39449  19668827.4744   19668831.4824
  23308762.518     1593942.80549   1235972.78449  23308763.3294   23308768.2284
  20862215.453    -5885483.51249  -4525612.21249  20862214.3704   20862218.9764
 97  1  8 17 56 59.9980000  0  7 22 29 25 18 14 15 16
  20558007.492    -5395375.11649  -4190796.66149  20558005.9694   20558010.4334
  20215861.469    -3857955.09249  -2992808.91949  20215860.8414   20215864.0904
  22842631.856      925539.84849    715055.46849  22842631.0264   22842636.3844
  22998733.910    -7052503.10149  -5482472.56249  22998732.7494   22998735.3844
  19651923.885    -4564647.93349  -3342790.79149  19651922.9574   19651927.5024
  23313132.584     1616906.27549   1253866.33849  23313131.6954   23313136.8254
  20835114.354    -6027900.82549  -4636586.73249  20835113.1914   20835117.6354
 97  1  8 17 57 29.9980000  0  7 22 29 25 18 14 15 16
  20538222.599    -5499345.04449  -4271812.17349  20538221.4054   20538225.5894
  20199995.056    -3941333.75549  -3057779.30649  20199994.5954   20199997.4914
  22844558.344      935663.40349    722943.89049  22844557.1924   22844562.1854
  22968949.003    -7209023.83749  -5604436.75849  22968948.4884   22968950.0874
  19635062.353    -4653255.67049  -3411835.79149  19635061.2504   19635065.7364
  23317446.028     1639573.07849   1271528.68449  23317444.1494   23317451.0044
  20808026.873    -6170246.46449  -4747505.40849  20808025.8034   20808030.4704
 97  1  8 17 57 59.9980000  0  7 22 29 25 18 14 15 16
  20518487.793    -5603052.03949  -4352622.80049  20518486.5174   20518490.5734
  20184109.192    -4024814.66649  -3122829.37249  20184108.8324   20184111.8534
  22846441.525      945559.40549    730655.00349  22846441.9574   22846445.3564
  22939113.170    -7365812.97049  -5726610.11949  22939113.3524   22939115.0394
  19618242.043    -4741646.49649  -3480711.77049  19618241.1844   19618245.7894
  23321703.120     1661943.52849   1288960.13749  23321704.1104   23321707.8034
  20780955.399    -6312508.13649  -4858358.65749  20780954.2754   20780959.0084
 97  1  8 17 58 29.9980000  0  8 22 19 29 25 18 14 15 16
  20498798.272    -5706521.37149  -4433248.23549  20498796.5684   20498801.1984
  24086432.672    -1553726.00549  -1172239.77549  24086430.7214   24086439.2314
  20168204.123    -4108396.55949  -3187958.12249  20168203.4334   20168206.7484
  22848282.043      955230.78049    738191.09349  22848281.8144   22848286.0194
  22909221.685    -7522894.41949  -5849011.23149  22909221.7064   22909223.5464
  19601462.670    -4829822.37149  -3549420.25249  19601461.9504   19601466.3794
  23325901.593     1684006.44549   1306151.95449  23325898.2374   23325908.4864
  20753896.314    -6454704.49949  -4969161.00949  20753895.1574   20753899.9174
 97  1  8 17 58 59.9970000  0  8 22 19 29 25 18 14 15 16
  20479153.664    -5809754.23649  -4513689.40849  20479152.0984   20479156.6014
  24054012.260    -1724096.03949  -1304995.55749  24054011.1054   24054010.6164
  20152279.633    -4192080.36049  -3253166.28249  20152279.0874   20152282.3734
  22850083.343      964696.19549    745566.69449  22850083.1774   22850087.4904
  22879276.888    -7680256.69549  -5971631.20149  22879276.5164   22879278.8644
  19584726.387    -4917772.11749  -3617952.53349  19584725.8564   19584730.2394
  23330042.693     1705768.38849   1323109.21149  23330043.8574   23330049.1674
  20726853.169    -6596817.08949  -5079898.08749  20726852.1394   20726857.0124
 97  1  8 17 59 29.9970000  0  8 22 19 29 25 18 14 15 16
  20459556.975    -5912735.41649  -4593934.46549  20459555.5644   20459560.0884
  24021562.320    -1894621.52549  -1437872.59949  24021562.1694   24021569.6704
  20136335.761    -4275865.89049  -3318453.71649  20136334.9854   20136338.4574
  22851845.813      973957.26749    752783.06149  22851845.2674   22851849.7734
  22849278.147    -7837902.04749  -6094471.73849  22849278.0244   22849280.7204
  19568035.284    -5005484.77849  -3686300.07249  19568034.4324   19568039.0704
  23334128.643     1727239.69349   1339840.00549  23334129.2484   23334134.0424
  20699828.236    -6738834.03649  -5190560.64149  20699827.1384   20699832.0644
 97  1  8 17 59 59.9970000  0  8 22 19 29 25 18 14 15 16
  20440016.592    -6015420.87749  -4673949.08449  20440015.0024   20440019.8324
  23989092.843    -2065249.38649  -1570829.35849  23989092.3674   23989098.4584
  20120376.919    -4359730.03149  -3383802.39949  20120376.3134   20120379.7924
  22853572.452      983030.22149    759852.85049  22853572.0414   22853576.8654
  22819233.493    -7995788.49549  -6217500.11849  22819232.7344   22819235.5594
  19551394.370    -5092933.76549  -3754442.15249  19551393.9124   19551398.1924
  23338163.552     1748443.15449   1356362.05149  23338161.8774   23338168.5694
  20672827.989    -6880721.57349  -5301122.35949  20672826.8104   20672831.5534
 97  1  8 18  0 29.9970000  0  8 22 19 29 25 18 14 15 16
  20420543.929    -6117750.35349  -4753686.31749  20420543.0324   20420546.9114
  23956606.894    -2235963.65049  -1703853.35049  23956607.4864   23956609.0914
  20104405.535    -4443660.22649  -3449202.56149  20104404.9304   20104408.6144
  22855267.741      991938.89049    766794.63049  22855267.4284   22855271.1844
  22789150.377    -8153877.88549  -6340686.64649  22789150.0004   22789152.9384
  19534811.405    -5180078.30449  -3822346.99849  19534810.7724   19534815.1724
  23342153.597     1769410.43249   1372700.06949  23342153.0744   23342157.9744
  20645856.020    -7022460.10149  -5411567.96949  20645854.9024   20645859.7874
 97  1  8 18  0 59.9970000  0  8 22 19 29 25 18 14 15 16
  20401141.354    -6219711.54149  -4833136.57649  20401139.8054   20401144.3914
  23924101.927    -2406777.14149  -1836954.78349  23924102.6384   23924106.6734
  20088420.946    -4527659.85049  -3514656.82649  20088420.3864   20088423.7974
  22856927.894     1000663.05549    773592.62049  22856927.5584   22856932.3774
  22759028.951    -8312167.41749  -6464029.11649  22759029.6124   22759032.5094
  19518286.192    -5266919.06049  -3890015.13149  19518285.4924   19518290.0954
  23346097.466     1790133.82549   1388848.05149  23346098.4024   23346104.2914
  20618912.443    -7164049.59749  -5521897.44649  20618911.2654   20618915.6534
 97  1  8 18  1 29.9970000  0  8 22 19 29 25 18 14 15 16
  20381808.121    -6321308.19449  -4912302.78249  20381806.5194   20381811.3414
  23891575.482    -2577705.10949  -1970145.34649  23891573.9874   23891583.2854
  20072419.799    -4611746.58449  -3580178.96149  20072419.3234   20072422.6644
  22858546.441     1009168.00749    780219.81749  22858546.4084   22858550.2924
  22728865.390    -8470679.17149  -6587544.75049  22728865.8744   22728868.6384
  19501815.167    -5353474.88049  -3957461.23449  19501814.4154   19501819.0864
  23349990.777     1810592.65049   1404789.91849  23349990.6984   23349996.9114
  20591991.563    -7305519.81649  -5632133.98049  20591990.3224   20591994.6254
 97  1  8 18  1 59.9970000  0  8 22 19 29 25 18 14 15 16
  20362544.026    -6422541.44149  -4991185.82149  20362542.6354   20362547.2284
  23859025.752    -2748754.27949  -2103430.35249  23859025.4604   23859032.7464
  20056400.955    -4695926.26749  -3645773.52749  20056400.5734   20056403.7204
  22860123.188     1017453.26649    786675.81049  22860122.0574   22860127.3404
  22698657.019    -8629425.87449  -6711243.46549  22698655.9674   22698660.3864
  19485399.196    -5439741.31149  -4024681.83949  19485398.2894   19485402.8394
  23353832.172     1830778.71449   1420519.21149  23353830.2904   23353837.7054
  20565091.603    -7446880.03349  -5742284.80049  20565090.0344   20565094.9134
 97  1  8 18  2 29.9970000  0  8 22 19 29 25 18 14 15 16
  20343349.131    -6523411.41449  -5069785.78949  20343347.5844   20343351.8324
  23826452.704    -2919928.84249  -2236813.01549  23826451.8114   23826459.8504
  20040368.929    -4780175.38049  -3711422.19549  20040368.6614   20040371.5394
  22861659.219     1025524.93949    792965.37249  22861658.1634   22861662.9914
  22668402.406    -8788415.72749  -6835131.63149  22668400.3134   22668404.5104
  19469042.309    -5525697.41849  -4091660.63349  19469041.5534   19469045.9364
  23357622.213     1850695.24949   1436038.48949  23357620.2964   23357627.5954
  20538214.944    -7588117.75449  -5852340.16549  20538213.7604   20538218.0674
 97  1  8 18  2 59.9970000  0  8 22 19 29 25 18 14 15 16
  20324223.074    -6623919.53249  -5148103.79449  20324221.7244   20324226.0644
  23793862.085    -3091196.10349  -2370267.94149  23793861.7024   23793867.6784
  20024328.311    -4864469.82149  -3777106.18449  20024327.8764   20024330.8574
  22863157.493     1033398.93449    799100.89549  22863157.0064   22863160.8894
  22638102.821    -8947641.63649  -6959203.72349  22638101.7584   22638106.0714
  19452744.521    -5611342.82749  -4158397.32649  19452743.5764   19452748.0974
  23361361.655     1870346.24249   1451350.86249  23361359.4874   23361366.8704
  20511366.751    -7729205.98049  -5962279.03649  20511365.5174   20511370.3094
 97  1  8 18  3 29.9970000  0  8 22 19 29 25 18 14 15 16
  20305172.951    -6724028.78349  -5226110.98649  20305171.5324   20305175.8434
  23761260.843    -3262516.86849  -2503764.61749  23761260.5624   23761266.0784
  20008288.051    -4948762.32349  -3842788.65849  20008287.4214   20008290.5784
  22864628.586     1041129.39049    805124.56249  22864627.4284   22864632.9614
  22607767.345    -9107055.43949  -7083422.23749  22607766.1494   22607769.0214
  19436513.072    -5696639.43049  -4224862.21749  19436512.5424   19436516.7644
  23365057.562     1889768.28349   1466484.81249  23365056.3484   23365063.6274
  20484556.809    -7870093.06549  -6072061.17349  20484555.4974   20484560.1254
 97  1  8 18  3 59.9970000  0  8 22 19 29 25 18 14 15 16
  20286200.928    -6823727.61649  -5303798.37649  20286199.0774   20286203.7564
  23728647.403    -3433901.30149  -2637310.88149  23728645.8704   23728652.2714
  19992253.933    -5033022.28049  -3908445.76849  19992253.3514   19992256.3584
  22866074.808     1048729.48649    811046.64849  22866073.8074   22866079.5244
  22577402.076    -9266625.28249  -7207762.36149  22577400.4414   22577405.1184
  19420351.581    -5781568.68049  -4291040.86549  19420350.7614   19420355.2544
  23368712.027     1908972.41649   1481448.99649  23368710.3984   23368718.1014
  20457791.636    -8010744.69949  -6181659.84349  20457790.5664   20457795.4484
 97  1  8 18  4 29.9970000  0  8 22 19 29 25 18 14 15 16
  20267309.816    -6923001.03149  -5381154.27049  20267308.4344   20267312.8294
  23696022.568    -3605345.39149  -2770903.59649  23696019.6674   23696027.7654
  19976226.588    -5117246.67349  -3974075.16849  19976225.9074   19976229.3044
  22867497.489     1056205.68649    816872.20549  22867496.3824   22867501.1794
  22547009.805    -9426336.80349  -7332212.86149  22547008.6814   22547012.6574
  19404260.338    -5866128.53349  -4356931.67049  19404259.6714   19404264.2474
  23372325.928     1927962.39049   1496246.27449  23372323.7974   23372331.0024
  20431074.098    -8151145.97649  -6291063.42849  20431072.7034   20431077.7664
 97  1  8 18  4 59.9970000  0  8 22 19 29 25 18 14 15 16
  20248498.924    -7021852.72049  -5458181.54649  20248497.2674   20248501.8154
  23663386.669    -3776846.97449  -2904541.14149  23663384.6804   23663392.3284
  19960198.171    -5201476.66949  -4039708.93449  19960197.5934   19960200.7874
  22868892.541     1063536.70649    822584.62349  22868892.4554   22868896.4954
  22516591.901    -9586182.87649  -7456768.20949  22516590.3594   22516594.3454
  19388235.003    -5950342.34349  -4422552.83349  19388234.4454   19388238.9584
  23375895.354     1946719.79049   1510862.35149  23375894.1154   23375900.7604
  20404401.119    -8291312.87349  -6400284.38249  20404399.8084   20404404.8824
 97  1  8 18  5 29.9970000  0  8 22 19 29 25 18 14 15 16
  20229772.218    -7120262.12749  -5534864.18749  20229771.0314   20229775.3454
  23630741.383    -3948398.43849  -3038217.57549  23630740.2194   23630747.8104
  19944169.568    -5285707.33449  -4105343.22649  19944169.0094   19944172.3714
  22870260.580     1070725.99149    828186.60549  22870260.7984   22870265.2604
  22486151.894    -9746144.59149  -7581413.66849  22486149.9124   22486155.9164
  19372279.294    -6034190.45049  -4487889.03349  19372278.5614   19372283.2204
  23379423.248     1965258.01349   1525307.60449  23379423.2424   23379428.7504
  20377772.959    -8431244.41549  -6509321.94749  20377771.5824   20377776.8594
 97  1  8 18  5 59.9970000  0  8 22 19 29 25 18 14 15 16
  20211130.652    -7218224.29049  -5611198.33349  20211129.4264   20211134.2224
  23598091.180    -4119976.76349  -3171914.90449  23598090.4224   23598097.0364
  19928139.606    -5369945.41849  -4170983.29449  19928139.1064   19928142.3894
  22871598.622     1077757.15049    833665.37749  22871597.7824   22871603.8194
  22455688.325    -9906230.49949  -7706155.90849  22455687.2814   22455691.8854
  19356392.622    -6117675.55449  -4552942.37149  19356391.8394   19356396.7994
  23382909.430     1983577.98449   1539582.79949  23382909.2594   23382915.7854
  20351188.128    -8570948.43449  -6618182.21749  20351186.9764   20351192.1674
 97  1  8 18  6 29.9970000  0  8 22 19 29 25 18 14 15 16
  20192583.570    -7315690.32149  -5687145.88549  20192582.1064   20192586.5424
  23565451.341    -4291500.30449  -3305569.55649  23565450.0984   23565457.7374
  19912116.192    -5454148.72449  -4236596.27249  19912115.5594   19912119.1834
  22872917.610     1084688.34749    839066.23949  22872916.8094   22872922.7274
  22425208.919   -10066399.85549  -7830963.17349  22425206.8724   22425211.9614
  19340583.889    -6200751.00949  -4617676.50449  19340583.1234   19340587.8254
  23386363.224     2001726.81849   1553724.63549  23386361.9694   23386370.5484
  20324653.540    -8710388.71149  -6726836.98149  20324652.4664   20324657.7304
 97  1  8 18  6 59.9970000  0  8 22 19 29 25 18 14 15 16
  20174115.416    -7412740.95149  -5762769.74049  20174114.0514   20174118.1654
  23532810.031    -4463031.21149  -3439229.95949  23532809.1754   23532815.8894
  19896091.094    -5538360.98349  -4302216.22349  19896090.1234   19896093.7744
  22874206.838     1091463.00649    844345.13249  22874205.9474   22874211.5684
  22394702.323   -10226711.20449  -7955881.07949  22394700.6814   22394706.5974
  19324840.555    -6283483.04449  -4682143.03649  19324839.7024   19324844.3994
  23389771.997     2019639.62749   1567682.54949  23389770.9394   23389777.5874
  20298156.546    -8849631.79849  -6835338.08249  20298155.7894   20298160.5924
 97  1  8 18  7 29.9970000  0  8 22 19 29 25 18 14 15 16
  20155728.326    -7509365.40449  -5838061.50849  20155726.8214   20155731.2994
  23500168.406    -4634563.90749  -3572891.75649  23500167.8024   23500174.7654
  19880071.722    -5622543.15249  -4367812.73049  19880071.2234   19880074.8304
  22875470.891     1098105.39349    849520.95949  22875470.3514   22875475.0984
  22364168.949   -10387164.18349  -8080909.36149  22364167.2694   22364172.4284
  19309168.004    -6365842.61349  -4746319.33949  19309167.1824   19309171.7954
  23393139.544     2037335.82449   1581471.68149  23393139.3774   23393145.8184
  20271701.935    -8988652.14049  -6943665.61849  20271701.3534   20271705.6354
 97  1  8 18  7 59.9970000  0  8 22 19 29 25 18 14 15 16
  20137417.904    -7605586.99149  -5913039.35649  20137416.4874   20137420.9454
  23467523.182    -4806116.31249  -3706568.92249  23467523.0424   23467528.9574
  19864055.619    -5706708.09949  -4433395.81449  19864054.9314   19864058.6774
  22876706.853     1104600.28549    854581.85549  22876706.2164   22876711.3504
  22333603.260   -10547786.79249  -8206069.79849  22333601.3894   22333607.2884
  19293562.276    -6447851.15249  -4810222.11149  19293561.3954   19293566.2064
  23396461.022     2054789.47549   1595071.82049  23396459.7884   23396466.6784
  20245288.079    -9127458.75849  -7051826.61549  20245287.4794   20245291.3744
 97  1  8 18  8 29.9970000  0  8 22 19 29 25 18 14 15 16
  20119195.836    -7701344.53749  -5987655.61349  20119194.3824   20119199.1984
  23434883.216    -4977640.71749  -3840224.26849  23434881.2194   23434889.2454
  19848057.098    -5790780.91849  -4498907.11049  19848056.5964   19848059.9564
  22877932.228     1111039.49249    859599.37049  22877931.4084   22877936.5814
  22303018.159   -10708512.01749  -8331310.21349  22303016.9834   22303022.8654
  19278038.584    -6529428.32949  -4873788.75749  19278037.8724   19278042.3924
  23399748.072     2072062.92549   1608531.53949  23399747.3124   23399754.6684
  20218928.558    -9265979.95049  -7159765.19849  20218927.5984   20218931.5874
 97  1  8 18  8 59.9960000  0  8 22 19 29 25 18 14 15 16
  20101063.332    -7796631.38249  -6061905.09249  20101062.1844   20101066.6434
  23402244.791    -5149156.46749  -3973872.86749  23402243.9244   23402250.3234
  19832076.602    -5874759.19849  -4564344.74249  19832076.2494   19832079.5284
  22879143.646     1117405.27949    864559.66849  22879142.6894   22879147.9214
  22272414.529   -10869334.77049  -8456626.62349  22272413.2994   22272419.1484
  19262599.589    -6610560.75349  -4937008.84349  19262598.7104   19262603.3254
  23402999.572     2089149.09649   1621845.33749  23402998.5314   23403005.4764
  20192625.556    -9404203.42549  -7267471.80049  20192624.3474   20192628.5624
 97  1  8 18  9 29.9960000  0  8 22 19 29 25 18 14 15 16
  20083022.860    -7891434.85349  -6135777.91849  20083021.5434   20083025.9654
  23369607.595    -5320665.71949  -4107516.42549  23369606.0284   23369612.4024
  19816111.359    -5958657.25049  -4629719.85549  19816110.8924   19816114.0814
  22880338.370     1123683.44949    869451.69149  22880338.1424   22880343.1454
  22241788.168   -11030276.59549  -8582035.81949  22241786.3524   22241793.3364
  19247245.714    -6691245.99149  -4999880.46749  19247245.2894   19247249.6164
  23406215.719     2106048.89749   1635013.88049  23406215.2444   23406221.6994
  20166378.125    -9542134.68049  -7374950.69749  20166376.8884   20166380.9994
 97  1  8 18  9 59.9960000  0  8 22 19 29 25 18 14 15 16
  20065074.687    -7985753.32249  -6209272.82249  20065073.4794   20065077.8524
  23336972.408    -5492163.95949  -4241151.39549  23336971.5514   23336976.9684
  19800161.375    -6042475.16249  -4695032.52049  19800160.7044   19800164.1534
  22881514.905     1129866.09049    874269.27749  22881514.3774   22881519.2744
  22211138.606   -11191341.21149  -8707540.69749  22211136.6804   22211142.9334
  19231974.322    -6771498.14149  -5062414.61849  19231973.8624   19231978.2014
  23409394.376     2122751.32449   1648028.63649  23409393.9444   23409400.4944
  20140184.495    -9679782.92949  -7482209.07349  20140183.0314   20140187.3064
 97  1  8 18 10 29.9960000  0  8 22 19 29 25 18 14 15 16
  20047216.467    -8079598.95249  -6282399.28649  20047215.0824   20047219.8934
  23304337.493    -5663661.67649  -4374785.97149  23304336.2944   23304342.8294
  19784225.033    -6126221.24549  -4760289.21449  19784224.3664   19784228.1184
  22882669.211     1135931.47549    878995.49649  22882669.4184   22882674.5384
  22180464.988   -11352531.59949  -8833143.58249  22180464.1644   22180470.0644
  19216784.137    -6851323.44649  -5124616.16249  19216783.8874   19216788.1184
  23412533.326     2139246.09649   1660881.57249  23412532.3514   23412540.0204
  20114044.375    -9817149.39849  -7589247.87649  20114043.1984   20114047.6964
 97  1  8 18 10 59.9960000  0  8 22 19 29 25 18 14 15 16
  20029456.845    -8172926.23449  -6355121.84249  20029455.5864   20029460.0024
  23271710.427    -5835118.24949  -4508388.46849  23271709.2814   23271715.0624
  19768308.329    -6209863.85049  -4825465.28049  19768307.8154   19768311.1414
  22883803.212     1141890.28849    883638.66949  22883802.7534   22883807.8784
  22149776.458   -11513800.28549  -8958807.48949  22149775.1304   22149781.8714
  19201679.863    -6930697.44049  -5186466.03849  19201679.3244   19201683.8384
  23415639.539     2155568.39549   1673600.09949  23415638.5314   23415645.1994
  20087967.544    -9954183.53449  -7696027.72049  20087966.1404   20087970.8744
 97  1  8 18 11 29.9960000  0  8 22 19 29 25 18 14 15 16
  20011780.048    -8265818.28049  -6427505.25349  20011778.9544   20011783.3264
  23239080.681    -6006588.36149  -4642001.50949  23239079.3004   23239085.8964
  19752398.603    -6293469.90449  -4890612.86649  19752397.8894   19752401.5504
  22884907.759     1147694.40349    888161.31049  22884906.8594   22884911.5174
  22119059.649   -11675217.46549  -9084587.08249  22119059.1144   22119065.0394
  19186645.228    -7009705.01049  -5248030.39349  19186644.4324   19186649.1474
  23418700.267     2171651.42149   1686132.19849  23418700.5214   23418706.0864
  20061941.377   -10090951.62649  -7802600.26149  20061940.0184   20061944.7544
 97  1  8 18 11 59.9960000  0  8 22 19 29 25 18 14 15 16
  19994200.614    -8358199.28349  -6499490.44249  19994199.4544   19994203.8584
  23206463.823    -6177990.05549  -4775561.24249  23206463.2004   23206469.1244
  19736511.183    -6376958.92349  -4955669.25749  19736510.9584   19736514.2704
  22886001.047     1153439.13349    892637.65349  22886000.3824   22886005.7904
  22088335.833   -11836671.65749  -9210395.55249  22088335.1244   22088341.3054
  19171697.048    -7088258.24249  -5309240.72049  19171696.0314   19171700.8994
  23421730.480     2187575.17549   1698540.16849  23421729.3244   23421736.5874
  20035984.506   -10227355.75449  -7908889.19649  20035983.5074   20035988.0904
 97  1  8 18 12 29.9960000  0  8 22 19 29 25 18 14 15 16
  19976703.788    -8450145.86349  -6571137.12349  19976702.3074   19976706.7874
  23173845.218    -6349401.87749  -4909128.83349  23173843.2924   23173851.5784
  19720628.866    -6460421.16449  -5020704.78149  19720628.3434   19720631.9264
  22887067.290     1159042.13749    897003.57449  22887066.4744   22887072.1214
  22057592.997   -11998226.48549  -9336282.41149  22057592.5164   22057599.3254
  19156824.710    -7166412.49349  -5370140.15149  19156823.9574   19156828.7074
  23424714.445     2203255.77849   1710758.65749  23424713.5184   23424721.5994
  20010083.903   -10363464.57249  -8014948.01949  20010083.0284   20010087.6144
 97  1  8 18 12 59.9960000  0  8 22 19 29 25 18 14 15 16
  19959309.551    -8541552.94649  -6642363.42249  19959308.2284   19959312.7344
  23141243.251    -6520725.17549  -5042627.45249  23141242.2714   23141248.9974
  19704768.967    -6543765.59549  -5085648.50949  19704768.6034   19704772.0864
  22888127.580     1164613.54349    901344.86049  22888127.1994   22888132.6294
  22026849.719   -12159783.43949  -9462170.93549  22026848.2004   22026854.7954
  19142045.778    -7244076.25549  -5430657.38449  19142045.2084   19142049.9084
  23427669.973     2218787.64149   1722861.25949  23427668.1234   23427674.2654
  19984256.153   -10499190.56949  -8120708.53549  19984255.3684   19984260.1024
 97  1  8 18 13 29.9960000  0  9 22 19  4 29 25 18 14 15 16
  19942004.366    -8632492.10349  -6713225.10349  19942002.8594   19942007.6664
  23108647.189    -6692018.42849  -5176102.66649  23108647.5464   23108653.6164
  23740426.888    -8758558.43549  -6803125.76949  23740426.7854   23740430.1694
  19688918.189    -6627062.49049  -5150555.19349  19688917.8264   19688921.1594
  22889169.778     1170090.18749    905612.31149  22889168.9784   22889173.7034
  21996090.744   -12321422.86049  -9588123.70749  21996090.2744   21996096.1324
  19127348.757    -7321309.76349  -5490839.35049  19127348.0034   19127352.7514
  23430582.654     2234094.77049   1734788.74449  23430580.9664   23430587.7174
  19958485.822   -10634614.57149  -8226233.73349  19958484.6994   19958489.7024
 97  1  8 18 13 59.9960000  0  9 22 19  4 29 25 18 14 15 16
  19924809.213    -8722852.98449  -6783636.18149  19924807.7534   19924812.2974
  23076070.966    -6863206.28659  -5309495.73449  23076073.2974   23076077.3914
  23719218.507    -8870009.62149  -6889970.87349  23719218.6574   23719221.5604
  19673091.195    -6710234.13749  -5215364.28049  19673090.7934   19673094.1074
  22890204.185     1175525.48349    909847.55949  22890202.5134   22890207.9314
  21965332.157   -12483059.79749  -9714074.56149  21965331.4174   21965337.7694
  19112751.415    -7398019.74149  -5550613.37249  19112750.8684   19112755.2554
  23433467.305     2249253.76549   1746600.80649  23433466.4694   23433473.1884
  19932788.647   -10769654.23849  -8331459.45349  19932787.5084   19932792.6504
 97  1  8 18 14 29.9960000  0  8 22  4 29 25 18 14 15 16
  19907721.523    -8812649.58349  -6853607.55449  19907720.4224   19907724.5864
  23698086.857    -8981057.92749  -6976502.03849  23698085.5074   23698088.6304
  19657286.720    -6793287.50349  -5280081.19849  19657286.3644   19657289.6524
  22891225.177     1180890.34649    914027.90049  22891224.8954   22891229.4814
  21934565.994   -12644737.44449  -9840057.13849  21934565.2764   21934573.1994
  19098248.922    -7474231.12249  -5609998.87649  19098248.2884   19098252.5404
  23436319.765     2264243.53649   1758281.03949  23436320.2234   23436325.3224
  19907159.743   -10904334.89849  -8436405.43249  19907158.4614   19907163.8334
 97  1  8 18 14 59.9960000  0  8 22  4 29 25 18 14 15 16
  19890725.664    -8901963.97749  -6923203.18949  19890724.5584   19890728.7674
  23677017.777    -9091776.56749  -7062776.32549  23677017.7724   23677019.9764
  19641492.609    -6876286.39149  -5344755.67249  19641492.0084   19641495.3464
  22892218.779     1186111.21849    918096.04249  22892218.2274   22892223.0234
  21903777.543   -12806531.91049  -9966130.74649  21903776.8914   21903783.5614
  19083824.459    -7550032.41849  -5669064.83049  19083824.0144   19083828.2594
  23439126.201     2278990.75449   1769772.30149  23439125.7414   23439132.9764
  19881586.419   -11038723.29549  -8541123.66249  19881585.1454   19881590.5684
 97  1  8 18 15 29.9960000  0  8 22  4 29 25 18 14 15 16
  19873841.406    -8990691.83349  -6992341.77949  19873840.1274   19873844.5364
  23656033.869    -9202047.77349  -7148701.96349  23656034.1584   23656037.2274
  19625730.976    -6959114.47849  -5409297.05049  19625730.3904   19625733.7914
  22893202.768     1191281.88849    922125.06649  22893201.7564   22893207.5844
  21872988.391   -12968330.47449 -10092207.54549  21872987.7564   21872993.1594
  19069501.202    -7625302.00649  -5727716.46749  19069500.6194   19069505.0074
  23441907.366     2293605.02549   1781159.97149  23441907.2154   23441913.9354
  19856092.172   -11172696.13949  -8645518.09549  19856091.1544   19856096.2694
 97  1  8 18 15 59.9960000  0  8 22  4 29 25 18 14 15 16
  19857046.774    -9078948.14849  -7061112.93549  19857045.1544   19857049.9314
  23635118.291    -9311960.54949  -7234348.30749  23635117.9384   23635121.3664
  19609983.501    -7041868.06949  -5473780.38449  19609983.0414   19609986.4424
  22894155.508     1196288.05149    926025.89749  22894154.7664   22894159.8544
  21842179.892   -13130230.76649 -10218363.61149  21842179.4044   21842184.8534
  19055260.142    -7700139.15449  -5786031.13349  19055259.2194   19055264.0084
  23444643.260     2307981.59249   1792362.37049  23444642.6424   23444649.7844
  19830658.811   -11306349.48549  -8749663.56049  19830657.9914   19830662.7414
 97  1  8 18 16 29.9960000  0  8 22  4 29 25 18 14 15 16
  19840356.762    -9166654.40849  -7129455.48249  19840355.3184   19840360.0164
  23614290.737    -9421409.97249  -7319633.59449  23614289.7374   23614294.0614
  19594269.347    -7124446.51449  -5538127.24249  19594268.9104   19594272.3834
  22895098.955     1201245.73249    929888.96349  22895098.2734   22895102.9354
  21811370.732   -13292133.94449 -10344521.90949  21811370.1234   21811376.8554
  19041119.438    -7774448.60749  -5843934.61349  19041118.6984   19041123.3284
  23447351.996     2322216.19049   1803454.19949  23447351.0274   23447358.8474
  19805305.344   -11439583.17949  -8853482.02649  19805304.5134   19805308.9334
 97  1  8 18 16 59.9960000  0  8 22  4 29 25 18 14 15 16
  19823757.526    -9253883.77349  -7197426.42549  19823756.0494   19823760.2644
  23593536.339    -9530474.88549  -7404619.23249  23593536.6644   23593539.3654
  19578569.746    -7206948.56049  -5602414.56649  19578569.1994   19578572.6694
  22896017.698     1206072.95149    933650.36049  22896017.0474   22896023.3164
  21780549.810   -13454099.44249 -10470728.78549  21780549.1504   21780554.6744
  19027064.474    -7848307.84449  -5901487.27649  19027063.7084   19027068.5174
  23450019.061     2336230.66849   1814374.47149  23450017.8304   23450025.9904
  19780017.644   -11572471.90849  -8957031.68949  19780017.2594   19780021.0654
 97  1  8 18 17 29.9960000  0  8 22  4 29 25 18 14 15 16
  19807270.384    -9340524.60449  -7264938.76349  19807269.1734   19807273.4974
  23572873.253    -9639059.48549  -7489230.64149  23572871.2214   23572877.0724
  19562902.822    -7289278.81249  -5666568.02149  19562902.2554   19562905.7734
  22896930.917     1210871.79049    937389.64749  22896930.3054   22896936.6294
  21749734.105   -13616037.03149 -10596913.89449  21749733.3034   21749739.3824
  19013113.064    -7921623.08749  -5958616.04749  19013112.3564   19013117.1074
  23452661.629     2350116.76049   1825194.68049  23452660.1714   23452668.5604
  19754812.340   -11704927.23949  -9060243.63049  19754811.3094   19754815.4304
 97  1  8 18 17 59.9950000  0  8 22  4 29 25 18 14 15 16
  19790890.716    -9426600.46649  -7332010.86649  19790889.3524   19790893.4924
  23552292.727    -9747210.40249  -7573504.07149  23552292.0874   23552296.3314
  19547265.032    -7371455.99149  -5730602.20349  19547264.3904   19547267.9464
  22897836.247     1215628.99449    941096.48449  22897835.6184   22897840.7434
  21718916.461   -13777985.15849 -10723107.21649  21718915.8374   21718920.9514
  18999256.823    -7994438.22149  -6015355.12249  18999256.1894   18999261.1254
  23455271.908     2363833.27949   1835882.82649  23455271.8734   23455280.1034
  19729682.661   -11836984.84849  -9163145.65849  19729681.6564   19729685.8844
 97  1  8 18 18 29.9950000  0  7 22  4 29 25 18 14 16
  19774628.863    -9512057.20749  -7398600.54349  19774627.5604   19774632.1294
  23531798.555    -9854907.75349  -7657424.11549  23531797.8254   23531802.9914
  19531663.541    -7453442.47649  -5794487.79449  19531663.1614   19531666.5114
  22898744.519     1220402.16449    944815.77249  22898743.9894   22898749.1414
  21688103.351   -13939909.63549 -10849282.13449  21688102.7194   21688108.1724
  18985499.737    -8066732.40849  -6071688.27149  18985499.4024   18985503.7064
  19704634.772   -11968612.28349  -9265712.49549  19704633.5764   19704638.0024
 97  1  8 18 18 59.9950000  0  8 22 19  4 29 25 18 14 16
  19758473.121    -9596956.28049  -7464755.67249  19758471.9544   19758476.3854
  22751145.262                                    22751149.987    22751218.9314
  23511377.553    -9962219.98849  -7741044.05549  23511375.6634   23511382.0054
  19516088.507    -7535290.06049  -5858265.15149  19516088.3134   19516091.4954
  22899642.411     1225120.50149    948492.32149  22899641.6884   22899647.4344
  21657281.273   -14101880.72749 -10975493.35949  21657280.6374   21657286.2934
  18971829.902    -8138568.22349  -6127664.24449  18971829.4964   18971833.9524
  19679657.227   -12099869.75049  -9367991.04549  19679655.8584   19679660.7044
 97  1  8 18 19 29.9950000  0  8 22 19  4 29 25 18 14 16
  19742427.089    -9681278.70149  -7530461.46349  19742425.5934   19742430.3244
  22718775.634                                    22718780.855    22718780.5704
  23491034.692   -10069122.48749  -7824344.72249  23491033.9064   23491038.1184
  19500549.495    -7616948.26549  -5921894.93149  19500549.0514   19500552.5424
  22900536.279     1229817.76649    952152.47349  22900535.8794   22900541.7894
  21626453.324   -14263883.02449 -11101728.90549  21626452.6184   21626458.9094
  18958250.971    -8209926.32749  -6183267.97249  18958250.2764   18958254.5794
  19654756.130   -12230725.21749  -9469956.34949  19654754.7064   19654760.1304
 97  1  8 18 19 59.9950000  0  8 22 19  4 29 25 18 14 16
  19726476.435    -9765099.80249  -7595776.61149  19726475.3754   19726480.0384
  22686413.931                                    22686418.020    22686418.1614
  23470757.325   -10175679.47549  -7907376.16949  23470757.7434   23470761.9364
  19485032.483    -7698490.94449  -5985434.69649  19485031.9734   19485035.5204
  22901409.638     1234407.10049    955728.51549  22901409.7444   22901414.6084
  21595609.344   -14425969.30449 -11228029.89849  21595608.7714   21595614.6594
  18944752.528    -8280861.37049  -6238542.04249  18944751.8514   18944756.0384
  19629921.935   -12361229.28749  -9571647.83649  19629920.5594   19629926.1984
 97  1  8 18 20 29.9950000  0  8 22 19  4 29 25 18 14 16
  19710644.886    -9848295.29949  -7660604.27349  19710643.4854   19710648.2264
  22654075.962     -433992.43259                  22654075.060    22654081.8334
  23450575.715   -10281734.23749  -7990016.25749  23450574.4554   23450579.8574
  19469558.241    -7779808.61249  -6048799.12849  19469557.7964   19469561.1914
  22902284.945     1239006.45449    959312.35349  22902284.3284   22902289.9514
  21564777.320   -14587992.56549 -11354281.77149  21564775.8364   21564781.9554
  18931363.351    -8351221.89649  -6293368.43549  18931362.2214   18931366.8024
  19605181.416   -12491241.45549  -9672956.02649  19605180.1264   19605185.5844
 97  1  8 18 20 59.9950000  0  8 22 19  4 29 25 18 14 16
  19694925.428    -9930901.58049  -7724972.80549  19694924.1684   19694928.7804
  22621762.186     -757148.68459   -566312.93149  22621762.1704   22621767.4024
  23430489.555   -10387286.68749  -8072264.94849  23430489.3204   23430493.2524
  19454119.815    -7860938.03549  -6112016.87249  19454119.2634   19454122.7614
  22903156.667     1243587.20649    962881.71749  22903156.5154   22903161.3294
  21533953.728   -14749971.15449 -11480498.84649  21533953.3044   21533958.9464
  18918082.924    -8421010.58649  -6347749.24549  18918082.0744   18918086.6894
  19580531.415   -12620778.10249  -9773893.68449  19580530.3214   19580535.6084
 97  1  8 18 21 29.9950000  0  8 22 19  4 29 25 18 14 16
  19679320.004   -10012908.76949  -7788874.51149  19679318.5914   19679322.9224
  22589475.595     -926817.17249   -698522.10849  22589475.1524   22589480.5064
  23410503.501   -10492313.61049  -8154104.12849  23410503.8954   23410507.6834
  19438715.751    -7941886.75949  -6175093.81249  19438715.2074   19438718.5514
  22904026.434     1248156.91749    966442.46449  22904026.1234   22904031.2374
  21503144.395   -14911875.10549 -11606657.76449  21503143.4244   21503149.4574
  18904914.168    -8490212.92049  -6401673.16049  18904913.5114   18904917.9794
  19555974.334   -12749826.88849  -9874451.19149  19555973.6014   19555978.4784
 97  1  8 18 21 59.9950000  0  8 22 19  4 29 25 18 14 16
  19663811.691   -10094405.55049  -7852378.50249  19663810.5674   19663814.7004
  22557204.140    -1096405.45449   -830668.76549  22557203.7534   22557208.6504
  23390601.965   -10596896.13049  -8235597.02849  23390601.5734   23390606.0434
  19423327.614    -8022752.10949  -6238105.78849  19423327.1004   19423330.5134
  22904876.113     1252621.88249    969921.59349  22904875.9144   22904881.1394
  21472332.767   -15073791.31849 -11732826.23449  21472331.0854   21472338.0654
  18891843.397    -8558900.35149  -6455195.84549  18891842.8294   18891847.2444
  19531491.953   -12878483.19549  -9974702.86749  19531491.0204   19531496.0404
 97  1  8 18 22 29.9950000  0  8 22 19  4 29 25 18 14 16
  19648396.425   -10175413.31649  -7915501.45349  19648394.8794   19648399.4224
  22524950.577    -1265898.78549   -962741.41549  22524950.5214   22524955.3674
  23370779.130   -10701066.58049  -8316768.84849  23370779.1164   23370782.7134
  19407952.587    -8103548.54949  -6301064.06149  19407952.3044   19407955.4374
  22905704.899     1256977.30049    973315.35549  22905704.2714   22905709.8744
  21441512.952   -15235750.15849 -11859027.91549  21441512.0304   21441517.9574
  18878862.943    -8627113.21749  -6508348.74349  18878862.0564   18878866.9484
  19507078.471   -13006777.27849 -10074672.29549  19507077.4514   19507081.9804
 97  1  8 18 22 59.9950000  0  8 22 19  4 29 25 18 14 16
  19633101.445   -10255789.11949  -7978131.94249  19633100.1884   19633104.3914
  22492745.239    -1435139.65749  -1094617.31249  22492745.0174   22492749.3674
  23351055.962   -10804713.23649  -8397532.48649  23351055.3514   23351058.3394
  19392621.664    -8184113.13749  -6363841.68049  19392621.3384   19392624.7224
  22906540.450     1261367.55549    976736.26049  22906539.6734   22906545.1004
  21410709.603   -15397622.26049 -11985162.00949  21410708.5954   21410714.8664
  18865995.051    -8694734.74149  -6561040.85049  18865994.4544   18865998.9964
  19482761.904   -13134561.63649 -10174244.52749  19482761.0154   19482765.9274
 97  1  8 18 23 29.9950000  0  8 22 19  4 29 25 18 14 16
  19617920.798   -10335564.09349  -8040294.26549  19617919.7774   19617924.0604
  22460576.708    -1604187.17049  -1226342.55449  22460576.0274   22460580.7674
  23331418.980   -10907906.94549  -8477943.18949  23331418.7654   23331422.2624
  19377329.890    -8264471.97949  -6426458.97249  19377329.4644   19377332.6944
  22907374.009     1265747.64849    980149.23749  22907374.6254   22907378.4304
  21379914.408   -15559451.38049 -12111262.60449  21379913.9744   21379919.9034
  18853228.018    -8761826.01849  -6613319.77749  18853227.2224   18853231.8894
  19458532.727   -13261886.70549 -10273458.87249  19458531.6694   19458536.1134
 97  1  8 18 23 59.9950000  0  8 22 19  4 29 25 18 14 16
  19602847.938   -10414772.59349  -8102015.18549  19602846.6924   19602851.3624
  22428433.127    -1773105.31749  -1357966.97449  22428433.2694   22428436.2054
  23311858.388   -11010698.13949  -8558040.24249  23311857.1874   23311860.8784
  19362072.623    -8344649.52849  -6488935.00249  19362072.1264   19362075.5174
  22908198.130     1270078.44849    983523.80949  22908197.2254   22908203.4494
  21349118.182   -15721286.48749 -12237367.87749  21349117.5234   21349123.9944
  18840553.069    -8828433.23449  -6665221.52149  18840552.4174   18840556.9214
  19434382.494   -13388796.86849 -10372349.91049  19434380.9284   19434385.7094
 97  1  8 18 24 29.9950000  0  8 22 19  4 29 25 18 14 16
  19587874.900   -10493456.36749  -8163327.22249  19587873.5574   19587878.3914
  22396299.889    -1941967.28949  -1489547.61749  22396299.7144   22396301.4844
  23292366.134   -11113130.46449  -8637857.65249  23292366.0614   23292369.0654
  19346843.906    -8424676.99349  -6551294.08149  19346843.6294   19346846.9864
  22909007.287     1274330.63349    986837.12549  22909006.9354   22909013.2274
  21318313.915   -15883163.70849 -12363505.96449  21318312.6194   21318319.2864
  18827961.138    -8894604.39849  -6716783.48149  18827960.4744   18827965.0764
  19410304.995   -13515324.52549 -10470942.89449  19410303.9664   19410308.8054
 97  1  8 18 24 59.9950000  0  8 22 19  4 29 25 18 14 16
  19572974.122   -10571760.73149  -8224343.61249  19572972.9734   19572977.5044
  22364144.348    -2110947.36549  -1621220.31949  22364144.1254   22364146.1114
  23272917.187   -11215335.94149  -8717498.30749  23272916.0354   23272920.2504
  19331616.254    -8504698.82749  -6613648.76949  19331615.8214   19331619.4574
  22909770.696     1278342.35349    989963.06849  22909770.3264   22909775.6644
  21287473.860   -16045229.06049 -12489790.63649  21287473.2994   21287478.9034
  18815428.193    -8960465.62949  -6768103.93549  18815427.4114   18815432.1254
  19386273.247   -13641612.36449 -10569349.00549  19386272.4234   19386276.7334
 97  1  8 18 25 29.9950000  0  8 22 19  4 29 25 18 14 16
  19558184.218   -10649482.36349  -8284905.92349  19558183.0724   19558187.2764
  22332002.425    -2279855.67149  -1752837.06349  22332001.0374   22332003.1554
  23253553.391   -11317093.44849  -8796789.90649  23253553.0704   23253556.7514
  19316426.031    -8584523.97549  -6675850.20149  19316425.5174   19316429.2214
  22910522.603     1282293.85249    993042.04449  22910522.9854   22910527.4214
  21256636.961   -16207277.77949 -12616062.35749  21256636.5574   21256642.0744
  18802994.384    -9025805.95149  -6819018.48949  18802993.5184   18802998.4844
  19362322.854   -13767472.53549 -10667421.86649  19362321.6744   19362326.6624
 97  1  8 18 25 59.9950000  0  8 22 19  4 29 25 18 14 16
  19543485.707   -10726723.86549  -8345094.11749  19543484.1274   19543488.8044
  22299860.456    -2448761.92849  -1884452.24249  22299857.7404   22299861.4154
  23234262.702   -11418466.94849  -8875782.25349  23234262.3554   23234265.9084
  19301254.448    -8664251.30349  -6737975.41449  19301254.0704   19301257.3554
  22911245.697     1286093.58249    996002.80349  22911244.7654   22911252.2664
  21225784.768   -16369407.32549 -12742397.08049  21225784.2554   21225790.4754
  18790643.092    -9090712.23149  -6869594.82949  18790642.3694   18790647.0544
  19338439.902   -13892978.33149 -10765218.59449  19338438.8874   19338443.8954
 97  1  8 18 26 29.9950000  0  8 22 19  4 29 25 18 14 16
  19528892.701   -10803410.27649  -8404849.77049  19528891.2804   19528895.5254
  22267740.675    -2617550.86649  -2015976.01149  22267738.8754   22267742.6024
  23215061.047   -11519372.50149  -8954409.96849  23215060.1984   23215065.6764
  19286116.430    -8743801.99549  -6799962.98449  19286115.8404   19286119.6584
  22911954.041     1289815.51249    998902.94749  22911953.5654   22911958.4734
  21194932.420   -16531537.73549 -12868732.44249  21194931.2044   21194938.4984
  18778389.351    -9155106.11149  -6919771.88749  18778388.4724   18778393.0434
  19314641.296   -14018040.67649 -10862669.77449  19314640.1634   19314645.6134
 97  1  8 18 26 59.9950000  0  8 22 19  4 29 25 18 14 16
  19514423.756   -10879445.03349  -8464097.64149  19514422.0974   19514426.7594
  22235663.439    -2786115.68649  -2147325.16549  22235661.2924   22235666.1914
  23195962.865   -11619734.43949  -9032614.09049  23195962.6094   23195967.9514
  19271026.658    -8823099.25849  -6861753.07749  19271026.2664   19271029.9894
  22912658.113     1293515.78949   1001786.21449  22912658.4674   22912662.9164
  21164097.370   -16693576.94349 -12994996.75349  21164096.2014   21164103.5694
  18766249.220    -9218903.01949  -6969483.77549  18766248.4974   18766252.9844
  19290941.442   -14142584.45349 -10959716.87749  19290940.3404   19290945.4944
 97  1  8 18 27 29.9940000  0  8 22 19  4 29 25 18 14 16
  19500071.293   -10954867.73949  -8522868.59249  19500070.1624   19500074.1744
  22203624.457    -2954480.61149  -2278518.58149  22203623.0424   22203626.3784
  23176958.899   -11719601.68549  -9110432.73749  23176957.8064   23176963.8794
  19255976.693    -8902187.37049  -6923380.19649  19255976.0854   19255979.8384
  22913353.283     1297169.19049   1004632.96649  22913353.2964   22913358.2334
  21133271.345   -16855568.68849 -13121224.08149  21133270.1914   21133276.7684
  18754214.173    -9282147.62549  -7018765.29749  18754213.6884   18754218.2534
  19267333.104   -14266647.21049 -11056389.16049  19267332.1044   19267337.8154
 97  1  8 18 27 59.9940000  0  8 22 19  4 29 25 18 14 16
  19485822.043   -11029748.16249  -8581216.98949  19485820.9074   19485825.3174
  22171610.930    -3122711.95349  -2409607.90249  22171609.9744   22171614.0674
  23158035.197   -11819047.11149  -9187922.70149  23158035.0564   23158040.8864
  19240954.230    -8981131.04849  -6984894.76649  19240953.7854   19240957.4764
  22914030.772     1300728.94649   1007406.75549  22914030.6174   22914036.7094
  21102439.424   -17017591.63449 -13247475.73049  21102438.6664   21102445.2444
  18742273.487    -9344896.68949  -7067660.68949  18742272.8054   18742277.6024
  19243806.259   -14390281.82649 -11152727.83649  19243805.4114   19243810.7484
 97  1  8 18 28 29.9940000  0  8 22 19  4 29 25 18 14 16
  19471675.936   -11104086.38749  -8639142.89949  19471674.3004   19471678.9834
  22139617.885    -3290835.33849  -2540613.08949  22139615.9134   22139621.3594
  23139183.910   -11918112.08749  -9265116.22849  23139184.0464   23139189.9334
  19225955.890    -9059948.01149  -7046310.60949  19225955.3184   19225958.6524
  22914683.708     1304158.56949   1010079.11849  22914684.2244   22914690.2364
  21071598.958   -17179659.57249 -13373762.43149  21071598.3264   21071604.0954
  18730425.110    -9407160.50349  -7116177.96949  18730424.5574   18730428.9514
  19220357.304   -14513507.41149 -11248747.78249  19220356.4244   19220361.4474
 97  1  8 18 28 59.9940000  0  8 22 19  4 29 25 18 14 16
  19457620.638   -11177947.12749  -8696696.74049  19457619.3104   19457624.0554
  22107627.075    -3458946.72349  -2671608.93249  22107625.6294   22107630.7334
  23120393.835   -12016855.44449  -9342059.11449  23120394.1344   23120400.1734
  19210968.764    -9138705.86549  -7107680.38349  19210968.1534   19210971.7854
  22915301.280     1307402.69349   1012606.94949  22915300.7174   22915307.1154
  21040735.998   -17341845.38949 -13500140.98149  21040735.3224   21040741.7244
  18718657.213    -9469001.20449  -7164365.54449  18718656.6544   18718661.2174
  19196975.611   -14636379.44549 -11344492.23449  19196974.6214   19196979.5784
 97  1  8 18 29 29.9940000  0  8 22 19  4 29 25 18 14 16
  19443669.207   -11251262.11049  -8753825.30949  19443667.5394   19443672.4284
  22075654.074    -3626965.48249  -2802532.58449  22075653.1834   22075657.7824
  23101683.309   -12115181.11749  -9418676.55449  23101682.8884   23101689.3894
  19196008.304    -9217323.43249  -7168940.83849  19196007.7604   19196011.3514
  22915903.127     1310564.77849   1015070.82949  22915902.7314   22915908.6064
  21009864.782   -17504075.05849 -13626553.70949  21009863.8944   21009870.7804
  18706984.901    -9530339.71949  -7212161.81049  18706984.0844   18706988.9024
  19173678.538   -14758806.40249 -11439889.87249  19173677.5994   19173682.2264
 97  1  8 18 29 59.9940000  0  8 22 19  4 29 25 18 14 16
  19429825.079   -11324013.38649  -8810514.62649  19429823.8434   19429828.3244
  22043700.420    -3794882.68149  -2933377.09949  22043699.1454   22043704.6874
  23083054.147   -12213079.38949  -9494960.94449  23083054.2344   23083059.4694
  19181079.236    -9295776.19449  -7230072.87349  19181078.8154   19181082.3634
  22916490.402     1313650.43849   1017475.17749  22916489.6344   22916495.8424
  20978992.866   -17666308.10449 -13752969.06749  20978992.1964   20978998.5494
  18695408.958    -9591171.57249  -7259563.27549  18695408.1084   18695412.7514
  19150467.210   -14880782.66649 -11534936.31649  19150466.1084   19150470.8004
 97  1  8 18 30 29.9940000  0  8 22 19  4 29 25 18 14 16
  19416088.006   -11396202.36549  -8866765.79149  19416086.3934   19416091.2644
  22011765.964    -3962699.23049  -3064143.18849  22011764.8924   22011769.9224
  23064507.631   -12310543.55649  -9570907.06549  23064508.0834   23064513.7714
  19166185.129    -9374045.16749  -7291061.70349  19166184.4974   19166188.1104
  22917065.263     1316670.66049   1019828.52749  22917065.2664   22917070.9454
  20948124.998   -17828520.26849 -13879368.14849  20948124.2754   20948129.9644
  18683928.549    -9651501.37349  -7306573.52549  18683927.5864   18683932.3204
  19127340.527   -15002314.00149 -11629636.06849  19127339.2494   19127344.0344
 97  1  8 18 30 59.9940000  0  8 22 19  4 29 25 18 14 16
  19402456.726   -11467835.35649  -8922583.71749  19402455.6994   19402460.1594
  21979855.956    -4130387.04649  -3194808.95949  21979854.8934   21979859.4914
  23046050.036   -12407539.95349  -9646488.71249  23046050.7014   23046055.3864
  19151329.473    -9452112.18549  -7351893.16849  19151329.1814   19151332.7744
  22917634.052     1319659.47249   1022157.41149  22917633.7624   22917639.6394
  20917268.477   -17990673.18249 -14005721.07349  20917267.5674   20917273.4794
  18672546.444    -9711314.80749  -7353181.41549  18672545.8164   18672550.5574
  19104299.959   -15123392.77249 -11723983.16849  19104298.6394   19104303.6064
 97  1  8 18 31 29.9940000  0  8 22 19  4 29 25 18 14 16
  19388943.689   -11538846.81849  -8977917.33349  19388942.2254   19388947.3044
  21947985.829    -4297865.43249  -3325311.55849  21947984.5264   21947990.2254
  23027691.795   -12504014.17149  -9721663.46349  23027691.7414   23027697.3034
  19136522.892    -9529921.71349  -7412523.98649  19136522.5514   19136526.0594
  22918205.159     1322660.55949   1024495.83349  22918205.1374   22918211.2704
  20886439.188   -18152682.21249 -14131961.87349  20886438.2304   20886444.6494
  18661273.410    -9770555.03149  -7399342.64149  18661272.6604   18661277.2544
  19081356.068   -15243963.57949 -11817934.45349  19081354.7734   19081359.5494
 97  1  8 18 31 59.9940000  0  8 22 19  4 29 25 18 14 16
  19375523.980   -11609367.80549  -9032868.76149  19375522.4954   19375527.2984
  21916131.737    -4465259.46549  -3455748.42749  21916131.0384   21916135.3054
  23009407.307   -12600100.55349  -9796535.99549  23009407.3694   23009412.1054
  19121741.157    -9607600.64049  -7473053.03349  19121740.8944   19121744.2284
  22918752.311     1325535.96049   1026736.33249  22918751.6284   22918757.9484
  20855612.863   -18314675.89249 -14258190.71849  20855612.7304   20855618.3644
  18650086.208    -9829344.07049  -7445152.29549  18650085.6644   18650089.9704
  19058487.010   -15364141.23049 -11911579.38049  19058485.7054   19058490.7294
 97  1  8 18 32 29.9940000  0  8 22 19  4 29 25 18 14 16
  19362208.047   -11679343.58149  -9087395.34449  19362206.7934   19362211.4584
  21884306.493    -4632501.72149  -3586067.03649  21884304.8614   21884310.5084
  22991208.729   -12695734.60349  -9871056.06249  22991208.6774   22991213.2254
  19106992.958    -9685102.87549  -7533444.40649  19106992.4844   19106996.0904
  22919285.997     1328340.08549   1028921.30649  22919285.5894   22919292.4644
  20824796.429   -18476618.09349 -14384379.44849  20824795.7444   20824801.7124
  18638997.612    -9887615.32949  -7490558.49149  18638996.8814   18639001.7964
  19035708.829   -15483841.38449 -12004852.23349  19035707.8644   19035712.8064
 97  1  8 18 32 59.9940000  0  8 22 19  4 29 25 18 14 16
  19348984.044   -11748836.30849  -9141545.52649  19348982.6784   19348987.5574
  21852498.206    -4799654.78949  -3716316.13949  21852498.1704   21852502.7834
  22973081.123   -12790996.22349  -9945285.91249  22973080.7974   22973086.2324
  19092261.033    -9762519.67549  -7593769.19949  19092260.4434   19092264.3624
  22919790.050     1330988.60349   1030985.01349  22919789.4504   22919796.1834
  20793971.307   -18638605.40249 -14510603.31949  20793970.7544   20793976.4424
  18627993.637    -9945441.60249  -7535617.94149  18627992.6994   18627997.7124
  19013010.149   -15603123.91349 -12097799.66749  19013009.3484   19013014.4134
 97  1  8 18 33 29.9940000  0  8 22 19  4 29 25 18 14 16
  19335879.878   -11817699.09849  -9195204.84649  19335878.3604   19335882.7884
  21820732.127    -4966587.05049  -3846393.17849  21820730.9024   21820736.0364
  22955048.368   -12885759.79349 -10019127.67949  22955048.4314   22955053.2754
  19077573.451    -9839703.35849  -7653912.34349  19077572.7414   19077576.5114
  22920288.244     1333606.18149   1033024.60549  22920287.7354   22920293.8064
  20763158.204   -18800529.47049 -14636777.91649  20763157.8754   20763163.0754
  18617100.113   -10002687.19549  -7580224.91849  18617099.2904   18617104.0484
  18990417.426   -15721849.99149 -12190313.50349  18990416.4784   18990421.3264
 97  1  8 18 33 59.9940000  0  7 22 19  4 29 18 14 16
  19322873.225   -11886049.50049  -9248464.91249  19322871.8644   19322876.3234
  21788984.360    -5133422.36849  -3976394.69249  21788981.8924   21788988.0664
  22937088.192   -12980142.08449 -10092672.35249  22937088.4044   22937092.9564
  19062911.467    -9916752.53849  -7713950.68349  19062910.6124   19062914.2654
  20732333.537   -18962514.68349 -14763000.16949  20732332.7654   20732337.8314
  18606296.963   -10059458.07049  -7624461.98849  18606295.8494   18606300.9964
  18967908.435   -15840135.72449 -12282484.21649  18967907.2214   18967912.4594
 97  1  8 18 34 29.9940000  0  7 22 19  4 29 18 14 16
  19309972.957   -11953840.80049  -9301289.31349  19309971.8254   19309976.4084
  21757259.791    -5300135.24849  -4106300.80049  21757257.9444   21757263.1754
  22919206.535   -13074109.82749 -10165894.00849  22919206.0244   22919211.8064
  19048281.741    -9993632.37649  -7773857.06049  19048281.3394   19048284.7044
  20701503.898   -19124525.53049 -14889242.40249  20701503.0084   20701508.6364
  18595587.729   -10115735.33649  -7668314.42449  18595586.9334   18595591.6934
  18945487.845   -15957956.69449 -12374292.78149  18945486.7024   18945491.8224
 97  1  8 18 34 59.9940000  0  7 22 19  4 29 18 14 16
  19297170.483   -12021118.62049  -9353713.59549  19297169.7274   19297174.1794
  21725550.262    -5466769.73649  -4236145.86549  21725549.7354   21725554.8964
  22901395.804   -13167705.42849 -10238825.65249  22901395.8644   22901400.5274
  19033677.910   -10070376.32349  -7833657.54849  19033677.4894   19033681.3304
  20670663.205   -19286594.32249 -15015529.76849  20670662.3984   20670668.3484
  18584963.634   -10171565.47449  -7711818.44949  18584963.0084   18584967.9524
  18923143.659   -16075375.88749 -12465788.27249  18923142.6014   18923147.9374
 97  1  8 18 35 29.9940000  0  7 22 19  4 29 18 14 16
  19284469.444   -12087863.02049  -9405722.22849  19284468.1514   19284472.7664
  21693859.638    -5633304.79849  -4365913.38059  21693858.7344   21693864.3914
  22883660.841   -13260902.55849 -10311446.82749  22883659.7824   22883666.4234
  19019107.081   -10146946.48649  -7893322.61449  19019106.1974   19019110.1894
  20639820.099   -19448676.46849 -15141827.54749  20639819.2104   20639825.4214
  18574430.261   -10226918.84549  -7754950.96849  18574429.5304   18574434.5884
  18900880.383   -16192369.85549 -12556952.41849  18900879.2944   18900884.5194
 97  1  8 18 35 59.9940000  0  7 22 19  4 29 18 14 16
  19271871.153   -12154067.52149  -9457310.16349  19271869.7324   19271874.5194
  21662189.859    -5799732.30249  -4495597.08849  21662193.0664   21662196.3014
  22866003.405   -13353690.76249 -10383749.34949  22866002.1864   22866008.6214
  19004568.148   -10223348.86349  -7952856.94549  19004567.5224   19004571.1584
  20608978.014   -19610752.92749 -15268120.89949  20608977.1924   20608983.1854
  18563987.666   -10281795.17549  -7797711.76749  18563986.9194   18563991.8054
  18878702.337   -16308916.09249 -12647767.68449  18878701.0674   18878706.3154
 97  1  8 18 36 29.9930000  0  7 22 19  4 29 18 14 16
  19259371.461   -12219753.54349  -9508494.08449  19259370.2754   19259374.9184
  21630540.190    -5966055.95849  -4625199.86549  21630540.5284   21630543.6974
  22848423.123   -13446074.87249 -10455737.00549  22848421.4274   22848427.2734
  18990057.746   -10299601.57949  -8012274.65449  18990057.0274   18990060.8454
  20578133.694   -19772841.38249 -15394423.58449  20578132.9854   20578138.5164
  18553631.442   -10336217.45749  -7840118.76249  18553630.7394   18553635.5384
  18856608.384   -16425020.24749 -12738238.46949  18856607.2024   18856612.0714
 97  1  8 18 36 59.9930000  0  7 22 19  4 29 18 14 16
  19246967.801   -12284935.23249  -9559285.01349  19246966.6924   19246971.1234
  21598910.486    -6132272.12749  -4754718.90549  21598908.6174   21598911.4794
  22830920.745   -13538048.39149 -10527404.71649  22830920.3834   22830924.3624
  18975578.042   -10375692.99149  -8071566.67349  18975577.6214   18975581.2134
  20547287.171   -19934941.29349 -15520735.22049  20547286.0204   20547291.1514
  18543365.286   -10390166.48049  -7882156.98249  18543364.4364   18543369.3834
  18834598.391   -16540683.39649 -12828365.61449  18834597.4304   18834601.9844
 97  1  8 18 37 29.9930000  0  7 22 19  4 29 18 14 16
  19234647.775   -12349677.92049  -9609733.85449  19234646.7814   19234651.2854
  21567288.950    -6298444.22149  -4884203.63849  21567287.8874   21567292.1624
  22813484.410   -13629675.51949 -10598802.50649  22813482.0254   22813487.2124
  18961115.315   -10451695.27649  -8130789.23849  18961114.7934   18961118.3684
  20516426.776   -20097114.15749 -15647103.69149  20516426.2544   20516431.2184
  18533178.070   -10443700.59649  -7923871.89149  18533177.3684   18533182.2524
  18812663.976   -16655949.85749 -12918183.64149  18812663.1144   18812667.5344
 97  1  8 18 37 59.9930000  0  7 22 19  4 29 18 14 16
  19222428.386   -12413891.22049  -9659770.19149  19222426.8214   19222431.7994
  21535691.647    -6464488.85749  -5013589.03449  21535691.4714   21535694.1084
  22796131.052   -13720865.94749 -10669860.02149  22796129.8884   22796135.2134
  18946685.631   -10527523.89049  -8189876.47949  18946684.8234   18946688.7504
  20485568.391   -20259276.38049 -15773463.87349  20485567.2674   20485573.0464
  18523085.639   -10496736.13849  -7965198.31649  18523084.7054   18523090.0154
  18790822.144   -16770729.94449 -13007622.68049  18790821.2854   18790825.4974
 97  1  8 18 38 29.9930000  0  7 22 19  4 29 18 14 16
  19210309.144   -12477578.36749  -9709396.53149  19210307.9214   19210312.7304
  21504116.238    -6630418.35149  -5142884.69449  21504115.0514   21504119.6014
  22778860.665   -13811620.46549 -10740577.83449  22778860.0134   22778864.8554
  18932289.243   -10603177.23249  -8248827.14349  18932288.9994   18932292.5704
  20454713.687   -20421419.32349 -15899809.02549  20454713.1374   20454718.1064
  18513089.781   -10549264.81249  -8006129.77249  18513088.9054   18513094.0224
  18769069.987   -16885038.91649 -13096694.61149  18769069.2444   18769073.6054
 97  1  8 18 38 59.9930000  0  7 22 19  4 29 18 14 16
  19198285.390   -12540763.76049  -9758631.90849  19198284.0554   19198288.9164
  21472555.404    -6796271.01549  -5272120.49649  21472553.5014   21472558.9484
  22761664.497   -13901985.15049 -10810991.91149  22761664.9974   22761668.8144
  18917917.988   -10678699.04549  -8307675.32549  18917917.7884   18917921.6214
  20423857.085   -20583572.02449 -16026161.78749  20423856.2494   20423861.7444
  18503182.618   -10601327.49849  -8046698.12749  18503182.0844   18503186.9994
  18747399.814   -16998916.65049 -13185430.52249  18747399.0764   18747403.6124
 97  1  8 18 39 29.9930000  0  7 22 19  4 29 18 14 16
  19186380.119   -12603326.45249  -9807382.05249  19186378.7564   19186383.2314
  21441026.916    -6961953.00449  -5401223.29849  21441025.5574   21441030.6014
  22744560.322   -13991867.44449 -10881030.06349  22744558.2104   22744563.2434
  18903587.866   -10754004.83249  -8366355.16649  18903587.5594   18903590.9684
  20393017.414   -20745636.05149 -16152445.44449  20393016.9884   20393021.6364
  18493377.950   -10652851.63149  -8086846.82449  18493377.3714   18493382.1394
  18725831.842   -17112257.06449 -13273747.73649  18725830.4774   18725835.7364
 97  1  8 18 39 59.9930000  0  7 22 19  4 29 18 14 16
  19174596.514   -12665249.93249  -9855634.11649  19174595.2944   19174599.5724
  21409534.144    -7127446.98049  -5530179.58649  21409532.4194   21409537.9404
  22727552.017   -14081245.81249 -10950675.60749  22727552.0934   22727554.3304
  18889305.874   -10829057.53449  -8424837.80349  18889305.6264   18889309.1464
  20362200.033   -20907582.82549 -16278637.74049  20362199.4934   20362203.4934
  18483676.467   -10703833.72849  -8126573.15349  18483675.9674   18483681.1154
  18704366.385   -17225058.91849 -13361645.29549  18704365.2174   18704370.6754
 97  1  8 18 40 29.9930000  0  7 22 19  4 29 18 14 16
  19162929.498   -12726560.87149  -9903408.87349  19162928.3614   19162932.8314
  21378075.303    -7292763.88949  -5658997.90449  21378073.6084   21378079.2134
  22710635.157   -14170144.20649 -11019947.09849  22710633.3064   22710638.2594
  18875067.704   -10903880.36449  -8483141.31649  18875067.4334   18875070.7644
  20331400.421   -21069436.17949 -16404757.24049  20331400.2544   20331404.5084
  18474073.743   -10754296.76249  -8165895.01649  18474073.0754   18474078.2454
  18682999.218   -17337343.93849 -13449140.12849  18682998.1404   18683003.5324
 97  1  8 18 40 59.9930000  0  7 22 19  4 29 18 14 16
  19151371.193   -12787300.04849  -9950738.10249  19151370.0724   19151374.3164
  21346645.693    -7457926.31049  -5787695.82149  21346643.8164   21346649.4604
  22693799.656   -14258613.84249 -11088884.47849  22693798.4004   22693804.3234
  18860866.605   -10978507.96149  -8541292.69949  18860866.1444   18860869.5784
  20300609.864   -21231242.00349 -16530839.69449  20300609.0814   20300613.4474
  18464560.829   -10804287.73549  -8204849.04149  18464560.3614   18464565.3414
  18661724.921   -17449140.89149 -13536254.65049  18661723.8474   18661729.4294
 97  1  8 18 41 29.9930000  0  7 22 19  4 29 18 14 16
  19139897.790   -12847593.16649  -9997719.75449  19139896.4154   19139900.9924
  21315224.678    -7623043.77049  -5916358.72849  21315223.1384   21315227.9364
  22677023.123   -14346774.52649 -11157581.15449  22677024.0234   22677027.3544
  18846683.055   -11053042.96649  -8599371.93049  18846682.3334   18846686.1614
  20269808.945   -21393102.61649 -16656964.84849  20269808.2544   20269811.9554
  18455119.892   -10853900.39849  -8243508.27749  18455119.1774   18455124.1344
  18640521.551   -17560565.15949 -13623078.76449  18640520.3364   18640525.9774
 97  1  8 18 41 59.9930000  0  7 22 19  4 29 18 14 16
  19128537.291   -12907292.76849 -10044238.92549  19128535.7204   19128540.5154
  21283846.410    -7787937.15949  -6044847.02649  21283844.5814   21283849.8494
  22660336.906   -14434463.91549 -11225910.59849  22660337.7254   22660340.8464
  18832552.284   -11127300.59149  -8657235.03249  18832551.5864   18832555.0524
  20239029.792   -21554848.46849 -16783000.58049  20239028.8324   20239032.8504
  18445790.612   -10902926.23249  -8281710.24849  18445790.0554   18445794.6134
  18619421.022   -17671449.25249 -13709481.96349  18619420.1044   18619425.1194
 97  1  8 18 42 29.9930000  0  7 22 19  4 29 18 14 16
  19117281.555   -12966441.77849 -10090329.06549  19117280.4024   19117284.9764
  21252501.470    -7952654.27449  -6173197.97149  21252500.0804   21252505.2814
  22643731.397   -14521729.74349 -11293909.94649  22643732.7304   22643737.2234
  18818463.505   -11201337.53149  -8714926.16649  18818462.7794   18818466.4704
  20208259.996   -21716544.80249 -16908997.72349  20208259.0634   20208262.9974
  18436566.078   -10951401.79449  -8319483.43549  18436565.6514   18436570.0834
  18598416.561   -17781828.65349 -13795491.89749  18598415.4154   18598420.2044
 97  1  8 18 42 59.9930000  0  7 22 19  4 29 18 14 16
  19106122.606   -13025082.74549 -10136023.32749  19106121.4974   19106126.1464
  21221177.994    -8117259.84549  -6301462.02149  21221177.0754   21221181.4954
  22627198.508   -14608613.35049 -11361611.50049  22627199.3264   22627203.4034
  18804408.469   -11275196.83549  -8772478.88049  18804407.9094   18804411.5824
  20177491.035   -21878237.01049 -17034991.65249  20177489.9544   20177493.8074
  18427437.351   -10999373.71849  -8356864.17749  18427436.8814   18427441.2074
  18577499.818   -17891746.99949 -13881142.56149  18577498.9854   18577503.7154
 97  1  8 18 43 29.9930000  0  7 22 19  4 29 18 14 16
  19095060.473   -13083214.78949 -10181321.01849  19095059.0364   19095063.9824
  21189874.506    -8281760.63949  -6429644.41649  21189873.7064   21189878.9064
  22610742.635   -14695093.07549 -11428998.31749  22610743.3884   22610748.4164
  18790389.187   -11348868.78049  -8829885.59649  18790388.5954   18790392.2574
  20146722.471   -22039926.96049 -17160983.82449  20146721.5654   20146725.3414
  18418406.221   -11046833.07149  -8393845.51049  18418405.7534   18418410.2314
  18556671.491   -18001200.56049 -13966431.05249  18556670.6944   18556675.1014
 97  1  8 18 43 59.9930000  0  7 22 19  4 29 18 14 16
  19084115.581   -13140730.32249 -10226138.31149  19084114.3034   19084118.9184
  21158609.528    -8446059.30249  -6557669.31149  21158609.1904   21158613.2464
  22594387.178   -14781042.88749 -11495972.24349  22594387.5814   22594393.6274
  18776426.170   -11422245.08749  -8887061.95249  18776425.4914   18776428.8654
  20115972.511   -22201519.38949 -17286899.99849  20115971.7034   20115974.3834
  18409489.304   -11093692.21649  -8430359.14649  18409488.9664   18409493.2604
  18535955.202   -18110065.78049 -14051261.09649  18535954.2564   18535958.5594
 97  1  8 18 44 29.9930000  0  7 22 19  4 29 18 14 16
  19073274.559   -13197699.96849 -10270530.25149  19073273.4184   19073277.7894
  21127365.697    -8610246.76449  -6685607.56649  21127365.0894   21127369.2724
  22578117.324   -14866543.86249 -11562596.39049  22578116.6154   22578123.2654
  18762501.823   -11495417.97449  -8944079.79849  18762501.0914   18762504.8334
  20085224.964   -22363098.82749 -17412806.05249  20085223.8794   20085227.3524
  18400664.469   -11140067.38249  -8466495.65949  18400664.0654   18400668.2634
  18515334.461   -18218428.63849 -14135699.69249  18515333.3614   18515337.9454
 97  1  8 18 44 59.9930000  0  7 22 19  4 29 18 14 16
  19062544.252   -13254087.89149 -10314468.89449  19062543.0064   19062547.5404
  21096153.846    -8774266.16049  -6813414.85449  21096153.3674   21096157.3594
  22561938.150   -14951566.90949 -11628848.16949  22561940.0544   22561945.0024
  18748623.935   -11568346.80849  -9000907.47749  18748623.3684   18748627.1714
  20054490.694   -22524608.32449 -17538657.59849  20054489.4564   20054492.9884
  18391936.446   -11185933.69749  -8502235.66349  18391935.9384   18391940.3784
  18494816.410   -18326251.51649 -14219717.52549  18494815.1764   18494820.4114
 97  1  8 18 45 29.9920000  0  7 22 19  4 29 18 14 16
  19051922.941   -13309903.23049 -10357961.36849  19051921.3894   19051926.2294
  21064980.522    -8938082.78949  -6941064.16949  21064979.8984   21064983.8714
  22545848.529   -15036119.11949 -11694733.03349  22545848.2144   22545856.0694
  18734792.924   -11641028.93649  -9057542.91649  18734792.1734   18734795.9854
  20023773.396   -22686028.08949 -17664439.22449  20023772.5414   20023775.1734
  18383304.914   -11231293.04849  -8537580.63549  18383304.3434   18383308.7164
  18474400.441   -18433537.92249 -14303317.32849  18474399.0704   18474404.6134
 97  1  8 18 45 59.9920000  0  7 22 19  4 29 18 14 16
  19041395.985   -13365222.41449 -10401067.22949  19041394.5074   19041399.0694
  21033828.826    -9101786.02149  -7068625.11649  21033828.1344   21033832.9934
  22529828.894   -15120303.07949 -11760330.93049  22529828.2944   22529834.8404
  18720990.173   -11713562.63949  -9114062.70549  18720989.4594   18720993.5004
  19993056.844   -22847444.25849 -17790218.05249  19993055.6864   19993058.9404
  18374752.015   -11276238.93549  -8572603.42349  18374751.2944   18374755.9234
  18454068.819   -18540381.03249 -14386571.70649  18454067.7454   18454072.8264
 97  1  8 18 46 29.9920000  0  7 22 19  4 29 18 14 16
  19030972.832   -13419996.47049 -10443748.32849  19030971.8024   19030976.1034
  21002708.309    -9265324.98649  -7196058.06749  21002707.4584   21002712.2824
  22513885.653   -15204085.94449 -11825616.32449  22513885.4514   22513892.9084
  18707221.372   -11785918.02149  -9170443.54549  18707221.0104   18707224.5534
  19962349.918   -23008809.35149 -17915957.07349  19962348.7244   19962351.9774
  18366285.870   -11320729.07949  -8607271.09349  18366285.2154   18366289.8774
  18433828.322   -18646745.80249 -14469453.36549  18433827.1974   18433832.6504
 97  1  8 18 46 59.9920000  0  7 22 19  4 29 18 14 16
  19020651.370   -13474236.41149 -10486013.22749  19020650.0084   19020654.3714
  20971619.085    -9428700.18549  -7323363.41049  20971618.6514   20971623.6734
  22498020.084   -15287460.19149 -11890583.30849  22498020.8844   22498026.5514
  18693486.427   -11858095.95249  -9226686.10949  18693486.0794   18693489.7644
  19931655.690   -23170108.03449 -18041644.35249  19931654.9224   19931657.2404
  18357909.051   -11364749.60849  -8641572.83049  18357908.2054   18357913.1694
  18413681.164   -18752619.87549 -14551952.65649  18413680.1254   18413685.4464
 97  1  8 18 47 29.9920000  0  7 22 19  4 29 18 14 16
  19010449.200   -13527849.36349 -10527789.57249  19010447.7714   19010452.3054
  20940575.257    -9591836.48549  -7450482.60349  20940575.1414   20940579.0304
  22482251.454   -15370325.75449 -11955153.89849  22482250.8424   22482257.9794
  18679803.069   -11930002.45049  -9282717.16049  18679802.6824   18679806.2884
  19900990.679   -23331253.26949 -18167212.05049  19900989.3924   19900992.6524
  18349642.330   -11408191.21949  -8675423.46249  18349641.6074   18349646.2534
  18393647.089   -18857900.12849 -14633989.23349  18393646.0744   18393651.4594
 97  1  8 18 47 59.9920000  0  7 22 19  4 29 18 14 16
  19000362.908   -13580853.40749 -10569091.43849  19000361.4934   19000366.2214
  20909568.200    -9754780.13249  -7577451.69149  20909567.4884   20909572.3014
  22466576.617   -15452697.14749 -12019339.44349  22466576.2534   22466582.2814
  18666165.452   -12001668.66749  -9338560.97849  18666165.2134   18666168.7664
  19870348.765   -23492277.26949 -18292685.28449  19870347.2454   19870350.9994
  18341481.082   -11451078.81949  -8708842.39149  18341480.2974   18341484.9904
  18373723.822   -18962597.76749 -14715571.82649  18373722.6764   18373728.0174
 97  1  8 18 48 29.9920000  0  7 22 19  4 29 18 14 16
  18990376.613   -13633331.62849 -10609983.57649  18990375.0174   18990380.0604
  20878584.344    -9917601.83349  -7704325.74849  20878583.2184   20878588.2494
  22450983.756   -15534639.13249 -12083190.36949  22450982.2184   22450989.0004
  18652561.806   -12073156.65949  -9394265.92149  18652561.3804   18652565.1714
  19839717.836   -23653243.24249 -18418113.30049  19839717.1804   19839720.1464
  18333412.362   -11493480.47849  -8741882.66749  18333412.0134   18333416.5464
  18353898.759   -19066779.33249 -14796752.27749  18353897.7014   18353902.5984
 97  1  8 18 48 59.9920000  0  7 22 19  4 29 18 14 16
  18980506.364   -13685200.16049 -10650400.62949  18980504.8904   18980509.9144
  20847644.884   -10080190.14649  -7831017.95349  20847644.3664   20847648.8804
  22435490.667   -15616054.99849 -12146631.32649  22435489.3644   22435496.1674
  18639014.340   -12144349.09249  -9449740.56249  18639014.0594   18639017.4644
  19809119.658   -23814037.36149 -18543407.40249  19809118.8324   19809121.8234
  18325455.665   -11535293.47749  -8774464.24449  18325455.0414   18325459.4764
  18334191.973   -19170339.31949 -14877448.38249  18334190.8744   18334195.9284
 97  1  8 18 49 29.9920000  0  7 22 19  4 29 18 14 16
  18970742.212   -13736511.07449 -10690383.17549  18970740.8894   18970745.6384
  20816739.885   -10242597.17249  -7957568.88949  20816739.0314   20816743.6174
  22420086.533   -15697003.06849 -12209707.78749  22420086.5974   22420091.8284
  18625516.437   -12215281.09849  -9505012.27749  18625516.0544   18625519.7484
  19778542.815   -23974719.00349 -18668613.86949  19778541.1414   19778544.7974
  18317599.969   -11576575.47549  -8806632.05549  18317599.1904   18317603.9344
  18314591.781   -19273338.84149 -14957707.76649  18314590.5034   18314595.5004
 97  1  8 18 49 59.9920000  0  7 22 19  4 29 18 14 16
  18961085.755   -13787255.91449 -10729924.62149  18961084.6044   18961089.3204
  20785871.737   -10404810.35449  -8083968.77149  20785870.7814   20785875.9224
  22404771.926   -15777482.46149 -12272419.04249  22404771.1604   22404777.5854
  18612072.121   -12285931.46949  -9560064.53249  18612071.5014   18612075.6174
  19747989.155   -24135279.34449 -18793725.79549  19747988.1224   19747991.2974
  18309846.428   -11617320.63449  -8838381.54849  18309845.6884   18309850.5334
  18295099.342   -19375772.13049 -15037525.92849  18295098.2674   18295102.9454
 97  1  8 18 50 29.9920000  0  7 22 19  4 29 18 14 16
  18951536.554   -13837437.71849 -10769027.33949  18951534.9854   18951539.7654
  20755044.992   -10566805.95749  -8210199.09949  20755044.0524   20755048.9934
  22389544.012   -15857505.80249 -12334774.91849  22389542.6324   22389548.0094
  18598686.248   -12356274.63749  -9614877.40849  18598685.6784   18598689.7954
  19717458.944   -24295716.43749 -18918741.69849  19717458.0684   19717461.4184
  18302197.558   -11657515.78349  -8869702.46649  18302196.8734   18302201.6454
  18275715.330   -19477635.65949 -15116900.11349  18275714.1364   18275719.0794
 97  1  8 18 50 59.9920000  0  7 22 19  4 29 18 14 16
  18942087.146   -13887094.80849 -10807721.19449  18942085.8574   18942090.9154
  20724253.192   -10728618.03849  -8336286.43549  20724252.6084   20724257.1194
  22374394.527   -15937115.32649 -12396808.36149  22374393.3704   22374396.9404
  18585352.487   -12426344.15549  -9669477.05549  18585352.1384   18585355.6484
  19686944.899   -24456068.50549 -19043691.35049  19686944.2024   19686947.5094
  18294646.319   -11697197.83149  -8900623.57149  18294645.7304   18294650.3564
  18256432.973   -19578964.88549 -15195857.96649  18256432.1154   18256437.0894
 97  1  8 18 51 29.9920000  0  7 22 19  4 29 18 14 16
  18932745.217   -13936187.08649 -10845974.92949  18932743.8744   18932748.9854
  20693498.391   -10890235.97849  -8462222.48549  20693498.0994   20693501.9694
  22359327.842   -16016290.74649 -12458503.49349  22359326.1614   22359332.0384
  18572074.659   -12496119.97849  -9723847.84149  18572074.3304   18572078.2984
  19656448.394   -24616328.57749 -19168569.31649  19656447.9044   19656451.2404
  18287197.613   -11736341.18249  -8931124.90749  18287196.9374   18287202.0064
  18237256.140   -19679739.98849 -15274384.03149  18237255.2014   18237260.2814
 97  1  8 18 51 59.9920000  0  7 22 19  4 29 18 14 16
  18923505.253   -13984744.04549 -10883811.53249  18923504.0314   18923508.7734
  20662776.440   -11051681.52149  -8588024.21449  20662775.9984   20662780.3954
  22344338.044   -16095062.27449 -12519883.95149  22344337.7374   22344341.2674
  18558844.976   -12565642.73949  -9778021.42849  18558844.6094   18558848.1564
  19625963.664   -24776527.01049 -19293399.24949  19625962.7894   19625966.8094
  18279847.110   -11774968.20949  -8961223.91249  18279846.3864   18279851.3824
  18218180.274   -19779984.83949 -15352496.91349  18218179.5574   18218184.5324
 97  1  8 18 52 29.9920000  0  7 22 19  4 29 18 14 16
  18914377.904   -14032708.96849 -10921186.80949  18914376.6404   18914381.0494
  20632099.152   -11212891.91249  -8713642.71549  20632098.4454   20632103.2634
  22329439.722   -16173353.04449 -12580889.78049  22329439.3714   22329443.4414
  18545670.736   -12634874.26549  -9831968.08649  18545670.5594   18545674.0994
  19595503.670   -24936595.58049 -19418127.99049  19595502.8564   19595506.8264
  18272603.701   -11813032.41849  -8990884.36549  18272603.0104   18272607.9854
  18199215.829   -19879644.13549 -15430153.52049  18199214.9264   18199220.2104
 97  1  8 18 52 59.9920000  0  7 22 19  4 29 18 14 16
  18905357.487   -14080111.50149 -10958123.85549  18905356.2144   18905360.7474
  20601454.569   -11373930.47449  -8839127.32949  20601454.0204   20601458.3524
  22314627.041   -16251194.06249 -12641545.13349  22314626.9854   22314630.8554
  18532539.670   -12703878.54749  -9885737.67649  18532539.2904   18532543.0254
  19565063.229   -25096561.32849 -19542776.61249  19565062.4094   19565066.7294
  18265456.404   -11850591.81649  -9020151.45949  18265456.0784   18265460.8574
  18180353.654   -19978765.66649 -15507391.09049  18180352.8244   18180358.2634
 97  1  8 18 53 29.9920000  0  7 22 19  4 29 18 14 16
  18896447.105   -14126936.11249 -10994610.57449  18896445.6034   18896450.5264
  20570845.233   -11534783.70549  -8964467.51649  20570844.3414   20570849.2234
  22299902.111   -16328573.73249 -12701841.02049  22299902.4094   22299905.5844
  18519452.341   -12772653.14749  -9939328.29149  18519452.0004   18519455.7584
  19534642.932   -25256421.47049 -19667342.95049  19534642.4984   19534646.2154
  18258406.900   -11887637.45949  -9049018.21949  18258406.4284   18258411.1494
  18161596.019   -20077337.83249 -15584200.58049  18161594.9894   18161600.5474
 97  1  8 18 53 59.9920000  0  7 22 19  4 29 18 14 16
  18887643.546   -14173199.26949 -11030659.79849  18887642.3474   18887646.9054
  20540271.175   -11695451.28549  -9089663.03649  20540269.8874   20540274.7954
  22285266.251   -16405486.58949 -12761773.12549  22285266.3614   22285272.3624
  18506406.745   -12841208.19649  -9992747.82549  18506406.4114   18506410.0194
  19504243.198   -25416173.55249 -19791825.08449  19504242.6744   19504246.6034
  18251451.944   -11924185.96549  -9077497.60249  18251451.3934   18251456.3824
  18142942.710   -20175361.36149 -15660582.56949  18142941.6034   18142946.9024
 97  1  8 18 54 29.9910000  0  7 22 19  4 29 18 14 16
  18878949.535   -14218886.96349 -11066260.60549  18878948.0364   18878952.4854
  20509734.774   -11855921.05749  -9214704.43649  20509734.1964   20509738.1864
  22270721.618   -16481920.62549 -12821332.13849  22270720.0714   22270724.4404
  18493405.135   -12909532.15249 -10045987.28749  18493404.6224   18493408.3974
  19473867.339   -25575799.98449 -19916209.31149  19473866.3834   19473870.6384
  18244591.581   -11960237.84749  -9105590.00049  18244590.9434   18244595.8944
  18124396.734   -20272820.85649 -15736525.05149  18124395.4524   18124401.0264
 97  1  8 18 54 59.9910000  0  7 22 19  4 29 18 14 16
  18870376.471   -14263938.76049 -11101365.90549  18870375.3214   18870379.6864
  20479244.896   -12016146.57949  -9339555.51549  20479245.1544   20479248.7314
  22256274.829   -16557839.61149 -12880489.81749  22256276.0114   22256279.7714
  18480462.851   -12977544.40549 -10098983.86149  18480462.4024   18480466.3134
  19443522.335   -25735263.97449 -20040466.95649  19443521.9304   19443525.8934
  18237837.596   -11995730.19649  -9133246.39949  18237836.9484   18237841.9514
  18105970.540   -20369651.15049 -15811977.24149  18105969.5184   18105974.6004
 97  1  8 18 55 29.9910000  0  7 22 19  4 29 18 14 16
  18861897.174   -14308497.79549 -11136087.23549  18861895.8414   18861900.2054
  20448780.934   -12176235.82549  -9464300.39249  20448779.7644   20448784.4334
  22241903.530   -16633362.08949 -12939338.51649  22241904.7104   22241909.3144
  18467558.855   -13045355.47949 -10151823.67949  18467558.3754   18467562.2864
  19413179.697   -25894716.14849 -20164715.39849  19413178.7964   19413182.7834
  18231168.053   -12030778.98449  -9160557.16649  18231167.1664   18231172.2944
  18087641.141   -20465972.69849 -15887033.00049  18087639.9974   18087645.2474
 97  1  8 18 55 59.9910000  0  7 22 19  4 29 18 14 16
  18853519.724   -14352521.72649 -11170391.60249  18853518.7714   18853522.9054
  20418351.840   -12336141.76149  -9588902.41149  20418351.3404   20418355.3144
  22227617.231   -16708438.01549 -12997839.24849  22227616.9614   22227624.1414
  18454703.221   -13112912.28149 -10204465.36949  18454702.7354   18454706.7264
  19382851.702   -26054091.12049 -20288903.67949  19382850.8624   19382855.5504
  18224592.575   -12065333.58349  -9187482.85249  18224591.7884   18224597.0804
  18069418.656   -20561732.69649 -15961651.18549  18069417.7724   18069422.8934
 97  1  8 18 56 29.9910000  0  7 22 19  4 29 18 14 16
  18845243.595   -14396013.19349 -11204281.07049  18845242.4304   18845246.8714
  20387958.013   -12495862.32849  -9713360.01549  20387956.9414   20387960.9524
  22213412.230   -16783085.95949 -13056006.52749  22213413.0644   22213417.2164
  18441896.569   -13180212.01549 -10256906.74749  18441896.1114   18441899.8644
  19352538.108   -26213390.44749 -20413033.02549  19352537.3474   19352541.3584
  18218111.253   -12099393.35249  -9214022.95849  18218110.8744   18218115.9074
  18051301.918   -20656937.29849 -16035836.59749  18051301.0144   18051306.1714
 97  1  8 18 56 59.9910000  0  7 22 19  4 29 18 14 16
  18837076.582   -14438931.19849 -11237723.67449  18837075.3044   18837079.9084
  20357607.359   -12655355.93249  -9837640.73949  20357607.2424   20357610.0604
  22199295.461   -16857270.27449 -13113812.48849  22199296.2274   22199301.6754
  18429147.719   -13247207.98149 -10309111.40949  18429147.1674   18429150.9004
  19322247.599   -26372568.23949 -20537067.66649  19322246.7374   19322250.7324
  18211734.040   -12132906.14049  -9240136.84449  18211733.2094   18211738.3534
  18033297.903   -20751549.19449 -16109560.16149  18033296.9484   18033301.8764
 97  1  8 18 57 29.9910000  0  7 22 19  4 29 18 14 16
  18829001.839   -14481364.28249 -11270788.41349  18829000.6344   18829005.2914
  20327285.184   -12814699.87649  -9961804.86149  20327284.4644   20327288.5704
  22185251.854   -16931070.10549 -13171318.87749  22185250.8304   22185257.0734
  18416438.166   -13313997.45449 -10361155.17349  18416437.7954   18416441.5214
  19291968.176   -26531687.76349 -20661056.91449  19291967.5794   19291971.7174
  18205445.422   -12165953.25349  -9265887.86449  18205444.8534   18205450.0474
  18015389.759   -20845657.15249 -16182891.04949  18015388.8164   18015394.2504
 97  1  8 18 57 59.9910000  0  7 22 19  4 29 18 14 16
  18821041.313   -14523197.21649 -11303385.51249  18821039.9754   18821044.4804
  20297013.057   -12973780.73049 -10085763.95949  20297011.9914   20297016.8704
  22171300.335   -17004385.26749 -13228447.61449  22171302.8364   22171308.5004
  18403787.929   -13380475.19649 -10412956.04149  18403787.6934   18403791.1114
  19261727.234   -26690605.09649 -20784888.59849  19261725.7154   19261730.2814
  18199264.266   -12198435.81049  -9291198.97249  18199263.6424   18199268.5704
  17997598.636   -20939150.24049 -16255742.82549  17997597.5134   17997602.7524
 97  1  8 18 58 29.9910000  0  7 22 19  4 29 18 14 16
  18813169.219   -14564565.31249 -11335620.39549  18813167.7254   18813172.5694
  20266764.971   -13132735.32549 -10209624.68349  20266764.5814   20266768.7284
  22157415.148   -17077352.25249 -13285305.05049  22157413.0324   22157421.7814
  18391171.548   -13446774.73949 -10464618.04349  18391171.0474   18391174.8904
  19231498.603   -26849457.68449 -20908669.84349  19231497.7914   19231501.5934
  18193164.800   -12230488.83149  -9316175.37449  18193164.3644   18193169.1664
  17979898.882   -21032163.09149 -16328220.38949  17979897.7364   17979903.0464
 97  1  8 18 58 59.9910000  0  7 22 19  4 29 18 14 16
  18805387.352   -14605459.41449 -11367485.93149  18805385.9524   18805390.8484
  20236543.682   -13291549.01149 -10333375.60649  20236543.1334   20236548.2744
  22143600.825   -17149945.13249 -13341870.97649  22143597.0374   22143607.1784
  18378594.133   -13512869.42349 -10516120.41149  18378593.7644   18378597.6534
  19201288.984   -27008210.17449 -21032373.07649  19201288.4854   19201292.1804
  18187151.026   -12262091.69849  -9340801.00449  18187150.3484   18187155.6534
  17962295.100   -21124671.46049 -16400304.84449  17962294.1334   17962299.6294
 97  1  8 18 59 29.9910000  0  7 22 19  4 29 18 14 16
  18797715.420   -14645775.65249 -11398901.19149  18797714.1434   18797718.5344
  20206371.642   -13450104.40949 -10456925.26449  20206370.8814   20206374.7344
  22129880.824   -17222041.88749 -13398050.31049  22129878.5944   22129887.1544
  18366080.189   -13578630.54549 -10567362.86549  18366079.5584   18366083.4014
  19171123.602   -27166730.33049 -21155895.27449  19171123.1584   19171127.0204
  18181242.448   -12293141.36749  -9364995.57549  18181241.6184   18181246.8954
  17944811.473   -21216548.47349 -16471897.34449  17944810.1764   17944815.6614
 97  1  8 18 59 59.9910000  0  7 22 19  4 29 18 14 16
  18790152.845   -14685517.24649 -11429868.67449  18790151.4294   18790156.0004
  20176248.254   -13608404.07249 -10580275.64449  20176247.6144   20176250.6134
  22116254.591   -17293646.76049 -13453846.36349  22116253.8364   22116261.2464
  18353631.188   -13644050.63849 -10618339.58149  18353630.7064   18353634.6064
  19141002.670   -27325016.85649 -21279235.42249  19141001.8704   19141005.8564
  18175436.761   -12323650.52649  -9388768.97249  18175435.9284   18175441.0394
  17927447.986   -21307794.28449 -16542997.99349  17927447.0074   17927451.7564
 97  1  8 19  0 29.9910000  0  7 22 19  4 29 18 14 16
  18782666.193   -14724859.60549 -11460525.07349  18782664.7124   18782669.2414
  20146137.131   -13766639.62549 -10703576.06049  20146136.4604   20146140.1584
  22102686.047   -17364950.25649 -13509407.57149  22102684.5104   22102692.4904
  18341215.477   -13709295.47949 -10669179.73649  18341214.7114   18341218.4514
  19110889.261   -27483263.39449 -21402544.42449  19110888.0484   19110892.6434
  18169700.815   -12353793.33049  -9412256.89249  18169700.0884   18169705.1184
  17910171.991   -21398580.29549 -16613740.35349  17910170.8374   17910175.9844
 97  1  8 19  0 59.9910000  0  7 22 19  4 29 18 14 16
  18775300.714   -14763564.92649 -11490685.08449  18775299.2314   18775303.8144
  20116082.036   -13924580.25149 -10826646.68249  20116081.1274   20116085.0104
  22089217.853   -17435725.24449 -13564556.97449  22089217.9234   22089224.0364
  18328877.567   -13774131.64349 -10719701.44049  18328877.4124   18328880.9584
  19080826.582   -27641243.52349 -21525645.83449  19080825.9394   19080829.6054
  18164078.413   -12383339.29249  -9435279.74549  18164077.7214   18164082.4914
  17893028.284   -21488670.95949 -16683940.89349  17893027.2654   17893032.4894
 97  1  8 19  1 29.9910000  0  7 22 19  4 29 18 14 16
  18768024.270   -14801802.86349 -11520480.91149  18768022.7284   18768027.8694
  20086050.182   -14082398.41249 -10949621.84549  20086049.3274   20086053.9484
  22075815.054   -17506157.69949 -13619439.45449  22075815.2814   22075819.2834
  18316580.662   -13838752.61349 -10770055.46149  18316580.1954   18316583.8314
  19050775.758   -27799161.27749 -21648698.62349  19050774.9534   19050778.4674
  18158534.174   -12412474.59249  -9457982.59449  18158533.3894   18158538.2224
  17875980.838   -21578256.12849 -16753747.53449  17875979.6574   17875984.9814
 97  1  8 19  1 59.9910000  0  7 22 19  4 29 18 14 16
  18760870.616   -14839395.28349 -11549773.72849  18760869.3204   18760873.8744
  20056072.345   -14239932.62549 -11072375.75949  20056071.5514   20056077.1294
  22062508.252   -17576087.89449 -13673930.53649  22062510.3124   22062511.5044
  18304352.285   -13903013.47349 -10820128.88749  18304351.6314   18304355.0224
  19020762.642   -27956881.38949 -21771597.42049  19020761.8314   19020765.4584
  18153100.313   -12441029.75949  -9480233.40349  18153099.4714   18153104.3974
  17859059.406   -21667178.83849 -16823037.97949  17859058.3214   17859063.5244
 97  1  8 19  2 29.9910000  0  7 22 19  4 29 18 14 16
  18753807.757   -14876511.20949 -11578695.25049  18753806.4204   18753811.0204
  20026115.154   -14397358.14149 -11195044.98949  20026113.9504   20026119.1624
  22049266.008   -17645679.07649 -13728157.45549  22049266.6504   22049269.8344
  18292158.403   -13967092.75049 -10870060.81249  18292157.8134   18292161.5394
  18990752.557   -28114585.33449 -21894483.61749  18990751.5864   18990755.4864
  18147747.035   -12469161.34449  -9502154.13549  18147746.1674   18147750.9274
  17842231.266   -21755611.44049 -16891946.51449  17842230.4914   17842235.5074
 97  1  8 19  2 59.9900000  0  7 22 19  4 29 18 14 16
  18746870.063   -14912969.45149 -11607104.30649  18746868.8034   18746873.4504
  19996219.167   -14554462.62849 -11317464.05949  19996218.0464   19996223.3644
  22036129.352   -17714714.25749 -13781951.12249  22036130.7044   22036133.8754
  18280034.888   -14030802.15249 -10919704.52549  18280034.2664   18280037.8834
  18960785.932   -28272060.89049 -22017191.85449  18960785.5314   18960789.3064
  18142510.330   -12496680.44049  -9523597.60949  18142509.5724   18142514.5624
  17825532.710   -21843363.23649 -16960324.55849  17825531.8114   17825537.1374
 97  1  8 19  3 29.9900000  0  7 22 19  4 29 18 14 16
  18740023.837   -14948946.83849 -11635138.65949  18740022.5624   18740027.1634
  19966348.801   -14711431.24349 -11439777.26149  19966347.3554   19966353.3524
  22023067.228   -17783355.94949 -13835438.16649  22023066.7984   22023069.8464
  18267950.118   -14094308.14249 -10969189.73049  18267949.4524   18267953.4184
  18930829.480   -28429483.13149 -22139858.53649  18930828.9204   18930832.7054
  18137356.170   -12523765.58749  -9544702.93749  18137355.2104   18137360.4624
  17808930.625   -21930607.80849 -17028307.35949  17808929.5154   17808934.8584
 97  1  8 19  3 59.9900000  0  7 22 19  4 29 18 14 16
  18733262.348   -14984478.77049 -11662825.92149  18733261.1934   18733265.8624
  19936498.781   -14868293.62549 -11562007.66549  19936497.9204   19936503.2954
  22010077.464   -17851618.28849 -13888629.62649  22010076.4014   22010081.8044
  18255900.821   -14157627.63849 -11018529.61949  18255900.4634   18255904.0144
  18900883.319   -28586851.57349 -22262483.30549  18900882.7414   18900886.2504
  18132282.341   -12550428.75049  -9565479.45549  18132281.6134   18132286.6964
  17792424.159   -22017349.81549 -17095898.55049  17792422.9124   17792428.4744
 97  1  8 19  4 29.9900000  0  7 22 19  4 29 18 14 16
  18726605.864   -15019459.40149 -11690083.59549  18726604.6014   18726609.4604
  19906692.792   -15024925.00449 -11684058.07349  19906691.5944   19906697.2704
  21997180.488   -17919391.35949 -13941439.84949  21997179.5994   21997185.1234
  18243911.547   -14220631.96149 -11067623.91949  18243910.7134   18243914.6064
  18870974.311   -28744024.85949 -22384956.00149  18870973.1974   18870977.2424
  18127311.957   -12576548.58649  -9585832.60249  18127311.2644   18127316.1474
  17776036.780   -22103466.13949 -17163002.19649  17776035.9564   17776041.0774
 97  1  8 19  4 59.9900000  0  7 22 19  4 29 18 14 16
  18720038.258   -15053972.60049 -11716977.03549  18720036.6284   18720041.8424
  19876915.876   -15181403.03849 -11805989.01649  19876914.4684   19876919.8034
  21984357.486   -17986773.23649 -13993945.23249  21984357.0864   21984364.3124
  18231968.395   -14283393.70849 -11116529.19449  18231967.7014   18231971.6674
  18841086.291   -28901087.27349 -22507342.30249  18841085.3584   18841089.6144
  18122426.611   -12602221.30549  -9605837.34949  18122425.9964   18122431.0124
  17759754.232   -22189031.55849 -17229676.55849  17759753.2394   17759758.4994
 97  1  8 19  5 29.9900000  0  7 22 19  4 29 18 14 16
  18713575.257   -15087935.84149 -11743441.94149  18713574.0924   18713578.6584
  19847179.933   -15337665.56449 -11927752.01049  19847178.4144   19847184.6484
  21971619.070   -18053711.07549 -14046104.65649  21971617.8854   21971626.7644
  18220083.853   -14345847.51549 -11165194.52249  18220083.1494   18220087.0184
  18811231.846   -29057973.21049 -22629591.08549  18811231.0364   18811235.1954
  18117641.651   -12627366.60049  -9625431.11149  18117641.2184   18117646.0974
  17743588.090   -22273985.46449 -17295874.42149  17743587.0804   17743592.3894
 97  1  8 19  5 59.9900000  0  7 22 19  4 29 18 14 16
  18707214.124   -15121363.96949 -11769489.86749  18707212.7664   18707217.6524
  19817483.936   -15493719.15049 -12049352.20349  19817483.5224   19817487.8394
  21958959.392   -18120236.61349 -14097942.80249  21958958.3694   21958968.4114
  18208254.862   -14408009.21649 -11213632.23549  18208254.2384   18208258.2254
  18781409.229   -29214692.21449 -22751709.79549  18781408.5214   18781412.4754
  18112953.242   -12652004.48449  -9644629.48549  18112952.9444   18112957.4214
  17727533.540   -22358352.88049 -17361615.27849  17727532.6554   17727538.0904
 97  1  8 19  6 29.9900000  0  7 22 19  4 29 18 14 16
  18700950.133   -15154281.48449 -11795139.91449  18700948.8434   18700953.7154
  19787823.369   -15649586.74449 -12170807.46349  19787822.5954   19787827.5534
  21946372.717   -18186380.35649 -14149483.44049  21946372.8424   21946381.0234
  18196478.537   -14469894.24049 -11261854.34649  18196478.2404   18196481.7834
  18751612.370   -29371275.67349 -22873722.88149  18751611.8494   18751616.0184
  18108352.628   -12676181.40049  -9663468.66549  18108351.7894   18108356.8134
  17711583.242   -22442172.26249 -17426929.09249  17711582.1374   17711587.5324
 97  1  8 19  6 59.9900000  0  7 22 19  4 29 18 14 16
  18694789.840   -15186654.05649 -11820365.32949  18694788.1084   18694793.1764
  19758204.157   -15805237.35649 -12292093.64849  19758203.8504   19758208.4434
  21933868.079   -18252093.82449 -14200688.78549  21933868.9784   21933875.8034
  18184761.711   -14531466.52149 -11309832.75949  18184761.2124   18184765.2114
  18721847.195   -29527693.12349 -22995606.61549  18721846.4754   18721851.0934
  18103844.638   -12699871.04649  -9681928.15249  18103843.8404   18103848.7634
  17695742.101   -22525417.81249 -17491795.76749  17695740.8344   17695746.3964
 97  1  8 19  7 29.9900000  0  7 22 19  4 29 18 14 16
  18688746.255   -15218413.13949 -11845112.69649  18688745.0114   18688749.2314
  19728640.694   -15960594.99849 -12413151.55249  19728640.0274   19728645.2164
  21921462.130   -18317290.21049 -14251491.20849  21921463.6574   21921469.6954
  18173118.018   -14592654.75849 -11357511.91949  18173117.5724   18173121.8614
  18692129.567   -29683860.27749 -23117295.31049  18692128.7994   18692133.1464
  18099441.797   -12723008.20549  -9699957.13649  18099441.2384   18099446.0894
  17680022.457   -22608025.16749 -17556165.15049  17680021.5464   17680026.7124
 97  1  8 19  7 59.9900000  0  7 22 19  4 29 18 14 16
  18682776.203   -15249786.13749 -11869559.21949  18682774.7944   18682779.6514
  19699095.012   -16115858.87549 -12534136.37849  19699094.1014   19699099.3994
  21909115.628   -18382174.75349 -14302050.65549  21909116.9444   21909120.6314
  18161509.295   -14653659.32349 -11405047.94849  18161508.7994   18161512.5244
  18662419.538   -29839987.66649 -23238953.01049  18662418.4374   18662423.4644
  18095101.493   -12745816.64349  -9717729.97049  18095100.5734   18095105.9824
  17664387.164   -22690189.49949 -17620189.31349  17664386.2304   17664391.4594
 97  1  8 19  8 29.9900000  0  7 22 19  4 29 18 14 16
  18676919.011   -15280565.95249 -11893543.51249  18676918.0194   18676922.3244
  19669610.644   -16270800.41249 -12654870.03349  19669609.9924   19669615.6414
  21896869.795   -18446530.21449 -14352197.80049  21896870.4224   21896875.8704
  18149973.837   -14714278.60749 -11452283.76749  18149973.4454   18149976.9994
  18632758.657   -29995856.59749 -23360409.32349  18632758.0504   18632762.6044
  18090865.217   -12768078.45049  -9735076.85949  18090864.5354   18090869.5074
  17648876.934   -22771696.42949 -17683701.21949  17648876.0774   17648881.3194
 97  1  8 19  8 59.9900000  0  7 22 19  4 29 18 14 16
  18671162.641   -15310816.15649 -11917115.12049  18671161.5844   18671166.0294
  19640178.258   -16425469.59549 -12775391.46149  19640177.5084   19640182.5944
  21884711.791   -18510422.75549 -14401984.22549  21884712.5494   21884716.2254
  18138498.556   -14774581.51149 -11499273.05449  18138498.0494   18138501.8204
  18603135.500   -30151527.48949 -23481711.31649  18603134.7184   18603139.3044
  18086723.651   -12789842.35349  -9752035.77249  18086722.9624   18086728.1824
  17633481.306   -22852601.16349 -17746743.88549  17633480.3864   17633485.3794
 97  1  8 19  9 29.9900000  0  6 22 19 29 18 14 16
  18665483.984   -15340657.93349 -11940368.47149  18665482.7954   18665487.4234
  19610777.119   -16579974.10649 -12895784.57749  19610776.2624   19610781.3784
  18127061.669   -14834682.75149 -11546105.21849  18127061.1474   18127064.9814
  18573526.976   -30307121.54049 -23602953.43349  18573525.9864   18573530.8624
  18082655.855   -12811218.83249  -9768692.79449  18082655.1984   18082660.6794
  17618180.462   -22933007.77849 -17809398.40449  17618179.4884   17618184.9634
 97  1  8 19  9 59.9900000  0  6 22 19 29 18 14 16
  18659899.580   -15370004.19749 -11963235.70149  18659898.5914   18659903.3254
  19581425.282   -16734219.28249 -13015975.62349  19581424.5124   19581429.3154
  18115679.748   -14894495.07249 -11592712.24949  18115679.1364   18115682.8314
  18543951.980   -30462539.23549 -23724058.13349  18543951.3404   18543955.6634
  18078683.123   -12832095.97649  -9784960.71849  18078682.6784   18078687.7994
  17602992.750   -23012819.79049 -17871589.59349  17602991.6124   17602997.1514
 97  1  8 19 10 29.9900000  0  6 22 19 29 18 14 16
  18654402.553   -15398891.79549 -11985745.52749  18654401.2974   18654406.0834
  19552111.587   -16888263.20749 -13136009.83849  19552110.8954   19552116.3044
  18104344.045   -14954064.73949 -11639130.20249  18104343.5044   18104347.5524
  18514401.920   -30617826.01449 -23845060.82349  18514401.3074   18514405.9714
  18074799.031   -12852507.28949  -9800865.66249  18074798.6274   18074803.5974
  17587909.999   -23092080.29049 -17933351.03849  17587909.0844   17587914.4104
 97  1  8 19 10 59.9900000  0  6 22 19 29 18 14 16
  18648999.744   -15427283.79549 -12007869.16949  18648998.5574   18649002.8464
  19522837.773   -17042098.05249 -13255881.14749  19522836.9714   19522841.8334
  18093063.962   -15013342.21849 -11685320.46249  18093063.9624   18093067.3094
  18484881.361   -30772957.63549 -23965942.60349  18484880.8034   18484885.3124
  18071008.781   -12872425.47349  -9816386.34649  18071008.2314   18071013.3644
  17572940.592   -23170744.99949 -17994648.22849  17572939.5774   17572944.9394
 97  1  8 19 11 29.9900000  0  7 22 19  3 29 18 14 16
  18643698.165   -15455143.75149 -12029578.23249  18643696.6674   18643701.5804
  19493606.249   -17195710.84749 -13375579.42649  19493606.0974   19493611.1914
  21748146.253   -10909622.86149  -4283324.88449  21748145.3924   21748152.4904
  18081845.058   -15072298.31949 -11731260.30049  18081844.9194   18081848.2154
  18455398.733   -30927890.19049 -24086669.27549  18455398.0744   18455402.3864
  18067315.809   -12891832.46349  -9831508.70249  18067315.1184   18067320.3424
  17558090.661   -23248781.83449 -18055456.16749  17558089.4184   17558094.9094
 97  1  8 19 11 59.9890000  0  7 22 19  3 29 18 14 16
  18638490.585   -15482509.86649 -12050902.48749  18638489.2424   18638493.8064
  19464407.770   -17349149.74249 -13495142.20549  19464406.5824   19464411.9914
  21717868.643   -11068732.28949  -4407306.27249  21717867.7934   21717875.1024
  18070678.556   -15130979.24949 -11776985.72349  18070678.2804   18070682.2144
  18425947.146   -31082659.39849 -24207268.66549  18425946.6134   18425950.8084
  18063708.854   -12910787.11349  -9846278.58449  18063708.4354   18063713.6784
  17543351.661   -23326235.58749 -18115809.75549  17543350.6914   17543356.2294
 97  1  8 19 12 29.9890000  0  7 22 19  3 29 18 14 16
  18633373.954   -15509397.75249 -12071854.09249  18633372.6854   18633377.5864
  19435237.621   -17502439.71449 -13614588.92049  19435237.3454   19435241.1564
  21687596.423   -11227813.35949  -4531265.58349  21687596.1004   21687602.9514
  18059562.179   -15189396.52249 -11822505.69649  18059561.7664   18059565.6244
  18396520.289   -31237298.52749 -24327766.68549  18396519.6744   18396523.5854
  18060181.036   -12929326.05249  -9860724.53449  18060180.5374   18060185.5474
  17528719.648   -23403127.32349 -18175725.40549  17528718.4214   17528724.3304
 97  1  8 19 12 59.9890000  0  7 22 19  3 29 18 14 16
  18628350.076   -15535798.61149 -12092426.20149  18628348.7634   18628353.6924
  19406102.853   -17655544.11649 -13733891.05549  19406102.3154   19406106.5634
  21657332.479   -11386850.94449  -4655190.99649  21657332.3814   21657340.2394
  18048499.565   -15247530.88049 -11867805.23149  18048499.0644   18048502.9564
  18367124.644   -31391773.66549 -24448136.92249  18367123.9154   18367128.0664
  18056733.260   -12947444.29249  -9874842.67549  18056732.4744   18056738.0914
  17514198.226   -23479437.88749 -18235188.20349  17514197.2544   17514203.0434
 97  1  8 19 13 29.9890000  0  7 22 19  3 29 18 14 16
  18623420.764   -15561702.58249 -12112611.11349  18623419.2154   18623424.1924
  19377010.172   -17808426.81549 -13853020.41649  19377009.6754   19377013.7424
  21627078.496   -11545836.79549  -4779076.09249  21627077.2664   21627084.2814
  18037492.444   -15305373.38449 -11912877.33749  18037491.8244   18037495.5684
  18337765.026   -31546059.54349 -24568359.67649  18337764.1904   18337768.2754
  18053370.142   -12965117.56149  -9888614.07749  18053369.7624   18053375.0654
  17499789.423   -23555156.93349 -18294190.06749  17499788.5384   17499794.0874
 97  1  8 19 13 59.9890000  0  7 22 19  3 29 18 14 16
  18618576.097   -15587161.55749 -12132449.28449  18618574.4494   18618579.4264
  19347954.098   -17961117.44049 -13972000.12549  19347953.3714   19347956.6634
  21596827.679   -11704805.48949  -4902947.83749  21596825.2394   21596833.3924
  18026533.317   -15362963.89349 -11957753.08449  18026533.0614   18026536.4874
  18308431.488   -31700208.29149 -24688475.57849  18308430.5774   18308434.5794
  18050084.233   -12982385.05349  -9902069.29549  18050083.4674   18050088.8764
  17485484.237   -23630331.28649 -18352767.50849  17485483.1324   17485488.7034
 97  1  8 19 14 29.9890000  0  7 22 19  3 29 18 14 16
  18613820.042   -15612154.86349 -12151924.59349  18613818.7214   18613823.7174
  19318939.107   -18113592.49049 -14090811.85249  19318939.1274   19318943.0804
  21566586.767   -11863721.59549  -5026778.65549  21566584.8744   21566594.0874
  18015630.014   -15420261.23249 -12002400.38449  18015629.5494   18015633.1604
  18279132.678   -31854174.31949 -24808449.10449  18279131.7704   18279135.9884
  18046882.262   -12999211.55749  -9915180.88349  18046881.5644   18046886.9034
  17471288.159   -23704932.44249 -18410898.30049  17471287.3294   17471292.7724
 97  1  8 19 14 59.9890000  0  7 22 19  3 29 18 14 16
  18609150.187   -15636695.15649 -12171046.90349  18609149.0644   18609153.8124
  19289959.376   -18265882.46449 -14209479.35749  19289958.5804   19289962.5594
  21536355.991   -12022585.37849  -5150568.66249  21536355.3314   21536363.2514
  18004779.041   -15477283.28249 -12046833.16749  18004778.6814   18004782.2974
  18249865.988   -32007971.49249 -24928291.05249  18249864.9814   18249869.2384
  18043763.479   -13015601.33349  -9927952.15749  18043763.1234   18043768.2814
  17457198.984   -23778971.77749 -18468591.30549  17457197.8334   17457203.2944
 97  1  8 19 15 29.9890000  0  7 22 19  3 29 18 14 16
  18604584.967   -15660685.62449 -12189740.78449  18604583.5554   18604588.3014
  19261030.275   -18417905.87749 -14327939.15649  19261029.7774   19261034.4544
  21506155.668   -12181290.02449  -5274234.69549  21506156.0084   21506163.7234
  17993996.692   -15533944.91649 -12090985.10549  17993996.3464   17994000.0724
  18220645.998   -32161523.38549 -25047941.87649  18220645.1704   18220649.6834
  18040744.764   -13031465.07649  -9940313.53849  18040744.2734   18040749.2304
  17443232.474   -23852366.12249 -18525781.73049  17443231.3424   17443237.1354
 97  1  8 19 15 59.9890000  0  7 22 19  3 29 18 14 16
  18600083.610   -15684340.42449 -12208173.10849  18600082.1414   18600087.0354
  19232108.212   -18569891.90549 -14446369.81649  19232107.3294   19232111.6614
  21475947.506   -12340035.92149  -5397932.82549  21475948.0214   21475955.4404
  17983246.129   -15590439.74049 -12135007.06749  17983245.6084   17983249.4154
  18191434.185   -32315032.10449 -25167559.05849  18191433.5734   18191437.8254
  18037784.664   -13047020.60349  -9952434.75549  18037784.3924   18037788.9734
  17429349.537   -23925321.04049 -18582629.74449  17429348.3734   17429353.9994
 97  1  8 19 16 29.9890000  0  7 22 19  3 29 18 14 16
  18595685.514   -15707452.68449 -12226182.67349  18595683.7064   18595688.8804
  19203229.575   -18721650.17549 -14564623.00049  19203228.3524   19203233.5604
  21445772.196   -12498609.25449  -5521496.49749  21445772.4114   21445779.0974
  17972567.212   -15646557.77249 -12178735.42649  17972566.5814   17972570.1314
  18162271.941   -32468280.69249 -25286973.53449  18162270.6024   18162275.3084
  18034921.805   -13062065.26049  -9964157.88749  18034920.8944   18034925.8514
  17415589.873   -23997628.25649 -18638973.04649  17415588.4994   17415594.1274
 97  1  8 19 16 59.9890000  0  7 22 19  3 29 18 14 16
  18591373.700   -15730111.41649 -12243838.84149  18591372.1814   18591377.2414
  19174379.566   -18873257.75949 -14682758.78449  19174378.7844   19174383.3244
  21415613.850   -12657093.25049  -5644990.53249  21415613.1994   21415621.3784
  17961939.792   -15702405.31249 -12222253.02649  17961939.2384   17961943.0024
  18133138.713   -32621376.71749 -25406269.14049  18133137.8504   18133142.2194
  18032137.223   -13076698.76049  -9975560.64949  18032136.6924   18032141.8584
  17401935.477   -24069382.73149 -18694885.64849  17401934.3624   17401939.9444
 97  1  8 19 17 29.9890000  0  7 22 19  3 29 18 14 16
  18587156.673   -15752272.11649 -12261106.93449  18587155.6904   18587160.0844
  19145570.260   -19024652.05649 -14800728.35549  19145569.2384   19145574.1904
  21385482.043   -12815437.21549  -5768375.43849  21385481.0304   21385488.2704
  17951375.225   -15757922.60749 -12265513.28449  17951374.6124   17951378.6464
  18104046.752   -32774255.71949 -25525395.63549  18104045.9304   18104050.6384
  18029437.795   -13090884.36049  -9986614.39849  18029437.3304   18029442.3514
  17388394.322   -24140542.20049 -18750334.60949  17388393.2764   17388398.7794
 97  1  8 19 17 59.9890000  0  7 22 19  3 29 18 14 16
  18583015.432   -15774034.61449 -12278064.74749  18583014.0274   18583018.3954
  19116783.743   -19175926.82449 -14918604.79549  19116782.4474   19116788.0624
  21355358.849   -12973735.80349  -5891724.92249  21355358.7234   21355365.2424
  17940857.624   -15813192.70149 -12308580.91649  17940857.0534   17940861.3764
  18074981.599   -32926994.34349 -25644412.74349  18074980.9314   18074985.4824
  18026805.861   -13104714.86049  -9997391.45049  18026804.9134   18026810.6984
  17374948.756   -24211199.34749 -18805392.14449  17374947.8544   17374953.4524
 97  1  8 19 18 29.9890000  0  7 22 19  3 29 18 14 16
  18578972.999   -15795277.91249 -12294617.98549  18578971.6864   18578976.4194
  19088047.499   -19326936.44849 -15036274.62949  19088046.8604   19088052.0034
  21325268.545   -13131861.54849  -6014939.74449  21325268.4344   21325275.4104
  17930405.643   -15868118.25449 -12351380.07849  17930405.2694   17930409.5824
  18045964.579   -33079480.06549 -25763232.79349  18045964.1394   18045968.5334
  18024263.838   -13118072.80249 -10007800.27749  18024262.6434   18024268.5214
  17361620.956   -24281237.74549 -18859967.54049  17361619.9814   17361625.6414
 97  1  8 19 18 59.9890000  0  7 22 19  3 29 18 14 16
  18575001.347   -15816148.92249 -12310881.12249  18575000.1554   18575004.4554
  19059338.469   -19477803.64149 -15153833.47649  19059337.7754   19059342.8414
  21295185.758   -13289948.05949  -6138123.93049  21295185.4004   21295192.5314
  17919992.205   -15922841.53749 -12394021.62649  17919992.1884   17919996.0154
  18016968.728   -33231854.59649 -25881966.19449  18016968.1524   18016972.5684
  18021786.580   -13131090.56349 -10017944.01849  18021785.8474   18021791.3654
  17348384.764   -24350794.26449 -18914167.44749  17348383.5444   17348389.2754
 97  1  8 19 19 29.9890000  0  7 22 19  3 29 18 14 16
  18571122.184   -15836533.85049 -12326765.49649  18571120.4214   18571125.6774
  19030677.773   -19628416.14849 -15271193.85649  19030676.5674   19030682.2924
  21265134.543   -13447868.81449  -6261178.98149  21265133.5444   21265140.9754
  17909643.340   -15977225.35049 -12436398.64649  17909642.7524   17909646.8974
  17988019.197   -33383985.61749 -26000509.84349  17988018.8444   17988022.8694
  18019400.580   -13143629.19349 -10027714.41849  18019400.2494   18019405.5024
  17335264.459   -24419741.77549 -18967892.80349  17335263.5174   17335269.2904
 97  1  8 19 19 59.9890000  0  7 22 19  3 29 18 14 16
  18567353.702   -15856337.08549 -12342196.61149  18567352.5094   18567357.7714
  19002085.519   -19778669.20949 -15388274.15849  19002085.0904   19002090.2344
  21235133.750   -13605524.21549  -6384027.24149  21235132.4444   21235140.4254
  17899377.054   -16031174.88249 -12478437.26749  17899376.4804   17899380.8174
  17959132.003   -33535789.35849 -26118798.46949  17959131.8024   17959135.4174
  18017124.722   -13155589.23749 -10037033.96949  18017124.6144   18017129.5134
  17322281.816   -24487966.01849 -19021054.58149  17322280.9444   17322286.5114
 97  1  8 19 20 29.9890000  0  7 22 19  3 29 18 14 16
  18563648.998   -15875805.32749 -12357366.68349  18563647.1054   18563653.1464
  18973515.680   -19928804.83249 -15505262.95649  18973514.5394   18973519.7454
  21205135.697   -13763164.39449  -6506863.63749  21205134.9414   21205141.5484
  17889145.135   -16084943.90549 -12520335.23349  17889144.3534   17889148.6384
  17930258.777   -33687519.61349 -26237029.83449  17930258.1614   17930262.0554
  18014911.341   -13167221.35249 -10046097.98049  18014910.8274   18014915.7984
  17309391.018   -24555707.74649 -19073840.36149  17309390.0494   17309395.7744
 97  1  8 19 20 59.9880000  0  7 22 19  3 29 18 14 16
  18560033.634   -15894804.19149 -12372171.01049  18560032.2974   18560037.3934
  18944991.136   -20078701.72749 -15622065.72849  18944990.0664   18944996.0474
  21175164.009   -13920666.75049  -6629592.61249  21175163.2804   21175169.3574
  17878974.474   -16138391.26149 -12561982.54549  17878974.1644   17878977.8074
  17901424.241   -33839046.55049 -26355102.76449  17901423.5824   17901427.3554
  18012785.526   -13178393.36549 -10054803.47049  18012785.3884   18012790.1284
  17296617.075   -24622835.59349 -19126147.79949  17296616.2224   17296621.6884
 97  1  8 19 21 29.9880000  0  7 22 19  3 29 18 14 16
  18556497.974   -15913384.32849 -12386649.05349  18556496.6654   18556502.1014
  18916500.007   -20228423.20749 -15738731.80549  18916499.1704   18916504.7864
  21145203.843   -14078108.13249  -6752274.08349  21145203.0414   21145209.2664
  17868853.923   -16191575.25949 -12603424.65149  17868853.5904   17868857.6864
  17872615.786   -33990436.22549 -26473068.74649  17872615.1464   17872618.7084
  18010733.616   -13189176.73649 -10063206.13049  18010733.2494   18010738.1134
  17283946.786   -24689418.84549 -19178030.87449  17283945.9134   17283951.3264
 97  1  8 19 21 59.9880000  0  7 22 19  3 29 18 14 16
  18553040.816   -15931552.03549 -12400805.73349  18553039.4284   18553044.5124
  18888041.212   -20377974.74449 -15855265.46149  18888040.3224   18888045.5044
  21115253.527   -14235497.94649  -6874915.39249  21115251.6754   21115259.0454
  17858778.583   -16244521.45949 -12644681.45949  17858778.0754   17858781.9434
  17843833.850   -34141686.43749 -26590926.04149  17843832.9424   17843836.9524
  18008750.409   -13199599.09149 -10071327.48449  18008749.7324   18008754.9854
  17271375.331   -24755482.58249 -19229509.12649  17271374.4764   17271379.6604
 97  1  8 19 22 29.9880000  0  7 22 19  3 29 18 14 16
  18549672.731   -15949251.10149 -12414597.22749  18549671.0504   18549676.7244
  18859626.222   -20527296.59349 -15971620.13849  18859625.0334   18859630.3024
  21085325.693   -14392769.35949  -6997464.42549  21085324.4444   21085330.2844
  17848759.195   -16297173.93749 -12685709.40549  17848758.7114   17848762.4984
  17815093.745   -34292716.69349 -26708611.95549  17815092.5884   17815096.8934
  18006850.911   -13209581.01949 -10079105.64849  18006850.0974   18006855.5464
  17258911.332   -24820981.62849 -19280547.36549  17258910.3654   17258915.6074
 97  1  8 19 22 59.9880000  0  7 22 19  3 29 18 14 16
  18546394.027   -15966480.74549 -12428022.94049  18546392.9094   18546398.0504
  18831257.960   -20676372.59849 -16087783.24149  18831256.8724   18831262.2004
  21055424.676   -14549899.97749  -7119903.74549  21055424.6134   21055430.7094
  17838799.479   -16349512.88949 -12726493.03649  17838799.2464   17838803.3334
  17786398.087   -34443513.29549 -26826115.79649  17786397.2634   17786401.2964
  18005037.616   -13219109.89549 -10086530.78149  18005036.9524   18005042.1884
  17246554.186   -24885918.94649 -19331147.89049  17246553.1004   17246558.6534
 97  1  8 19 23 29.9880000  0  7 22 19  3 29 18 14 16
  18543198.317   -15983274.25349 -12441108.81149  18543196.9124   18543202.4114
  18802930.946   -20825232.20749 -16203777.72249  18802930.2924   18802934.8864
  21025549.206   -14706896.27849  -7242238.40349  21025548.1364   21025554.4354
  17828897.531   -16401548.20649 -12767040.07749  17828897.4614   17828901.1644
  17757744.460   -34594088.83349 -26943447.38049  17757743.1904   17757747.6744
  18003305.691   -13228211.26149 -10093622.79549  18003305.0514   18003310.2934
  17234299.064   -24950320.15649 -19381330.66849  17234298.0644   17234303.3864
 97  1  8 19 23 59.9880000  0  7 22 19  3 29 18 14 16
  18540075.961   -15999682.18849 -12453894.23849  18540074.4244   18540079.9484
  18774635.144   -20973927.89049 -16319644.46649  18774634.5914   18774639.2804
  20995691.833   -14863796.92049  -7364498.52449  20995690.5464   20995697.0984
  17819046.256   -16453317.15049 -12807379.54349  17819046.0714   17819050.1344
  17729123.943   -34744489.78549 -27060642.92849  17729122.7544   17729127.3544
  18001647.218   -13236926.35849 -10100413.81249  18001646.4204   18001651.8314
  17222139.759   -25014217.67849 -19431120.96249  17222138.6614   17222144.2914
 97  1  8 19 24 29.9880000  0  7 22 19  3 29 18 14 16
  18537026.389   -16015707.51449 -12466381.53949  18537025.0554   18537030.4364
  18746372.593   -21122448.86749 -16435375.07049  18746372.4364   18746376.9164
  20965854.261   -15020594.25749  -7486678.16049  20965852.8624   20965859.2484
  17809251.576   -16504788.63749 -12847487.21949  17809251.2824   17809255.1734
  17700536.060   -34894719.49849 -27177705.03849  17700535.2044   17700539.7054
  18000062.201   -13245255.43749 -10106904.03549  18000061.7774   18000067.3754
  17210079.797   -25077593.11849 -19480504.44249  17210078.9104   17210084.3944
 97  1  8 19 24 59.9880000  0  7 22 19  3 29 18 14 16
  18534055.931   -16031317.54749 -12478545.22749  18534055.0714   18534060.0904
  18718146.701   -21270777.32049 -16550955.65249  18718145.9274   18718150.7754
  20936042.537   -15177255.53349  -7608751.76949  20936041.5604   20936047.2864
  17799520.057   -16555928.18549 -12887336.23649  17799519.6294   17799524.1134
  17671983.800   -35044762.27849 -27294621.49049  17671982.6714   17671987.3034
  17998551.557   -13253193.89749 -10113089.87749  17998550.9424   17998556.5174
  17198125.391   -25140414.09749 -19529455.87149  17198124.5664   17198129.7994
 97  1  8 19 25 29.9880000  0  7 22 19  3 29 18 14 16
  18531159.344   -16046539.53649 -12490406.54549  18531158.2364   18531162.7804
  18689948.544   -21418959.28449 -16666422.10249  18689947.4494   18689952.4944
  20906252.417   -15333803.13249  -7730736.79849  20906251.0944   20906256.7604
  17789845.361   -16606769.16549 -12926952.60949  17789844.7574   17789849.0084
  17643464.246   -35194633.30249 -27411404.11049  17643463.3844   17643467.9924
  17997107.711   -13260781.14249 -10119002.04349  17997106.7224   17997113.0184
  17186274.536   -25202690.91649 -19577983.28049  17186273.6204   17186279.3024
 97  1  8 19 25 59.9880000  0  7 22 19  3 29 18 14 16
  18528359.366   -16061253.84849 -12501872.27949  18528358.2054   18528363.4684
  18661805.750   -21566850.43049 -16781661.93449  18661804.5824   18661809.5934
  20876510.161   -15490099.20249  -7852525.84349  20876510.0934   20876515.5574
  17780249.262   -16657197.04649 -12966247.09749  17780248.7604   17780252.7284
  17615003.181   -35344197.02049 -27527947.27049  17615002.4084   17615006.9254
  17995751.683   -13267907.21149 -10124554.85349  17995751.0614   17995756.4054
  17174553.617   -25264285.17049 -19625978.82249  17174552.9344   17174558.2824
 97  1  8 19 26 29.9880000  0  7 22 19  3 29 18 14 16
  18525629.747   -16075598.12549 -12513049.66849  18525628.5944   18525633.7664
  18633693.866   -21714579.02349 -16896775.10249  18633692.7734   18633697.2204
  20846794.319   -15646256.23449  -7974206.57249  20846793.5854   20846799.7914
  17770703.894   -16707358.44449 -13005333.93349  17770703.3084   17770707.1364
  17586576.445   -35493580.43849 -27644349.93349  17586575.8774   17586579.9524
  17994456.370   -13274714.46549 -10129859.23849  17994456.1074   17994461.4554
  17162937.657   -25325327.42949 -19673544.23249  17162936.4264   17162942.0584
 97  1  8 19 26 59.9880000  0  7 22 19  3 29 18 14 16
  18523001.701   -16089408.67449 -12523811.16649  18523000.8834   18523005.5744
  18605642.809   -21861987.63049 -17011638.93149  18605641.5524   18605647.3054
  20817137.803   -15802101.17449  -8095644.10749  20817135.8674   20817141.3274
  17761236.615   -16757109.16649 -13044100.75049  17761235.9824   17761240.1664
  17558217.241   -35642608.92049 -27760476.02149  17558216.1104   17558220.8394
  17993252.914   -13281039.17549 -10134787.61849  17993252.0814   17993257.4164
  17151458.644   -25385649.99149 -19720548.83949  17151457.8834   17151463.3264
 97  1  8 19 27 29.9880000  0  7 22 19  3 29 18 14 16
  18520448.358   -16102826.83049 -12534266.90149  18520447.2514   18520451.5614
  18577628.298   -22009204.46449 -17126353.34349  18577627.6564   18577632.1244
  20787513.015   -15957779.88849  -8216952.14449  20787512.5354   20787520.5524
  17751820.967   -16806588.76249 -13082656.29849  17751820.5504   17751824.3784
  17529902.484   -35791403.57949 -27876419.90649  17529901.4324   17529905.8544
  17992113.780   -13287025.38949 -10139452.22749  17992112.9294   17992118.3124
  17140089.895   -25445393.30949 -19767102.08049  17140088.8834   17140094.4554
 97  1  8 19 27 59.9880000  0  7 22 19  3 29 18 14 16
  18517949.970   -16115955.83049 -12544497.32549  18517948.5414   18517953.7184
  18549629.817   -22156337.49549 -17241002.45049  18549629.1394   18549633.6874
  20757894.917   -16113422.64549  -8338232.15049  20757892.6804   20757901.0334
  17742434.688   -16855914.15749 -13121091.68849  17742434.1084   17742438.0124
  17501608.867   -35940087.65749 -27992277.63249  17501608.2794   17501612.5204
  17991017.507   -13292786.44349 -10143941.40549  17991016.7684   17991022.2974
  17128807.190   -25504684.20949 -19813302.79549  17128806.1644   17128811.5354
 97  1  8 19 28 29.9880000  0  7 22 19  3 29 18 14 16
  18515560.269   -16128513.89049 -12554282.85949  18515559.1054   18515564.3304
  18521692.929   -22303146.69449 -17355399.23249  18521692.4694   18521696.4904
  20728331.896   -16268776.88749  -8459287.37549  20728331.0454   20728337.8964
  17733128.781   -16904817.16649 -13159197.95249  17733128.4914   17733132.1164
  17473385.500   -36088402.62049 -28107847.73249  17473384.6184   17473389.1634
  17990016.983   -13298044.48849 -10148038.61649  17990016.9604   17990021.8204
  17117657.021   -25563278.57649 -19858960.75949  17117656.0734   17117661.5974
 97  1  8 19 28 59.9880000  0  7 22 19  3 29 18 14 16
  18513221.821   -16140802.81949 -12563858.67349  18513220.6644   18513225.7834
  18493758.006   -22449946.31749 -17469788.55649  18493757.2384   18493761.5204
  20698762.543   -16424164.37649  -8580368.49049  20698760.4164   20698768.2614
  17723847.911   -16953588.63549 -13197201.72049  17723847.4264   17723851.3674
  17445175.865   -36236645.05649 -28223361.31449  17445174.7174   17445179.2864
  17989054.981   -13303100.15249 -10151978.13649  17989054.8664   17989059.9264
  17106578.666   -25621495.66649 -19904324.73649  17106577.5734   17106582.9894
 97  1  8 19 29 29.9870000  0  7 22 19  3 29 18 14 16
  18510965.891   -16152658.16649 -12573096.63249  18510964.8164   18510969.4934
  18465858.005   -22596561.88549 -17584034.47749  18465858.0134   18465861.9574
  20669221.111   -16579404.96049  -8701335.16049  20669220.7564   20669227.5334
  17714625.079   -17002055.12249 -13234967.83649  17714624.2814   17714628.5874
  17417011.036   -36384652.37849 -28338691.69249  17417010.5054   17417014.6434
  17988165.142   -13307776.59649 -10155622.15549  17988164.8734   17988169.6784
  17095603.484   -25679170.60449 -19949266.26749  17095602.4414   17095607.9074
 97  1  8 19 29 59.9870000  0  7 22 19  3 29 18 14 16
  18508815.197   -16163960.29249 -12581903.49949  18508813.9554   18508818.8654
  18438015.667   -22742875.06749 -17698044.76849  18438015.0884   18438019.9674
  20639736.670   -16734346.87349  -8822069.11449  20639734.2794   20639742.0224
  17705487.512   -17050073.60649 -13272384.84049  17705487.1164   17705491.1284
  17388911.839   -36532315.00249 -28453753.46849  17388911.5274   17388915.3704
  17987377.617   -13311915.48749 -10158847.28849  17987376.8684   17987382.0224
  17084758.340   -25736162.11249 -19993675.24249  17084757.1794   17084763.1234
 97  1  8 19 30 29.9870000  0  7 22 19  3 29 18 14 16
  18506744.463   -16174842.42549 -12590383.12049  18506743.4084   18506747.9794
  18410213.232   -22888977.72549 -17811891.02349  18410212.2454   18410216.6174
  20610294.871   -16889064.75649  -8942628.49549  20610292.8914   20610302.8414
  17696416.856   -17097740.41849 -13309527.84349  17696416.5064   17696420.9314
  17360860.722   -36679725.12749 -28568618.51049  17360860.1874   17360864.4154
  17986673.909   -13315613.85949 -10161729.18649  17986673.6754   17986678.4024
  17074022.743   -25792578.39449 -20037636.01149  17074021.9114   17074027.4564
 97  1  8 19 30 59.9870000  0  7 22 19  3 29 18 14 16
  18504749.018   -16185329.07949 -12598554.56549  18504747.7504   18504752.6924
  18382454.212   -23034851.97749 -17925559.30149  18382453.2024   18382458.4224
  20580898.696   -17043542.33949  -9063000.62549  20580897.9114   20580904.7614
  17687412.774   -17145057.70049 -13346398.46949  17687412.5994   17687416.3694
  17332857.083   -36826885.71249 -28683289.09049  17332856.4834   17332860.6924
  17986052.610   -13318879.29149 -10164273.71649  17986052.2954   17986057.5594
  17063397.225   -25848416.60249 -20081146.31949  17063396.5764   17063401.8724
 97  1  8 19 31 29.9870000  0  7 22 19  3 29 18 14 16
  18502811.772   -16195509.55049 -12606487.42349  18502810.4614   18502815.3264
  18354725.481   -23180567.36149 -18039103.77549  18354724.2894   18354729.7344
  20551536.272   -17197843.62849  -9183235.37849  20551535.4884   20551543.0764
  17678458.260   -17192113.98649 -13383065.72049  17678457.7084   17678461.8654
  17304883.588   -36973887.75849 -28797836.13149  17304883.0294   17304887.1194
  17985495.803   -13321805.79249 -10166554.15049  17985495.4014   17985500.5864
  17052865.675   -25903760.62449 -20124271.54949  17052864.5974   17052870.3004
 97  1  8 19 31 59.9870000  0  7 22 19  3 29 18 14 16
  18500932.493   -16205385.31349 -12614182.83949  18500931.1224   18500936.1394
  18327027.269   -23326122.24649 -18152523.19249  18327026.4944   18327031.5804
  20522205.534   -17351977.93149  -9303340.01249  20522205.1734   20522212.6034
  17669551.904   -17238917.12049 -13419535.71649  17669551.0844   17669555.5914
  17276940.568   -37120729.62749 -28912258.35949  17276939.8234   17276944.0834
  17984998.021   -13324421.62449 -10168592.48949  17984997.0564   17985002.6144
  17042424.614   -25958628.95049 -20167026.11149  17042423.8754   17042429.4384
 97  1  8 19 32 29.9870000  0  7 22 19  3 29 18 14 16
  18499115.957   -16214931.42249 -12621621.37849  18499114.8894   18499119.5914
  18299363.960   -23471493.74249 -18265799.69649  18299363.1744   18299368.5564
  20492906.038   -17505947.39649  -9423316.19549  20492904.0884   20492912.5374
  17660693.217   -17285469.53449 -13455810.33949  17660692.9074   17660696.9444
  17249032.431   -37267388.11249 -29026537.68849  17249031.9344   17249036.0604
  17984556.875   -13326739.55149 -10170398.71149  17984555.8814   17984561.6444
  17032074.769   -26013017.74949 -20209407.01349  17032073.7814   17032079.4004
 97  1  8 19 32 59.9870000  0  7 22 19  3 29 18 14 16
  18497355.827   -16224181.04549 -12628828.89149  18497354.5384   18497359.5794
  18271727.640   -23616723.27049 -18378965.57149  18271726.8674   18271731.3524
  20463627.172   -17659808.94149  -9543208.26949  20463627.0764   20463633.5174
  17651871.790   -17331826.27149 -13491932.48649  17651871.1544   17651875.2634
  17221149.386   -37413914.54549 -29140714.12249  17221148.5074   17221152.5044
  17984160.838   -13328820.80249 -10172020.50449  17984160.0354   17984165.8684
  17021810.212   -26066958.16549 -20251438.52749  17021808.8274   17021814.8294
 97  1  8 19 33 29.9870000  0  7 22 19  3 29 18 14 16
  18495674.002   -16233019.27249 -12635715.83749  18495672.1634   18495677.3504
  18244137.583   -23761710.12649 -18491942.34749  18244136.7574   18244141.8914
  20434387.449   -17813464.55649  -9662939.86849  20434386.0994   20434393.3964
  17643108.620   -17377877.40249 -13527816.49149  17643107.8614   17643112.0304
  17193311.955   -37560201.19849 -29254703.72749  17193310.8294   17193314.8614
  17983831.987   -13330549.10449 -10173367.27949  17983831.1334   17983836.5994
  17011653.376   -26120332.54949 -20293028.98149  17011652.1884   17011657.8554
 97  1  8 19 33 59.9870000  0  7 22 19  3 29 18 14 16
  18494057.386   -16241514.46449 -12642335.47949  18494056.1314   18494061.0464
  18216579.677   -23906527.97249 -18604787.42249  18216578.9354   18216583.8144
  20405171.204   -17966996.34449  -9782574.94749  20405170.5144   20405178.6604
  17634392.836   -17423679.21449 -13563506.23849  17634392.2044   17634396.3324
  17165509.752   -37706302.32049 -29368548.75349  17165508.7964   17165512.6574
  17983561.177   -13331972.29449 -10174476.30149  17983560.7504   17983565.8764
  17001593.679   -26173196.51249 -20334221.70949  17001592.6224   17001598.5174
 97  1  8 19 34 29.9870000  0  7 22 19  3 29 18 14 16
  18492523.924   -16249572.53249 -12648614.49349  18492522.9334   18492527.8844
  18189072.415   -24051079.49049 -18717424.96249  18189071.2684   18189076.7494
  20375997.367   -18120306.34349  -9902037.23449  20375997.6204   20376003.5874
  17625743.976   -17469128.89449 -13598921.59149  17625743.7324   17625748.0484
  17137763.058   -37852112.04649 -29482166.71249  17137761.9244   17137766.2104
  17983369.689   -13332978.86349 -10175260.67549  17983369.0934   17983374.2484
  16991650.233   -26225449.50249 -20374938.33949  16991649.3464   16991654.9564
 97  1  8 19 34 59.9870000  0  7 22 19  3 29 18 14 16
  18491054.271   -16257295.83549 -12654632.65849  18491053.2004   18491058.6774
  18161596.079   -24195468.81649 -18829936.12649  18161595.3194   18161600.7824
  20346847.724   -18273489.15749 -10021400.37549  20346847.0314   20346853.5064
  17617145.671   -17514313.13949 -13634130.12549  17617145.7744   17617150.1024
  17110053.553   -37997726.20149 -29595632.28449  17110052.9774   17110057.1664
  17983239.832   -13333661.95749 -10175792.99349  17983239.7324   17983244.7924
  16981802.959   -26277197.61449 -20415261.56249  16981802.3634   16981807.8884
 97  1  8 19 35 29.9870000  0  7 22 19  3 29 18 14 16
  18489662.677   -16264608.76149 -12660331.04449  18489661.4444   18489666.3794
  18134165.806   -24339615.87649 -18942258.50049  18134165.5984   18134170.7254
  20317738.778   -18426458.09549 -10140596.88649  20317738.4124   20317745.5614
  17608616.619   -17559133.51949 -13669055.11749  17608616.0194   17608620.9594
  17082399.542   -38143048.77149 -29708870.64449  17082398.7114   17082402.9924
  17983186.560   -13333942.01149 -10176011.25049  17983186.1594   17983191.6484
  16972064.765   -26328372.41149 -20455138.04549  16972064.1444   16972069.5954
 97  1  8 19 35 59.9870000  0  7 22 19  3 29 18 14 16
  18488370.397   -16271399.82649 -12665622.78449  18488369.1584   18488373.8314
  18106803.722   -24483404.73449 -19054301.76249  18106803.1814   18106807.8524
  20288693.012   -18579094.90649 -10259534.58649  20288693.1404   20288698.6814
  17600178.714   -17603475.10949 -13703607.03549  17600178.4204   17600182.4174
  17054825.487   -38287951.15649 -29821781.58449  17054824.6714   17054828.9484
  17983227.770   -13333725.40449 -10175842.50249  17983226.9014   17983232.3134
  16962456.315   -26378865.51649 -20494483.33949  16962455.7964   16962460.9244
 97  1  8 19 36 29.9870000  0  7 22 19  3 29 18 14 16
  18487147.157   -16277828.07349 -12670631.81649  18487145.4954   18487150.7954
  18079480.101   -24626990.86349 -19166187.05249  18079479.7674   18079485.0004
  20259684.109   -18731538.70549 -10378321.89749  20259683.3034   20259690.0754
  17591800.823   -17647501.48849 -13737913.33249  17591800.8104   17591804.9374
  17027301.744   -38432589.70249 -29934486.93549  17027301.2054   17027305.5264
  17983329.920   -13333188.38549 -10175424.08749  17983328.9804   17983334.9894
  16952947.505   -26428835.15649 -20533420.73549  16952946.8294   16952952.3134
 97  1  8 19 36 59.9870000  0  7 22 19  3 29 18 14 16
  18486011.408   -16283796.52049 -12675282.56249  18486010.2114   18486014.8034
  18052213.732   -24770276.40649 -19277838.12149  18052213.3434   18052218.2244
  20230734.288   -18883671.35049 -10496866.72549  20230733.5454   20230740.3654
  17583504.809   -17691097.78649 -13771884.49149  17583504.4134   17583508.8074
  16999847.861   -38576861.36749 -30046906.41049  16999847.2614   16999851.4694
  17983512.703   -13332227.53249 -10174675.40849  17983512.3334   17983517.3894
  16943561.489   -26478159.53949 -20571855.34149  16943560.8374   16943566.3074
 97  1  8 19 37 29.9870000  0  7 22 19  3 29 18 14 16
  18484931.658   -16289470.80249 -12679704.09349  18484930.4194   18484935.1524
  18024971.221   -24913437.15749 -19389391.95149  18024970.9024   18024975.8484
  20201814.061   -19035648.17449 -10615290.14849  20201812.7764   20201819.9824
  17575258.304   -17734433.77649 -13805652.81749  17575257.9624   17575262.1734
  16972431.956   -38720933.09749 -30159170.08249  16972431.3004   16972435.2154
  17983744.942   -13331007.58449 -10173724.84349  17983744.4934   17983749.7004
  16934268.824   -26526993.04349 -20609907.44249  16934267.7504   16934273.6714
 97  1  8 19 37 59.9870000  0  7 22 19  3 29 18 14 16
  18483915.511   -16294810.37249 -12683864.81949  18483913.9434   18483919.0464
  17997757.301   -25056447.49349 -19500828.57649  17997756.8524   17997761.6524
  20172931.000   -19187429.06649 -10733560.89549  20172929.8114   20172936.9764
  17567064.143   -17777494.53049 -13839206.67049  17567063.7354   17567067.8134
  16945059.689   -38864775.40049 -30271254.98449  16945059.0504   16945063.3774
  17984034.329   -13329487.29049 -10172540.23349  17984033.7624   17984039.4594
  16925076.093   -26575300.84149 -20647549.90249  16925075.1844   16925080.8444
 97  1  8 19 38 29.9860000  0  7 22 19  3 29 18 14 16
  18482962.533   -16299818.29149 -12687767.12349  18482961.3524   18482966.2424
  17970574.498   -25199294.25049 -19612137.74249  17970573.7414   17970578.5904
  20144090.501   -19338986.54549 -10851657.54349  20144088.9674   20144096.4114
  17558923.975   -17820271.24549 -13872539.20349  17558923.3804   17558927.5744
  16917731.862   -39008383.92149 -30383157.71949  16917731.0194   16917735.3404
  17984383.067   -13327654.95649 -10171112.48449  17984382.6614   17984388.0064
  16915984.726   -26623076.38549 -20684777.62249  16915983.7984   16915989.5294
 97  1  8 19 38 59.9860000  0  7 22 19  3 29 18 14 16
  18482072.355   -16304495.87649 -12691412.01549  18482070.8794   18482076.0784
  17943420.467   -25341989.83449 -19723329.10649  17943419.8294   17943424.5264
  20115291.937   -19490322.94649 -10969581.93149  20115290.5744   20115298.0184
  17550836.747   -17862769.90249 -13905655.07349  17550836.2094   17550840.8194
  16890446.246   -39151770.69349 -30494887.66249  16890445.6184   16890449.6804
  17984793.157   -13325500.26049 -10169433.54549  17984793.0174   17984798.7444
  16906992.052   -26670333.31949 -20721601.21749  16906991.1344   16906996.8524
 97  1  8 19 39 29.9860000  0  7 22 19  3 29 18 14 16
  18481247.299   -16308831.91349 -12694790.77549  18481246.0004   18481250.3574
  17916298.434   -25484517.67249 -19834389.76249  17916297.8154   17916302.9394
  20086536.758   -19641431.97749 -11087329.15949  20086535.1714   20086542.2854
  17542801.240   -17904997.04349 -13938559.36349  17542801.1714   17542805.2154
  16863205.856   -39294919.96849 -30606432.54549  16863204.9464   16863209.4274
  17985263.087   -13323031.44549 -10167509.84549  17985262.7624   17985268.4914
  16898096.403   -26717080.54249 -20758027.63949  16898095.3924   16898100.9624
 97  1  8 19 39 59.9860000  0  7 22 19  3 29 18 14 16
  18480483.900   -16312844.19449 -12697917.26249  18480483.0884   18480488.1264
  17889211.195   -25626862.18849 -19945307.57149  17889210.3374   17889215.2254
  20057826.071   -19792307.15249 -11204894.15049  20057824.9474   20057831.8434
  17534818.809   -17946945.47549 -13971246.49049  17534818.5384   17534822.9684
  16836012.245   -39437823.23149 -30717785.72949  16836011.5224   16836015.8264
  17985791.157   -13320257.22749 -10165348.15749  17985790.5164   17985795.7674
  16889296.047   -26763326.91249 -20794063.78849  16889295.1944   16889300.6324
 97  1  8 19 40 29.9860000  0  7 22 19  3 29 18 14 16
  18479792.761   -16316476.93049 -12700747.99349  18479791.6764   18479796.7334
  17862171.907   -25768954.72749 -20056029.02749  17862171.5764   17862176.3194
  20029174.682   -19942871.15749 -11322216.68049  20029173.3624   20029179.7574
  17526905.887   -17988528.35249 -14003648.76849  17526905.3364   17526909.2394
  16808878.340   -39580412.91349 -30828894.56249  16808877.6664   16808881.8924
  17986388.402   -13317119.28149 -10162903.05249  17986387.8834   17986393.2554
  16880604.296   -26809002.65149 -20829655.29349  16880603.4314   16880608.9344
 97  1  8 19 40 59.9860000  0  7 22 19  3 29 18 14 16
  18479181.506   -16319689.50349 -12703251.33249  18479180.0404   18479184.9024
  17835186.657   -25910763.17749 -20166529.11549  17835185.7584   17835190.5674
  20000586.007   -20093105.05649 -11439281.98449  20000584.7634   20000591.4494
  17519066.978   -18029721.98849 -14035747.73149  17519066.2434   17519070.8454
  16781811.510   -39722650.00949 -30939728.65449  16781810.4844   16781814.5314
  17987059.782   -13313591.39949 -10160154.10249  17987059.0584   17987063.9924
  16872025.882   -26854082.47749 -20864782.45349  16872024.5404   16872030.0724
 97  1  8 19 41 29.9860000  0  8 22 19  3 29 18 14 31 16
  18478607.442   -16322705.94049 -12705601.83249  18478606.0874   18478611.2634
  17808214.997   -26052500.30949 -20276973.61149  17808214.6604   17808219.0164
  19972017.101   -20243235.06549 -11556266.31249  19972016.0114   19972022.4694
  17511262.822   -18070733.25349 -14067704.58649  17511262.6754   17511266.6114
  16754771.593   -39864745.75949 -31050452.60149  16754770.9734   16754775.0834
  17987761.383   -13309904.67349 -10157281.37949  17987761.0224   17987766.2474
  20543067.134    -5905078.92549  -4574951.92949  20543066.1714   20543072.8114
  16863520.085   -26898780.89849 -20899612.40549  16863519.2194   16863524.7554
 97  1  8 19 41 59.9860000  0  8 22 19  3 29 18 14 31 16
  18478093.280   -16325408.01749 -12707707.39849  18478091.3744   18478096.7644
  17781281.080   -26194039.00149 -20387263.48849  17781280.4064   17781285.1334
  19943493.644   -20393126.38149 -11673064.64849  19943491.8984   19943498.0434
  17503519.885   -18111423.42049 -14099411.23849  17503519.5164   17503523.0934
  16727784.008   -40006566.77749 -31160962.47749  16727782.9374   16727786.8334
  17988517.969   -13305929.15549 -10154183.62049  17988517.1894   17988522.7254
  20509185.025    -6083130.02449  -4713692.88449  20509182.9084   20509189.7304
  16855112.659   -26942962.10449 -20934039.34149  16855111.1794   16855116.9404
 97  1  8 19 42 29.9860000  0  8 22 19  3 29 18 14 31 16
  18477681.861   -16327570.42949 -12709392.42949  18477680.4184   18477685.6364
  17754421.850   -26335184.82249 -20497247.22949  17754421.4304   17754426.3314
  19915053.088   -20542581.89149 -11789523.41849  19915051.3974   19915058.8594
  17495876.566   -18151589.78449 -14130709.73449  17495876.1274   17495880.2634
  16700887.360   -40147909.65349 -31271099.77549  16700886.6374   16700890.9264
  17989369.252   -13301455.50249 -10150697.71149  17989369.0494   17989374.4164
  20475325.385    -6261063.48149  -4852342.19049  20475324.2884   20475330.9664
  16846844.069   -26986413.85649 -20967897.87049  16846843.2034   16846848.7694
 97  1  8 19 42 59.9860000  0  8 22 19  3 29 18 14 31 16
  18477316.677   -16329489.58049 -12710887.92049  18477315.2114   18477320.7564
  17727580.593   -26476236.98849 -20607157.97549  17727579.6624   17727584.7494
  19886636.574   -20691911.13749 -11905883.76149  19886635.5094   19886642.1104
  17488275.807   -18191532.14249 -14161833.68349  17488275.7294   17488279.9314
  16674023.572   -40289079.96249 -31381102.60749  16674023.0744   16674026.9964
  17990258.803   -13296780.44349 -10147054.85049  17990257.6944   17990264.0314
  20441435.549    -6439155.41349  -4991114.98249  20441434.6994   20441440.6544
  16838658.205   -27029430.94549 -21001417.69649  16838657.4004   16838663.1324
 97  1  8 19 43 29.9860000  0  8 22 19  3 29 18 14 31 16
  18477010.065   -16331100.59349 -12712143.28749  18477008.4334   18477013.7084
  17700772.842   -26617112.26949 -20716930.91049  17700771.8014   17700776.9674
  19858263.180   -20841013.72249 -12022067.52549  19858262.6714   19858268.9824
  17480735.279   -18231158.44949 -14192711.35349  17480735.1094   17480739.1254
  16647206.790   -40430002.92249 -31490912.69849  16647205.7094   16647210.3174
  17991202.228   -13291822.73849 -10143191.76349  17991201.5304   17991207.0624
  20407533.504    -6617311.12249  -5129937.46949  20407531.2004   20407539.0544
  16830573.148   -27071918.45549 -21034524.86749  16830571.8484   16830577.8544
 97  1  8 19 43 59.9860000  0  8 22 19  3 29 18 14 31 16
  18476852.207   -16331930.14949 -12712789.73249  18476851.1324   18476856.7774
  17674089.664   -26757333.42149 -20826194.11349  17674089.3134   17674093.8604
  19830024.270   -20989409.54949 -12137700.57349  19830023.7204   19830029.2534
  17473343.030   -18270005.32449 -14222981.68549  17473342.6174   17473347.1254
  16620526.482   -40570208.69649 -31600163.94749  16620525.8894   16620530.1144
  17992290.827   -13286102.53449 -10138734.52349  17992290.1074   17992295.7664
  20373711.809    -6795044.69549  -5268431.04849  20373710.3544   20373716.6914
  16822677.924   -27113408.03249 -21066854.43149  16822677.0834   16822682.8384
 97  1  8 19 44 29.9860000  0  8 22 19  3 29 18 14 31 16
  18476788.470   -16332265.13049 -12713050.80249  18476787.1864   18476792.3404
  17647479.196   -26897172.55849 -20935159.65349  17647478.3254   17647483.2714
  19801866.795   -21137377.85849 -12253000.47149  19801865.1744   19801872.4294
  17466045.521   -18308353.97849 -14252863.78449  17466044.9194   17466048.7284
  16593928.767   -40709980.54449 -31709077.06749  16593927.9134   16593932.1054
  17993472.875   -13279891.23449 -10133894.60049  17993472.5484   17993477.6514
  20339920.433    -6972619.40649  -5406800.82149  20339918.4374   20339924.5664
  16814919.255   -27154180.32349 -21098625.06749  16814917.9754   16814923.5634
 97  1  8 19 44 59.9860000  0  8 22 19  3 29 18 14 31 16
  18476784.090   -16332288.11449 -12713068.72749  18476781.7604   18476787.8524
  17620914.597   -27036769.87949 -21043936.75549  17620913.4754   17620918.4134
  19773762.310   -21285067.16849 -12368082.99549  19773760.4404   19773767.2494
  17458811.706   -18346367.54749 -14282484.77949  17458811.0174   17458815.1294
  16567386.020   -40849463.34049 -31817764.94449  16567384.9784   16567389.1724
  17994717.107   -13273352.42449 -10128799.47849  17994715.9374   17994722.3904
  20306131.238    -7150181.83949  -5545161.03849  20306129.0694   20306136.1744
  16807265.751   -27194399.29549 -21129964.53849  16807264.5434   16807270.2764
 97  1  8 19 45 29.9860000  0  9 22 19  3 27 29 18 14 31 16
  18476780.023   -16332309.30749 -12713085.28449  18476778.9724   18476784.8384
  17594338.095   -27176430.28249 -21152763.01649  17594337.0844   17594342.4624
  19745653.731   -21432778.67249 -12483182.80449  19745652.9494   19745659.3954
  20587516.140                                    20587502.249    20587519.2894
  17451579.794   -18384371.27249 -14312098.10649  17451579.5434   17451583.6964
  16540842.978   -40988947.77649 -31926454.09749  16540842.2234   16540846.7724
  17995964.237   -13266799.08349 -10123693.02049  17995963.6744   17995969.3754
  20272283.296    -7328052.65349  -5683761.56049  20272281.8114   20272289.8764
  16799655.715   -27234390.29149 -21161126.36149  16799654.9114   16799660.6294
 97  1  8 19 45 59.9860000  0  9 22 19  3 27 29 18 14 31 16
  18476811.530   -16332143.73949 -12712956.30949  18476810.1214   18476816.0394
  17567779.732   -27315995.24049 -21261514.90249  17567778.6804   17567783.9064
  19717571.327   -21580352.91549 -12598175.67249  19717571.5994   19717576.8644
  20555918.591     -423504.56159                  20555919.263    20555922.5644
  17444381.390   -18422198.85649 -14341574.18749  17444380.8964   17444385.7474
  16514333.618   -41128255.38949 -32035005.47249  16514332.8954   16514337.3104
  17997246.277   -13260062.29649 -10118443.62749  17997245.8564   17997251.3644
  20238408.637    -7506063.85149  -5822471.46249  20238407.7224   20238414.3304
  16792119.319   -27273994.57149 -21191986.85449  16792118.5784   16792124.1564
 97  1  8 19 46 29.9860000  0  9 22 19  3 27 29 18 14 31 16
  18476897.617   -16331690.91949 -12712603.49849  18476895.9814   18476901.4784
  17541255.222   -27455382.23449 -21370128.11749  17541253.8834   17541258.6114
  19689534.974   -21727685.05249 -12712979.89649  19689533.6004   19689540.0534
  20524323.869     -733305.71159   -552880.56349  20524321.5884   20524327.1734
  17437234.971   -18459753.54149 -14370837.61349  17437234.0244   17437238.8644
  16487877.558   -41267282.84949 -32143338.54349  16487876.5714   16487880.9284
  17998577.942   -13253064.53949 -10112990.88049  17998577.5944   17998583.1554
  20204524.912    -7684124.71949  -5961220.08149  20204523.9494   20204529.9844
  16784673.948   -27313120.52549 -21222474.62149  16784672.7834   16784678.4944
 97  1  8 19 46 59.9860000  0  9 22 19  3 27 29 18 14 31 16
  18477039.429   -16330945.65849 -12712022.80149  18477038.2634   18477043.8404
  17514759.709   -27594616.79549 -21478622.55449  17514758.9754   17514763.5654
  19661543.757   -21874779.31049 -12827598.77349  19661543.9264   19661548.8234
  20492728.144     -899339.81449   -682257.80949  20492725.8914   20492732.4704
  17430135.582   -18497061.13049 -14399908.48549  17430135.0894   17430139.5794
  16461472.135   -41406044.29249 -32251464.33349  16461471.2414   16461475.7634
  17999954.656   -13245830.19549 -10107353.78049  17999954.2714   17999959.8404
  20170625.630    -7862266.35949  -6100031.65249  20170624.7974   20170631.3134
  16777313.746   -27351798.68349 -21252613.45949  16777312.7284   16777318.5574
 97  1  8 19 47 29.9850000  0  9 22 19  3 27 29 18 14 31 16
  18477263.276   -16329769.36949 -12711106.24549  18477261.8784   18477267.5154
  17488313.953   -27733589.94649 -21586913.30449  17488313.2634   17488318.3854
  19633623.681   -22021500.31549 -12941926.81049  19633623.1164   19633629.2454
  20461157.724    -1065241.30949   -811531.71949  20461156.2764   20461161.6924
  17423109.125   -18533985.61149 -14428680.83849  17423108.7034   17423113.5084
  16435139.130   -41544425.25149 -32359293.64149  16435138.2814   16435143.1194
  18001397.921   -13238246.21949 -10101444.23849  18001397.5924   18001403.7874
  20136735.527    -8040359.34549  -6238805.30749  20136733.9794   20136741.0044
  16770061.836   -27389907.72549 -21282308.83449  16770060.6294   16770066.9544
 97  1  8 19 47 59.9850000  0  9 22 19  3 27 29 18 14 31 16
  18477550.974   -16328257.43549 -12709928.14249  18477549.7684   18477554.6874
  17461902.628   -27872382.00849 -21695062.94649  17461901.4274   17461906.5634
  19605759.792   -22167925.81949 -13056024.61649  19605757.3174   19605765.3264
  20429600.575    -1231073.50549   -940751.63649  20429599.7024   20429603.7944
  17416143.237   -18570591.67449 -14457205.06849  17416142.1864   17416146.9934
  16408861.684   -41682514.17549 -32466895.39649  16408860.6324   16408865.3184
  18002890.390   -13230403.55549 -10095333.13049  18002889.7194   18002895.1964
  20102838.356    -8218489.78949  -6377608.17349  20102836.6564   20102843.7564
  16762903.437   -27427525.19649 -21311621.16949  16762902.2144   16762908.0354
 97  1  8 19 48 29.9850000  0  9 22 19  3 27 29 18 14 31 16
  18477892.875   -16326460.64849 -12708528.06949  18477891.3824   18477896.8284
  17435524.703   -28010998.44949 -21803075.73549  17435523.7684   17435528.9634
  19577948.832   -22314073.28449 -13169905.74949  19577947.9094   19577954.0624
  20398055.145    -1396845.51649  -1069924.65549  20398054.2814   20398058.9374
  17409233.758   -18606900.91849 -14485498.02149  17409233.0794   17409238.4014
  16382633.401   -41820344.58649 -32574295.71249  16382632.6294   16382636.8804
  18004425.840   -13222334.90949 -10089045.91149  18004424.8064   18004431.1494
  20068929.258    -8396683.39449  -6516460.25549  20068928.2704   20068934.3524
  16755833.070   -27464679.94649 -21340572.94249  16755831.8494   16755837.6034
 97  1  8 19 48 59.9850000  0  9 22 19  3 27 29 18 14 31 16
  18478267.785   -16324490.62349 -12706992.99949  18478266.3924   18478271.6644
  17409164.014   -28149524.71449 -21911018.26449  17409163.2574   17409168.4584
  19550171.273   -22460044.85349 -13283649.81749  19550170.5194   19550177.0494
  20366505.224    -1562641.12449  -1199115.98749  20366503.4634   20366509.3894
  17402366.202   -18642989.94249 -14513619.36649  17402365.8834   17402370.9224
  16356435.380   -41958015.94349 -32681572.08849  16356435.0864   16356439.3654
  18005990.461   -13214112.68649 -10082639.03349  18005989.6934   18005995.7554
  20034992.630    -8575021.39049  -6655424.86049  20034991.6444   20034998.0514
  16748833.827   -27501461.30649 -21369233.75949  16748832.9244   16748839.0454
 97  1  8 19 49 29.9850000  0  9 22 19  3 27 29 18 14 31 16
  18478705.544   -16322190.83449 -12705200.96649  18478704.9594   18478710.1074
  17382854.777   -28287781.01049 -22018750.42349  17382854.4304   17382859.5254
  19522459.242   -22605672.38349 -13397125.82149  19522458.8734   19522465.8214
  20334982.706    -1728293.14349  -1328195.47149  20334981.6354   20334985.8954
  17395575.479   -18678675.61349 -14541426.42949  17395575.4044   17395579.8054
  16330301.755   -42095349.52849 -32788585.26949  16330301.0084   16330305.4094
  18007617.455   -13205563.32349 -10075977.24649  18007616.4874   18007623.1874
  20001064.613    -8753314.17049  -6794354.22349  20001063.8924   20001070.2324
  16741940.507   -27537686.19149 -21397460.96349  16741939.7664   16741945.7114
 97  1  8 19 49 59.9850000  0  9 22 19  3 27 29 18 14 31 16
  18479198.890   -16319599.25349 -12703181.55849  18479197.1284   18479202.6664
  17356593.208   -28425787.15449 -22126287.66849  17356592.2514   17356597.1794
  19494805.772   -22750992.52849 -13510362.31249  19494804.0084   19494811.3064
  20303480.661    -1893838.12349  -1457191.50549  20303478.5144   20303485.2274
  17388853.482   -18714000.44349 -14568952.30649  17388852.9184   17388857.5054
  16304228.890   -42232363.54649 -32895349.43349  16304227.9384   16304232.3624
  18009303.320   -13196704.93849 -10069074.66349  18009302.4894   18009308.4414
  19967137.469    -8931602.94449  -6933280.47949  19967136.6194   19967142.7584
  16735147.265   -27573385.46349 -21425278.59749  16735145.6304   16735151.7004
 97  1  8 19 50 29.9850000  0  9 22 19  3 27 29 18 14 31 16
  18479751.415   -16316695.51149 -12700918.92249  18479749.8254   18479755.3684
  17330377.285   -28563552.74149 -22233637.46049  17330376.3604   17330381.4544
  19467210.189   -22896008.19149 -13623361.54649  19467209.0424   19467215.5044
  20271999.115    -2059274.58649  -1586102.99749  20271998.2084   20272002.2734
  17382198.744   -18748970.67549 -14596201.87449  17382197.9754   17382203.0114
  16278218.279   -42369049.86549 -33001858.24349  16278217.2254   16278221.8294
  18011051.567   -13187517.99549 -10061916.06049  18011050.9994   18011056.8804
  19933214.716    -9109867.33049  -7072187.72549  19933213.0044   19933220.3334
  16728455.461   -27608550.60949 -21452680.03449  16728454.1724   16728460.2324
 97  1  8 19 50 59.9850000  0  9 22 19  3 27 29 18 14 31 16
  18480364.729   -16313472.39549 -12698407.40249  18480363.3514   18480369.3024
  17304201.557   -28701107.35849 -22340822.85249  17304200.3714   17304205.4734
  19439671.164   -23040726.53849 -13736129.12249  19439670.4064   19439677.3234
  20240535.222    -2224618.44949  -1714942.33349  20240533.6404   20240539.8284
  17375608.220   -18783603.94049 -14623188.86849  17375607.5174   17375612.4654
  16252271.356   -42505401.68649 -33108106.40449  16252270.4274   16252274.8794
  18012857.972   -13178025.33749 -10054519.23549  18012857.7884   18012862.6844
  19899297.168    -9288104.62849  -7211073.87249  19899296.2544   19899301.9064
  16721863.182   -27643193.00449 -21479674.13049  16721861.8564   16721867.9534
 97  1  8 19 51 29.9850000  0  9 22 19  3 27 29 18 14 31 16
  18481044.048   -16309902.79549 -12695625.90949  18481042.5304   18481048.0354
  17278067.348   -28838443.39349 -22447837.92649  17278066.3244   17278071.1534
  19412193.354   -23185123.22949 -13848646.06449  19412192.2694   19412198.0944
  20209091.299    -2389857.86849  -1843700.27349  20209091.1674   20209094.1894
  17369079.274   -18817913.58949 -14649923.68149  17369078.4274   17369083.4494
  16226393.807   -42641388.81249 -33214070.39249  16226392.7924   16226397.1124
  18014720.597   -13168237.37449 -10046892.30049  18014720.6084   18014725.7804
  19865385.428    -9466311.84349  -7349936.60349  19865383.6414   19865390.1274
  16715371.883   -27677304.96949 -21506254.89949  16715370.4804   16715376.5584
 97  1  8 19 51 59.9850000  0  9 22 19  3 27 29 18 14 31 16
  18481786.227   -16306002.89249 -12692587.02449  18481784.6674   18481790.4024
  17251972.798   -28975570.79549 -22554690.42849  17251971.6694   17251976.5984
  19384777.364   -23329195.14849 -13960909.95449  19384777.6884   19384783.7934
  20177668.052    -2554988.92549  -1972373.78149  20177667.3724   20177673.4174
  17362610.796   -18851905.79549 -14676411.14449  17362610.4954   17362615.1874
  16200584.507   -42777017.38649 -33319754.98449  16200583.5994   16200588.0404
  18016637.153   -13158165.50949 -10039044.15549  18016636.3724   18016641.8304
  19831478.450    -9644493.93549  -7488779.75249  19831477.5944   19831483.1064
  16708980.161   -27710893.61549 -21532427.88749  16708978.8154   16708984.8584
 97  1  8 19 52 29.9850000  0  9 22 19  3 27 29 18 14 31 16
  18482588.962   -16301784.71649 -12689300.14149  18482587.7214   18482593.3734
  17225912.391   -29112518.72549 -22661403.08249  17225911.4304   17225916.7234
  19357423.245   -23472942.20049 -14072920.70749  19357422.9154   19357429.3954
  20146264.154    -2720016.34249  -2100966.51849  20146262.6434   20146267.7794
  17356202.126   -18885583.82649 -14702653.79549  17356202.3114   17356206.8094
  16174840.338   -42912303.50849 -33425172.73349  16174839.7014   16174844.2494
  18018603.168   -13147834.03049 -10030993.71349  18018602.9814   18018607.3834
  19797578.524    -9822639.82849  -7627594.70249  19797577.2124   19797583.5084
  16702685.643   -27743971.56949 -21558202.93849  16702684.8524   16702691.0054
 97  1  8 19 52 59.9850000  0  9 22 19  3 27 29 18 14 31 16
  18483450.554   -16297257.68449 -12685772.59249  18483449.0544   18483454.5504
  17199886.225   -29249286.97549 -22767975.72749  17199885.4574   17199890.4404
  19330133.932   -23616348.57149 -14184666.00349  19330133.3474   19330140.5134
  20114879.569    -2884942.13249  -2229480.09049  20114875.9614   20114883.6804
  17349854.351   -18918942.37849 -14728647.50049  17349854.0864   17349858.5784
  16149161.231   -43047248.19649 -33530324.42749  16149160.0794   16149164.9364
  18020617.042   -13137251.32149 -10022747.50749  18020615.9374   18020621.6034
  19763683.242   -10000760.98649  -7766390.38749  19763681.9584   19763688.7974
  16696487.124   -27776545.54549 -21583585.27749  16696485.9834   16696492.0684
 97  1  8 19 53 29.9850000  0  9 22 19  3 27 29 18 14 31 16
  18484365.303   -16292450.07649 -12682026.41749  18484363.5414   18484369.5404
  17173896.917   -29385861.38249 -22874397.32149  17173895.8794   17173901.1424
  19302909.401   -23759414.63949 -14296146.12549  19302909.0744   19302916.4154
  20083514.352    -3049765.84649  -2357914.11849  20083513.4734   20083520.3014
  17343566.688   -18951984.53049 -14754394.66949  17343566.3894   17343570.6714
  16123543.862   -43181868.02149 -33635222.98849  16123542.7544   16123547.5664
  18022680.699   -13126406.43149 -10014297.00249  18022680.6084   18022685.8274
  19729793.203   -10178853.96749  -7905164.12249  19729792.1294   19729798.3714
  16690383.527   -27808620.15949 -21608578.50149  16690382.4194   16690388.3684
 97  1  8 19 53 59.9850000  0  9 22 19  3 27 29 18 14 31 16
  18485327.510   -16287393.87449 -12678086.52749  18485326.6254   18485331.5314
  17147944.583   -29522241.26949 -22980667.34049  17147943.6864   17147948.7964
  19275747.562   -23902151.82649 -14407369.95249  19275747.0984   19275753.4354
  20052166.155    -3214501.33049  -2486279.41349  20052163.9064   20052171.6724
  17337340.340   -18984704.17049 -14779890.52649  17337339.6404   17337344.5104
  16097983.615   -43316187.67749 -33739887.65249  16097982.7484   16097987.1534
  18024792.370   -13115309.47049 -10005650.08049  18024791.7464   18024797.2984
  19695908.568   -10356918.40449  -8043915.62749  19695908.1764   19695913.5944
  16684371.781   -27840212.27349 -21633195.75349  16684370.7404   16684376.4384
 97  1  8 19 54 29.9850000  0  9 22 19  3 27 29 18 14 31 16
  18486340.723   -16282069.43349 -12673937.62649  18486339.3244   18486345.1734
  17122032.094   -29658412.08749 -23086774.45649  17122031.4244   17122036.4944
  19248649.452   -24044553.52449 -14518332.35849  19248648.7084   19248656.6024
  20020835.415    -3379145.02849  -2614573.18949  20020834.2154   20020839.7954
  17331177.069   -19017092.39049 -14805128.14449  17331176.8364   17331181.1764
  16072482.998   -43450194.33749 -33844308.41649  16072482.0724   16072486.5394
  18026952.211   -13103959.67849  -9996806.13049  18026951.7214   18026957.4674
  19662032.024   -10534940.73149  -8182634.31449  19662030.7894   19662037.5204
  16678452.857   -27871316.32349 -21657432.69049  16678451.8184   16678457.4584
 97  1  8 19 54 59.9850000  0  9 22 19  3 27 29 18 14 31 16
  18487401.453   -16276495.63849 -12669594.41849  18487400.3794   18487406.0944
  17096164.265   -29794348.56549 -23192698.96349  17096163.7424   17096168.8034
  19221614.052   -24186625.47349 -14629037.82649  19221613.5144   19221620.4744
  19989518.579    -3543715.84449  -2742810.16749  19989517.1454   19989522.0274
  17325075.539   -19049156.63949 -14830113.31849  17325075.7304   17325079.7594
  16047043.063   -43583882.34549 -33948480.88549  16047042.3444   16047046.8514
  18029158.348   -13092366.66949  -9987772.67249  18029157.1444   18029163.2204
  19628161.666   -10712930.56449  -8321327.70249  19628161.0774   19628166.2584
  16672626.661   -27901933.12849 -21681289.95749  16672625.5624   16672631.4834
 97  1  8 19 55 29.9850000  0  9 22 19  3 27 29 18 14 31 16
  18488495.861   -16270744.54449 -12665113.07049  18488494.5924   18488500.0954
  17070331.427   -29930101.40549 -23298480.38349  17070331.1964   17070335.6834
  19194627.847   -24328439.45949 -14739542.25549  19194627.2764   19194633.7094
  19958201.708    -3708286.60249  -2871047.12749  19958199.6564   19958206.1964
  17319024.100   -19080957.21849 -14854893.02949  17319023.1604   17319028.5544
  16021652.917   -43717308.54549 -34052449.34749  16021652.2614   16021656.5204
  18031396.730   -13080604.38349  -9978607.31249  18031395.6054   18031402.5124
  19594286.590   -10890945.44849  -8460040.60349  19594285.4284   19594292.0714
  16666881.600   -27932123.70549 -21704815.09849  16666880.3694   16666886.7444
 97  1  8 19 55 59.9840000  0  9 22 19  3 27 29 18 14 31 16
  18489636.440   -16264750.50649 -12660442.40949  18489635.0624   18489641.3664
  17044542.277   -30065624.40949 -23404082.71249  17044541.5494   17044546.6664
  19167704.214   -24469924.30149 -14849790.19249  19167702.9454   19167711.0624
  19926895.427    -3872800.45949  -2999239.75149  19926893.1694   19926900.4784
  17313035.997   -19112424.68849 -14879413.17949  17313035.8854   17313040.1384
  15996328.179   -43850390.98349 -34156149.94449  15996327.2934   15996331.5664
  18033675.324   -13068630.23849  -9969276.86249  18033674.3274   18033681.5154
  19560416.501   -11068934.10049  -8598733.05249  19560415.0564   19560422.0374
  16661229.066   -27961827.88849 -21727961.22749  16661227.9924   16661234.1024
 97  1  8 19 56 29.9840000  0  9 22 19  3 27 29 18 14 31 16
  18490840.391   -16258423.71249 -12655512.45649  18490838.6394   18490844.9014
  17018809.237   -30200852.71449 -23509455.41149  17018808.5944   17018813.5184
  19140859.444   -24610994.54949 -14959715.06149  19140859.0794   19140864.9764
  19895613.237    -4037188.51649  -3127334.37549  19895610.5754   19895617.3244
  17307128.787   -19143467.72349 -14903602.59549  17307128.3544   17307133.6144
  15971086.183   -43983038.53449 -34259511.66749  15971085.5784   15971089.7194
  18036010.928   -13056356.86049  -9959713.25249  18036010.3704   18036015.8034
  19526567.168   -11246813.37349  -8737340.27349  19526565.4604   19526573.0924
  16655686.739   -27990952.90449 -21750656.06949  16655685.8194   16655691.7874
 97  1  8 19 56 59.9840000  0  9 22 19  3 27 29 18 14 31 16
  18492107.090   -16251767.00049 -12650325.44249  18492106.1014   18492111.1804
  16993133.712   -30335778.76149 -23614592.58749  16993133.1094   16993138.0194
  19114096.223   -24751636.38149 -15069306.07949  19114095.4374   19114102.2544
  19864357.057    -4201440.26949  -3255322.77749  19864355.2334   19864361.5494
  17301303.078   -19174082.08449 -14927457.98049  17301302.5774   17301306.8604
  15945927.839   -44115246.86449 -34362531.14249  15945926.9944   15945931.2784
  18038406.069   -13043771.00749  -9949906.15949  18038405.1124   18038411.3844
  19492740.587   -11424573.14949  -8875854.38449  19492739.0684   19492746.1644
  16650254.253   -28019500.89849 -21772901.28049  16650253.1304   16650259.4844
 97  1  8 19 57 29.9840000  0  9 22 19  3 27 29 18 14 31 16
  18493417.102   -16244882.68949 -12644961.05849  18493415.1454   18493421.5964
  16967488.852   -30470543.69449 -23719604.20549  16967488.2624   16967492.5164
  19087394.242   -24891956.06249 -15178646.05449  19087393.5824   19087400.1794
  19833107.824    -4365653.73949  -3383281.33649  19833104.7174   19833112.0684
  17295536.545   -19204385.27749 -14951070.89649  17295536.0104   17295540.3734
  15920828.265   -44247145.95849 -34465309.65049  15920827.1414   15920831.3774
  18040839.638   -13030982.66849  -9939941.27749  18040839.3374   18040844.3694
  19458915.307   -11602326.17149  -9014363.23249  19458914.7744   19458920.7074
  16644909.552   -28047587.78049 -21794787.18549  16644908.7294   16644914.6524
 97  1  8 19 57 59.9840000  0  9 22 19  3 27 29 18 14 31 16
  18494803.841   -16237595.26649 -12639282.56849  18494802.4054   18494808.0834
  16941900.592   -30605011.20749 -23824384.07849  16941899.8074   16941904.5014
  19060784.424   -25031791.54049 -15287608.71649  19060783.0444   19060790.6484
  19801897.742    -4529661.87949  -3511079.89449  19801895.9334   19801903.4044
  17289856.478   -19234234.36349 -14974329.95549  17289856.0824   17289860.8654
  15895814.608   -44378593.35849 -34567736.18549  15895813.7774   15895818.0074
  18043339.994   -13017843.34749  -9929702.89749  18043339.3064   18043345.6294
  19425122.287   -11779909.64749  -9152739.96649  19425120.9994   19425127.8264
  16639681.337   -28075062.41649 -21816196.01049  16639680.4094   16639686.3704
 97  1  8 19 58 29.9840000  0  9 22 19  3 27 29 18 14 31 16
  18496246.302   -16230015.17949 -12633376.02649  18496244.4064   18496250.7924
  16916349.375   -30739283.54749 -23929011.87249  16916348.4664   16916353.0624
  19034244.534   -25171260.18549 -15396285.53849  19034244.0374   19034250.5734
  19770707.811    -4693565.42149  -3638796.95149  19770706.7254   19770713.6584
  17284238.122   -19263759.72049 -14997336.77149  17284237.6114   17284242.1444
  15870863.310   -44509713.49849 -34669907.71849  15870862.5904   15870866.8154
  18045888.551   -13004450.93149  -9919267.31149  18045888.2914   18045893.4714
  19391343.849   -11957416.30549  -9291056.81849  19391342.9334   19391348.4794
  16634547.935   -28102039.07849 -21837216.81149  16634547.0334   16634552.9684
 97  1  8 19 58 59.9840000  0  9 22 19  3 27 29 18 14 31 16
  18497739.924   -16222166.23049 -12627259.98549  18497739.5314   18497744.5904
  16890831.937   -30873378.40749 -24033501.37049  16890830.8514   16890835.4914
  19007768.470   -25310393.13949 -15504700.76049  19007767.8664   19007773.8414
  19739534.713    -4857381.97149  -3766446.22749  19739534.8144   19739541.1624
  17278672.691   -19293006.87649 -15020126.79149  17278672.3244   17278676.8224
  15845968.915   -44640534.48649 -34771846.13949  15845967.8254   15845972.3814
  18048480.295   -12990831.53849  -9908654.85749  18048480.5674   18048485.1264
  19357572.587   -12134886.04649  -9429344.91749  19357571.3124   19357577.4894
  16629503.666   -28128547.56549 -21857872.79749  16629502.6054   16629508.6304
 97  1  8 19 59 29.9840000  0  9 22 19  3 27 29 18 14 31 16
  18499286.578   -16214038.78349 -12620926.92549  18499285.5314   18499290.5384
  16865348.223   -31007296.09649 -24137852.81049  16865347.4134   16865352.3834
  18981356.801   -25449187.73249 -15612852.30949  18981355.9114   18981362.0784
  19708380.428    -5021100.52549  -3894019.14649  19708380.4424   19708386.8044
  17273160.782   -19321972.42149 -15042697.37949  17273160.4904   17273165.5624
  15821134.354   -44771041.03849 -34873539.54949  15821133.7074   15821138.0124
  18051113.935   -12976992.38849  -9897871.15649  18051113.6144   18051119.6114
  19323808.974   -12312315.11049  -9567601.32149  19323808.1764   19323815.1104
  16624549.146   -28154584.00849 -21878160.95249  16624548.2654   16624554.3644
 97  1  8 19 59 59.9840000  0  9 22 19  3 27 29 18 14 31 16
  18500908.386   -16205516.08549 -12614285.87149  18500907.1394   18500912.8044
  16839926.206   -31140889.50149 -24241951.55849  16839925.1624   16839930.3844
  18955033.446   -25587518.17749 -15720642.19849  18955032.5744   18955038.8434
  19677267.899    -5184599.91049  -4021421.28649  19677268.6104   19677273.2544
  17267729.979   -19350511.64449 -15064935.77649  17267729.2404   17267733.7984
  15796389.082   -44901078.30549 -34974867.28149  15796388.0884   15796392.7084
  18053815.760   -12962794.67849  -9886808.05449  18053815.4044   18053821.5964
  19290079.254   -12489565.99349  -9705718.87549  19290077.9274   19290084.3364
  16619706.613   -28180031.78449 -21897990.40749  16619705.7174   16619711.5344
 97  1  8 20  0 29.9840000  0  9 22 19  3 27 29 18 14 31 16
  18502580.771   -16196727.81749 -12607437.88549  18502579.5614   18502584.9164
  16814552.041   -31274230.92749 -24345853.96049  16814550.9394   16814556.4684
  18928781.153   -25725474.50349 -15828140.56849  18928779.6894   18928786.7534
  19646177.949    -5347980.88849  -4148731.16349  19646178.6044   19646183.6064
  17262365.853   -19378700.14249 -15086900.88449  17262365.2334   17262370.0584
  15771718.439   -45030723.45449 -35075889.47049  15771717.6274   15771721.8224
  18056570.752   -12948317.55149  -9875527.22849  18056569.7474   18056576.0754
  19256366.768   -12666726.76649  -9843766.22249  19256365.6654   19256371.9804
  16614956.996   -28204991.33249 -21917439.42749  16614955.9254   16614962.0594
 97  1  8 20  0 59.9840000  0  9 22 19  3 27 29 18 14 31 16
  18504271.561   -16187842.65749 -12600514.38849  18504270.1504   18504275.3044
  16789192.900   -31407493.70249 -24449695.06749  16789191.9144   16789197.1214
  18902567.941   -25863224.47349 -15935478.13649  18902566.4964   18902573.7484
  19615076.239    -5511423.71249  -4276089.20349  19615075.8864   19615080.6404
  17257038.642   -19406694.81149 -15108714.94749  17257038.0414   17257043.5734
  15747092.499   -45160133.64449 -35176728.56449  15747091.7154   15747095.7934
  18059341.673   -12933756.37949  -9864180.92849  18059341.8984   18059346.5194
  19222637.281   -12843976.57549  -9981882.95349  19222636.0164   19222642.3044
  16610265.361   -28229646.06749 -21936650.92949  16610264.3534   16610270.3074
 97  1  8 20  1 29.9840000  0  9 22 19  3 27 29 18 14 31 16
  18505999.572   -16178762.10049 -12593438.64749  18505998.1244   18506003.9244
  16763868.067   -31540576.03149 -24553395.56749  16763866.8864   16763872.2584
  18876417.245   -26000646.63449 -16042560.26849  18876416.5594   18876423.7194
  19583982.481    -5674823.60649  -4403413.80649  19583982.6714   19583987.4804
  17251770.708   -19434378.16149 -15130286.42849  17251770.3584   17251775.2204
  15722533.992   -45289189.63549 -35277291.65549  15722533.4074   15722537.6584
  18062148.825   -12919004.83849  -9852686.26049  18062148.3454   18062154.3884
  19188917.308   -13021175.85049 -10119960.30849  19188916.5894   19188923.1464
  16605651.175   -28253893.90349 -21955545.35949  16605650.1284   16605656.4404
 97  1  8 20  1 59.9840000  0  9 22 19  3 27 29 18 14 31 16
  18507763.045   -16169495.07249 -12586217.59849  18507761.5334   18507767.4914
  16738580.859   -31673460.74049 -24656942.07149  16738579.7824   16738584.9984
  18850332.736   -26137721.45349 -16149371.75149  18850332.0974   18850339.0594
  19552898.499    -5838172.14349  -4530698.37549  19552898.0904   19552902.7884
  17246563.981   -19461739.72649 -15151607.16449  17246563.3234   17246568.1474
  15698045.959   -45417875.27149 -35377566.15749  15698044.9504   15698049.2974
  18064995.498   -12904045.81749  -9841029.94349  18064994.9944   18065000.6034
  19155211.672   -13198300.37949 -10257979.42749  19155210.8634   19155216.8994
  16601117.916   -28277716.42249 -21974108.38449  16601116.7564   16601122.8684
 97  1  8 20  2 29.9840000  0  9 22 19  3 27 29 18 14 31 16
  18509577.823   -16159958.50649 -12578786.51649  18509576.5074   18509582.2894
  16713344.989   -31806075.49049 -24760278.21249  16713343.6134   16713349.3824
  18824330.101   -26274365.92349 -16255847.90749  18824328.4594   18824335.1634
  19521840.345    -6001384.04549  -4657876.45449  19521839.5924   19521844.5414
  17241430.226   -19488717.79349 -15172629.07249  17241429.6474   17241434.2754
  15673640.803   -45546125.07949 -35477501.04949  15673639.8654   15673643.9104
  18067891.979   -12888824.89849  -9829169.53049  18067891.2594   18067896.9314
  19121535.623   -13375269.05049 -10395877.08649  19121534.4274   19121540.6414
  16596680.726   -28301034.12449 -21992278.04849  16596679.3184   16596685.9284
 97  1  8 20  2 59.9840000  0  9 22 19  3 27 29 18 14 31 16
  18511430.541   -16150222.20249 -12571199.79549  18511429.6144   18511434.7604
  16688141.105   -31938522.49449 -24863483.64249  16688139.9714   16688145.5474
  18798393.749   -26410662.93549 -16362053.29549  18798393.0234   18798398.6664
  19490792.718    -6164540.22249  -4785011.09549  19490790.4474   19490796.6374
  17236350.721   -19515411.08349 -15193429.07449  17236350.7434   17236355.4424
  15649300.589   -45674033.69049 -35577170.07549  15649299.6854   15649304.3004
  18070819.762   -12873439.37849  -9817180.86749  18070819.1224   18070824.6084
  19087872.927   -13552167.74549 -10533720.23949  19087871.6614   19087878.7724
  16592324.180   -28323928.37849 -22010117.75549  16592323.2144   16592329.2874
 97  1  8 20  3 29.9840000  0  9 22 19  3 27 29 18 14 31 16
  18513334.323   -16140217.97649 -12563404.29749  18513333.2664   18513338.8434
  16662984.416   -32070721.32149 -24966495.67949  16662983.2474   16662988.7694
  18772540.434   -26546523.94249 -16467918.96249  18772540.0014   18772546.3134
  19459770.657    -6327560.18149  -4912039.58849  19459768.1934   19459774.0894
  17231340.146   -19541741.99549 -15213946.70049  17231339.3524   17231345.1054
  15625037.703   -45801536.05449 -35676522.54549  15625036.7024   15625041.3504
  18073795.648   -12857801.38549  -9804995.46949  18073795.0424   18073801.1244
  19054238.654   -13728917.04949 -10671446.97649  19054237.8864   19054244.5204
  16588062.971   -28346321.36349 -22027566.85449  16588061.7544   16588068.2534
 97  1  8 20  3 59.9840000  0  9 22 19  3 27 29 18 14 31 16
  18515294.947   -16129914.87949 -12555375.91849  18515293.2194   18515298.8204
  16637879.677   -32202647.03649 -25069294.90049  16637878.5964   16637884.1304
  18746772.084   -26681937.16349 -16573435.70349  18746771.2504   18746777.5834
  19428780.011    -6490415.17449  -5038939.52549  19428777.9274   19428784.4084
  17226403.949   -19567682.10049 -15234159.80749  17226403.6294   17226407.8814
  15600851.941   -45928632.77649 -35775558.93449  15600851.0064   15600855.5384
  18076822.154   -12841897.24449  -9792602.68849  18076821.2074   18076827.3204
  19020631.817   -13905522.09149 -10809061.30049  19020630.8514   19020637.3834
  16583900.851   -28368193.42449 -22044610.04549  16583899.9454   16583905.5024
 97  1  8 20  4 29.9840000  0  9 22 19  3 27 29 18 14 31 16
  18517310.419   -16119323.60949 -12547122.97549  18517309.2644   18517314.5524
  16612822.521   -32334323.13349 -25171899.60549  16612821.8534   16612827.0234
  18721085.550   -26816920.63549 -16678617.58549  18721084.3734   18721090.5714
  19397815.777    -6653131.54549  -5165731.42949  19397813.8334   19397820.9334
  17221540.502   -19593240.17749 -15254075.23149  17221540.0964   17221545.0104
  15576737.036   -46055357.37049 -35874305.35049  15576735.8504   15576740.5754
  18079892.446   -12825762.88749  -9780030.53049  18079891.2624   18079896.9394
  18987048.246   -14082004.69449 -10946580.19749  18987046.3314   18987053.7094
  16579832.929   -28389570.78449 -22061267.74749  16579831.5214   16579837.6494
 97  1  8 20  4 59.9830000  0  9 22 19  3 27 29 18 14 31 16
  18519368.399   -16108509.27249 -12538696.22149  18519366.9794   18519372.0544
  16587804.913   -32465791.58649 -25274342.50749  16587804.4724   16587809.6354
  18695470.235   -26951529.82349 -16783507.81249  18695469.1164   18695475.2074
  19366868.284    -6815760.50349  -5292455.24249  19366868.2664   19366874.3034
  17216738.689   -19618474.44449 -15273738.32749  17216738.5004   17216743.5314
  15552684.594   -46181753.45949 -35972795.79349  15552683.5614   15552688.4184
  18082993.610   -12809466.07549  -9767331.77749  18082992.5554   18082999.4874
  18953478.167   -14258416.02549 -11084043.54449  18953476.7414   18953484.0444
  16575847.863   -28410512.68849 -22077586.12749  16575846.8304   16575852.7364
 97  1  8 20  5 29.9830000  0  9 22 19  3 27 29 18 14 31 16
  18521464.542   -16097494.12849 -12530112.99049  18521463.6974   18521467.7994
  16562823.257   -32597071.18349 -25376638.24549  16562822.3174   16562827.6174
  18669919.642   -27085798.66549 -16888132.84849  18669919.2744   18669925.2774
  19335931.908    -6978332.60949  -5419134.74449  19335930.8844   19335936.9714
  17211994.427   -19643406.05449 -15293165.58849  17211993.9254   17211999.4284
  15528691.308   -46307838.75549 -36071044.05749  15528690.3914   15528695.2884
  18086119.070   -12793041.82849  -9754533.71849  18086118.4014   18086124.6084
  18919917.302   -14434779.56549 -11221469.66349  18919916.2954   18919923.5124
  16571942.055   -28431038.17249 -22093580.03249  16571940.8644   16571947.1294
 97  1  8 20  5 59.9830000  0  9 22 19  3 27 29 18 14 31 16
  18523607.371   -16086233.92149 -12521338.80049  18523606.4344   18523611.7084
  16537886.991   -32728111.68149 -25478747.66849  16537886.0304   16537891.5984
  18644442.972   -27219679.18149 -16992455.28249  18644441.6824   18644447.8904
  19305015.754    -7140798.14449  -5545731.20649  19305014.4874   19305021.9444
  17207316.553   -19667988.56549 -15312320.82649  17207316.0534   17207320.2774
  15504770.564   -46433543.08349 -36168995.46949  15504769.5314   15504774.1744
  18089274.627   -12776458.93449  -9741612.07049  18089274.1964   18089280.3394
  18886381.647   -14611010.32049 -11358792.28949  18886381.2704   18886387.0984
  16568125.690   -28451093.27549 -22109207.40749  16568124.5964   16568130.5024
 97  1  8 20  6 29.9830000  0  9 22 19  3 27 29 18 14 31 16
  18525793.310   -16074746.91049 -12512387.89149  18525792.0114   18525796.9804
  16512994.224   -32858923.93549 -25580679.24449  16512993.1534   16512998.1834
  18619040.190   -27353171.56949 -17096475.30249  18619038.7984   18619046.0944
  19274114.587    -7303184.53049  -5672265.98149  19274113.2294   19274121.1524
  17202700.508   -19692246.29749 -15331222.98249  17202700.0894   17202705.0334
  15480925.600   -46558849.25249 -36266636.62449  15480924.6694   15480928.8944
  18092457.321   -12759734.27249  -9728579.91649  18092457.3624   18092462.2834
  18852874.160   -14787093.41349 -11495999.85449  18852873.1674   18852880.6424
  16564395.268   -28470696.69249 -22124482.82349  16564394.1594   16564400.0474
 97  1  8 20  6 59.9830000  0  9 22 19  3 27 29 18 14 31 16
  18527996.672   -16063168.21449 -12503365.53949  18527995.3964   18527999.7924
  16488119.100   -32989643.34749 -25682538.47749  16488118.2934   16488123.2564
  18593688.485   -27486395.55449 -17200286.17449  18593687.2984   18593693.3594
  19243202.723    -7465626.88349  -5798844.39549  19243201.4494   19243208.1024
  17198118.691   -19716324.02549 -15349984.87549  17198118.0014   17198122.8914
  15457135.325   -46683867.84449 -36364053.68949  15457134.3394   15457138.3924
  18095644.356   -12742986.39449  -9715529.70449  18095643.9464   18095649.4944
  18819370.357   -14963156.88049 -11633192.11149  18819369.4724   18819375.1674
  16560725.658   -28489980.79549 -22139509.41549  16560724.9094   16560730.4174
 97  1  8 20  7 29.9830000  0  9 22 19  3 27 29 18 14 31 16
  18530238.255   -16051388.51149 -12494186.56849  18530236.5244   18530241.8804
  16463279.120   -33120178.17249 -25784253.87049  16463278.0304   16463283.8964
  18568413.415   -27619216.93149 -17303783.32649  18568412.4264   18568418.4884
  19212301.042    -7628015.55549  -5925380.93949  19212300.3414   19212306.9894
  17193595.761   -19740091.85249 -15368505.28949  17193595.1224   17193600.2164
  15433422.918   -46808477.53949 -36461152.12749  15433422.4044   15433426.5064
  18098863.742   -12726068.97649  -9702347.36449  18098864.1974   18098869.4544
  18785894.294   -15139075.29849 -11770271.34249  18785893.4774   18785899.4934
  16557140.892   -28508819.00149 -22154188.56049  16557139.7814   16557145.9714
 97  1  8 20  7 59.9830000  0  9 22 19  3 27 29 18 14 31 16
  18532536.621   -16039310.46949 -12484775.13349  18532534.9734   18532541.6294
  16438493.351   -33250428.17449 -25885747.33249  16438492.4784   16438497.9514
  18543238.359   -27751513.01749 -17406871.15449  18543237.0544   18543243.4404
  19181431.358    -7790236.99749  -6051787.20349  19181430.5924   19181436.8374
  17189153.819   -19763434.84349 -15386694.65649  17189154.1164   17189157.8444
  15409809.205   -46932568.94949 -36557846.70849  15409808.6514   15409812.6114
  18102140.160   -12708852.03249  -9688931.63249  18102139.7894   18102146.0774
  18752463.387   -15314756.15949 -11907165.45349  18752462.5704   18752469.1904
  16553659.601   -28527113.40549 -22168443.95749  16553658.7704   16553664.8934
 97  1  8 20  8 29.9830000  0  9 22 19  3 27 29 18 14 31 16
  18534870.277   -16027046.97349 -12475219.18949  18534868.4084   18534873.7294
  16413742.429   -33380495.22549 -25987098.24549  16413741.4334   16413746.8244
  18518146.345   -27883372.47949 -17509618.77549  18518145.6854   18518151.2694
  19150577.156    -7952376.41449  -6178129.55849  19150575.9524   19150581.7604
  17184771.890   -19786462.44949 -15404638.27949  17184771.3304   17184775.9194
  15386274.071   -47056247.24549 -36654219.39149  15386273.2354   15386277.0114
  18105457.510   -12691419.44549  -9675347.87649  18105456.6034   18105462.3724
  18719051.919   -15490334.31549 -12043979.54749  18719051.0914   18719056.6534
  16550259.939   -28544978.93149 -22182365.17049  16550258.8844   16550264.8404
 97  1  8 20  8 59.9830000  0  9 22 19  3 27 29 18 14 31 16
  18537236.281   -16014613.37149 -12465530.71649  18537234.7894   18537240.5894
  16389026.945   -33510376.13049 -26088304.10949  16389026.2134   16389031.4054
  18493137.359   -28014795.65549 -17612026.43049  18493137.1484   18493142.1174
  19119743.171    -8114409.62049  -6304389.13549  19119741.4584   19119748.8824
  17180450.698   -19809170.28649 -15422332.72749  17180450.6024   17180454.7224
  15362814.353   -47179528.97649 -36750283.05749  15362813.5454   15362817.5914
  18108818.042   -12673760.29349  -9661587.56249  18108817.3674   18108823.3384
  18685659.414   -15665813.02149 -12180716.12549  18685658.4984   18685664.2834
  16546944.238   -28562403.37149 -22195942.67449  16546943.7194   16546949.1474
 97  1  8 20  9 29.9830000  0  9 22 19  3 27 29 18 14 31 16
  18539640.247   -16001980.77449 -12455687.17349  18539639.4854   18539643.6324
  16364355.294   -33640026.40949 -26189330.26049  16364354.5834   16364359.8994
  18468215.859   -28145759.01249 -17714075.79749  18468214.9814   18468221.7624
  19088938.331    -8276289.63049  -6430529.36449  19088937.5744   19088943.1524
  17176197.324   -19831521.96049 -15439749.64149  17176196.5174   17176201.1134
  15339433.648   -47302395.28049 -36846023.02149  15339432.4324   15339436.9694
  18112225.465   -12655854.33449  -9647634.94649  18112225.4974   18112231.0474
  18652291.982   -15841159.95149 -12317350.02449  18652290.4284   18652297.8014
  16543716.831   -28579363.63049 -22209158.47749  16543715.9744   16543721.6874
 97  1  8 20  9 59.9830000  0  9 22 19  3 27 29 18 14 31 16
  18542040.956   -15989365.40149 -12445857.05349  18542040.1034   18542045.2334
  16339688.250   -33769652.79449 -26290337.80949  16339687.4504   16339692.8054
  18443335.828   -28276504.31449 -17815955.26449  18443334.8454   18443339.4884
  19058117.311    -8438255.11349  -6556736.20349  19058116.7804   19058121.4984
  17171967.089   -19853752.01449 -15457071.78649  17171966.8654   17171971.2194
  15316085.399   -47425090.60749 -36941629.75949  15316084.2954   15316088.6714
  18115631.212   -12637957.49449  -9633689.41149  18115630.4804   18115637.1494
  18618905.687   -16016605.60449 -12454060.87149  18618904.2814   18618909.5024
  16540529.638   -28596112.54749 -22222209.59949  16540528.8204   16540534.6814
 97  1  8 20 10 29.9830000  0  9 22 19  3 27 29 18 14 31 16
  18544490.428   -15976493.59049 -12435827.10649  18544488.0584   18544494.0634
  16315078.251   -33898978.91449 -26391111.38549  16315077.0374   16315082.2884
  18418546.104   -28406775.17449 -17917465.01949  18418545.4264   18418550.1504
  19027327.624    -8600056.35949  -6682815.06949  19027326.9864   19027331.7834
  17167810.568   -19875594.43049 -15474091.87649  17167810.0924   17167815.1224
  15292820.292   -47547349.12849 -37036896.13149  15292819.2324   15292823.8554
  18119083.244   -12619817.57149  -9619554.46149  18119082.9204   18119088.4294
  18585556.003   -16191858.98349 -12590621.87449  18585555.2784   18585560.2844
  16537433.685   -28612382.00949 -22234887.11749  16537432.5944   16537438.3714
 97  1  8 20 10 59.9830000  0  9 22 19  3 27 29 18 14 31 16
  18546976.252   -15963430.68549 -12425648.25949  18546974.7474   18546980.0764
  16290511.090   -34028080.24549 -26491709.79949  16290510.6044   16290515.3304
  18393828.658   -28536666.01049 -18018678.66349  18393827.7784   18393833.9094
  18996549.620    -8761796.83749  -6808846.60349  18996549.5424   18996554.4384
  17163714.252   -19897120.66649 -15490865.60149  17163714.3284   17163719.4294
  15269622.355   -47669254.91549 -37131887.63849  15269621.3214   15269626.1764
  18122563.045   -12601531.14849  -9605305.35049  18122562.6714   18122568.8864
  18552230.752   -16366984.50549 -12727083.26149  18552230.0784   18552236.1924
  16534414.200   -28628249.58249 -22247251.48149  16534413.1144   16534419.1134
 97  1  8 20 11 29.9830000  0  9 22 19  3 27 29 18 14 31 16
  18549487.073   -15950236.39749 -12415367.04449  18549485.3294   18549490.9834
  16265969.943   -34157044.98049 -26592201.78349  16265969.0844   16265973.8784
  18369168.205   -28666257.19049 -18119658.80649  18369167.3604   18369172.4564
  18965763.879    -8923577.49649  -6934909.42949  18965762.5364   18965767.9364
  17159667.112   -19918388.89049 -15507438.27549  17159666.2304   17159671.3974
  15246477.789   -47790880.07249 -37226660.47649  15246476.7744   15246481.4474
  18126052.571   -12583193.87149  -9591016.60949  18126051.5364   18126057.9384
  18518915.072   -16542059.46849 -12863505.25249  18518913.9334   18518919.9414
  16531452.865   -28643811.45149 -22259377.62849  16531451.3744   16531457.7524
 97  1  8 20 11 59.9830000  0  9 22 19  3 27 29 18 14 31 16
  18552053.240   -15936751.04849 -12404859.02349  18552051.3424   18552057.3644
  16241483.375   -34285722.63149 -26692470.06349  16241482.2464   16241487.4084
  18344597.397   -28795377.76549 -18220272.25549  18344596.4304   18344602.6614
  18935000.119    -9085242.12549  -7060881.84649  18934999.3634   18935004.6214
  17155700.218   -19939234.97949 -15523682.02049  17155698.9274   17155704.5664
  15223420.281   -47912048.31749 -37321077.27249  15223419.3464   15223423.8004
  18129582.274   -12564645.30649  -9576563.23249  18129581.2024   18129587.5074
  18485643.199   -16716904.11649 -12999747.77649  18485642.0364   18485648.4204
  16528582.236   -28658896.49549 -22271132.22949  16528580.9814   16528587.1134
 97  1  8 20 12 29.9830000  0  9 22 19  3 27 29 18 14 31 16
  18554658.135   -15923062.57549 -12394192.71949  18554656.3894   18554662.4504
  16217034.861   -34414200.15049 -26792582.39749  16217034.0514   16217039.2784
  18320102.292   -28924100.53449 -18320575.69649  18320100.5984   18320108.0624
  18904247.219    -9246849.71249  -7186809.81749  18904246.4134   18904252.1394
  17151798.148   -19959740.36549 -15539660.27149  17151797.9374   17151803.4514
  15200439.134   -48032815.17249 -37415181.29249  15200438.3364   15200442.8844
  18133138.993   -12545954.94049  -9561999.37049  18133138.3904   18133144.5244
  18452402.554   -16891584.88149 -13135862.62549  18452401.4084   18452407.9774
  16525791.698   -28673560.97549 -22282559.11349  16525790.5434   16525796.7394
 97  1  8 20 12 59.9830000  0  9 22 19  3 27 29 18 14 31 16
  18557313.608   -15909107.58349 -12383318.73549  18557312.3104   18557317.4814
  16192634.550   -34542424.62749 -26892497.55649  16192633.5834   16192638.8904
  18295698.861   -29052341.31249 -18420503.55549  18295697.8824   18295704.2044
  18873522.049    -9408311.18149  -7312623.88149  18873520.8934   18873526.5414
  17147972.505   -19979843.88549 -15555325.39449  17147971.6864   17147976.7294
  15177547.549   -48153111.41649 -37508918.60449  15177546.6634   15177551.1204
  18136735.262   -12527056.82349  -9547273.61249  18136734.0704   18136740.4954
  18419207.213   -17066027.84449 -13271792.18349  18419206.1994   18419212.8964
  16523095.311   -28687730.81949 -22293600.57349  16523094.3904   16523100.3304
 97  1  8 20 13 29.9830000  0  9 22 19  3 27 29 18 14 31 16
  18559992.594   -15895029.21649 -12372348.61549  18559990.5064   18559996.5174
  16168254.752   -34670541.16149 -26992328.60549  16168253.7714   16168259.0984
  18271366.778   -29180207.21649 -18520139.29949  18271365.8274   18271371.6784
  18842804.286    -9569734.55049  -7438408.24749  18842803.0794   18842808.8804
  17144197.338   -19999682.40349 -15570784.01649  17144196.8794   17144202.3484
  15154722.514   -48273057.83049 -37602383.31649  15154721.6944   15154725.7854
  18140347.165   -12508076.29749  -9532483.61949  18140346.8094   18140352.6964
  18386036.726   -17240340.12249 -13407619.91249  18386035.2734   18386041.8044
  16520468.355   -28701535.78049 -22304357.69549  16520467.3984   16520473.4434
 97  1  8 20 13 59.9820000  0  9 22 19  3 27 29 18 14 31 16
  18562700.508   -15880799.24349 -12361260.35649  18562698.9214   18562704.5644
  16143905.895   -34798495.11049 -27092032.96649  16143905.1374   16143910.5024
  18247116.725   -29307641.79249 -18619438.92249  18247115.8554   18247122.6044
  18812104.599    -9731062.26149  -7564118.06749  18812103.0724   18812109.4154
  17140474.829   -20019244.17949 -15586027.00049  17140474.1774   17140479.9884
  15131974.582   -48392598.89249 -37695532.16749  15131973.7434   15131977.8724
  18143984.313   -12488962.98349  -9517590.17349  18143983.1424   18143990.0164
  18352900.149   -17414474.13049 -13543308.74749  18352898.6134   18352904.7514
  16517920.237   -28714926.24749 -22314791.84349  16517919.3124   16517925.2444
 97  1  8 20 14 29.9820000  0  9 22 19  3 27 29 18 14 31 16
  18565438.451   -15866410.80849 -12350048.61549  18565437.2254   18565443.2164
  16119585.595   -34926298.69449 -27191620.16349  16119584.4744   16119590.0664
  18222947.364   -29434652.81049 -18718408.49049  18222946.4074   18222953.5164
  18781420.948    -9892305.06649  -7689761.71949  18781419.4644   18781425.5464
  17136804.754   -20038530.26349 -15601055.14749  17136803.9674   17136809.8834
  15109301.457   -48511746.90949 -37788374.75449  15109300.4994   15109304.7104
  18147647.833   -12469711.06349  -9502588.73049  18147647.0254   18147654.1924
  18319792.150   -17588458.30249 -13678880.85249  18319790.8534   18319797.0404
  16515447.344   -28727921.45049 -22324917.99949  16515445.8154   16515452.2324
 97  1  8 20 14 59.9820000  0  9 22 19  3 27 29 18 14 31 16
  18568204.384   -15851875.90149 -12338722.74149  18568203.1404   18568207.7314
  16095293.166   -35053955.97249 -27291093.35049  16095292.1714   16095297.4964
  18198860.789   -29561228.67849 -18817038.97249  18198859.0424   18198865.6424
  18750751.589   -10053472.44549  -7815346.58249  18750749.6764   18750756.6274
  17133184.969   -20057552.55549 -15615877.74649  17133184.4834   17133189.7024
  15086699.391   -48630521.40849 -37880926.28849  15086698.2464   15086702.3764
  18151333.679   -12450342.23849  -9487496.18849  18151333.6034   18151339.2224
  18286709.176   -17762310.73449 -13814350.30149  18286707.9164   18286714.0654
  16513043.069   -28740555.96849 -22334763.09849  16513041.9894   16513048.2134
 97  1  8 20 15 29.9820000  0  9 22 19  3 27 29 18 14 31 16
  18570984.741   -15837264.24949 -12327337.05049  18570983.2064   18570989.2074
  16071017.778   -35181523.62349 -27390496.69549  16071017.2564   16071022.6684
  18174841.487   -29687450.26049 -18915393.39349  18174839.6104   18174847.5014
  18720081.024   -10214646.61049  -7940936.73649  18720080.2484   18720086.3244
  17129602.667   -20076377.69649 -15630546.70749  17129602.0834   17129607.4974
  15064156.918   -48748982.61049 -37973233.69249  15064156.2224   15064160.3014
  18155027.431   -12430931.98649  -9472371.37149  18155027.4664   18155033.4904
  18253633.988   -17936122.27649 -13949787.91249  18253632.9234   18253639.1194
  16510692.835   -28752906.35649 -22344386.79249  16510692.0964   16510698.4494
 97  1  8 20 15 59.9820000  0  9 22 19  3 27 29 18 14 31 16
  18573808.748   -15822424.32349 -12315773.48549  18573806.8314   18573813.3514
  16046791.090   -35308835.88249 -27489701.03249  16046790.2184   16046795.8164
  18150915.029   -29813184.01649 -19013367.66849  18150914.3134   18150920.1884
  18689436.452   -10375685.44449  -8066421.42949  18689435.7034   18689441.7044
  17126086.380   -20094856.15949 -15644945.53449  17126086.1774   17126091.4564
  15041701.736   -48866985.25049 -38065183.77649  15041700.8374   15041705.0814
  18158754.930   -12411343.83349  -9457107.93349  18158754.5464   18158760.0344
  18220591.213   -18109763.28449 -14085092.65649  18220589.7384   18220595.7044
  16508424.413   -28764827.13449 -22353675.72749  16508423.7764   16508429.8774
 97  1  8 20 16 29.9820000  0  9 22 19  3 27 29 18 14 31 16
  18576680.237   -15807334.78349 -12304015.42049  18576679.9824   18576685.5104
  16022619.171   -35435860.28149 -27588681.06049  16022618.5524   16022623.6214
  18127087.614   -29938397.98449 -19110936.92249  18127087.0194   18127093.2484
  18658825.489   -10536546.85849  -8191767.85949  18658826.0834   18658830.1594
  17122644.702   -20112942.60449 -15659038.89149  17122644.5904   17122649.1024
  15019338.045   -48984506.88449 -38156759.05149  15019337.1594   15019341.7044
  18162518.042   -12391568.90549  -9441698.96749  18162518.3204   18162523.6504
  18187588.085   -18283195.15449 -14220234.46849  18187586.3064   18187593.6344
  16506243.346   -28776289.00849 -22362607.06949  16506242.4864   16506248.8504
 97  1  8 20 16 59.9820000  0  9 22 19  3 27 29 18 14 31 16
  18579572.435   -15792136.86749 -12292172.90549  18579571.3904   18579576.6914
  15998479.747   -35562714.39749 -27687528.39449  15998479.0534   15998484.3674
  18103333.855   -30063225.25349 -19208204.83749  18103332.3044   18103339.2344
  18628224.490   -10697357.38049  -8317074.65249  18628224.7684   18628229.1544
  17119253.028   -20130766.48649 -15672927.66049  17119252.6484   17119257.8914
  14997041.654   -49101675.14549 -38248058.97549  14997040.8454   14997045.5894
  18166287.303   -12371761.41449  -9426264.61249  18166286.8914   18166292.8754
  18154604.485   -18456525.02549 -14355296.80549  18154602.8104   18154610.8624
  16504128.153   -28787404.86049 -22371268.79349  16504127.2704   16504133.3944
 97  1  8 20 17 29.9820000  0  9 22 19  3 27 29 18 14 31 16
  18582463.212   -15776946.58949 -12280336.34049  18582461.7194   18582467.6274
  15974352.146   -35689505.75949 -27786326.83249  15974351.0674   15974356.3514
  18079631.214   -30187783.32149 -19305263.00349  18079630.1134   18079636.5444
  18597610.678   -10858234.65549  -8442433.47249  18597610.6224   18597614.9654
  17115893.071   -20148423.32749 -15686686.26649  17115892.6644   17115897.5724
  14974792.936   -49218593.05049 -38339163.81849  14974792.3474   14974796.5724
  18170042.208   -12352029.55849  -9410889.18749  18170042.0324   18170047.8184
  18121624.307   -18629836.69849 -14490344.96549  18121623.6014   18121629.7464
  16502057.232   -28798287.76449 -22379748.99549  16502056.1544   16502062.2194
 97  1  8 20 17 59.9820000  0  9 22 19  3 27 29 18 14 31 16
  18585404.484   -15761490.11349 -12268292.34949  18585402.7134   18585407.8014
  15950290.382   -35815951.10549 -27884855.64449  15950289.2454   15950294.7954
  18056036.345   -30311775.20949 -19401879.98249  18056035.3674   18056042.1614
  18567039.353   -11018888.37449  -8567618.08449  18567038.7474   18567043.7184
  17112619.134   -20165627.74949 -15700092.32949  17112618.0614   17112623.9444
  14952644.268   -49334985.08549 -38429858.88449  14952643.5604   14952647.9324
  18173837.329   -12332086.10449  -9395348.88949  18173836.2354   18173842.6004
  18088706.617   -18802820.43749 -14625137.60249  18088705.3104   18088712.4384
  16500081.848   -28808668.03849 -22387837.53649  16500080.7924   16500086.6784
 97  1  8 20 18 29.9820000  0  9 22 19  3 27 29 18 14 31 16
  18588366.544   -15745924.30949 -12256163.17249  18588364.6934   18588370.4724
  15926263.466   -35942213.19749 -27983241.65749  15926262.7684   15926267.6984
  18032521.324   -30435347.25349 -19498169.80249  18032519.2274   18032526.8434
  18536480.508   -11179476.74049  -8692751.77449  18536480.1824   18536484.8644
  17109401.078   -20182538.53049 -15713269.59249  17109401.0484   17109405.6194
  14930567.749   -49450998.34449 -38520258.80449  14930566.8444   14930571.0024
  18177645.017   -12312076.90249  -9379757.35649  18177644.6784   18177650.9444
  18055824.576   -18975616.78149 -14759784.19349  18055823.8934   18055830.2314
  16498172.535   -28818701.12549 -22395655.54449  16498171.3244   16498177.3374
 97  1  8 20 18 59.9820000  0  9 22 19  3 27 29 18 14 31 16
  18591339.488   -15730300.82149 -12243989.05849  18591337.1654   18591344.5064
  15902262.143   -36068341.31649 -28081523.26949  15902261.4434   15902266.4314
  18009077.244   -30558545.91049 -19594168.68249  18009075.5164   18009082.1034
  18505920.189   -11340072.51049  -8817891.24249  18505919.0694   18505923.8974
  17106228.145   -20199212.89149 -15726262.63949  17106227.5354   17106232.6984
  14908555.821   -49566671.61649 -38610393.79349  14908554.7024   14908559.2084
  18181459.848   -12292030.02249  -9364136.47049  18181459.3284   18181466.2464
  18022969.649   -19148270.38549 -14894319.56949  18022969.3684   18022975.8764
  16496316.996   -28828452.26449 -22403253.85549  16496315.7284   16496321.5954
 97  1  8 20 19 29.9820000  0  9 22 19  3 27 29 18 14 31 16
  18594337.707   -15714544.84149 -12231711.67949  18594335.7494   18594342.7424
  15878300.365   -36194261.46449 -28179642.83449  15878299.5424   15878304.2144
  17985719.239   -30681292.78849 -19689815.52849  17985717.6674   17985724.1404
  18475371.956   -11500603.86349  -8942980.50549  18475370.0974   18475376.6404
  17103112.462   -20215586.00949 -15739020.93949  17103111.8824   17103117.0864
  14886625.031   -49681918.48649 -38700196.53449  14886624.1654   14886628.3604
  18185300.815   -12271845.88249  -9348408.63449  18185299.3994   18185307.4814
  17990154.894   -19320713.07149 -15028690.54849  17990153.3964   17990160.8484
  16494528.118   -28837852.99549 -22410579.12149  16494527.1964   16494533.1624
 97  1  8 20 19 59.9820000  0  9 22 19  3 27 29 18 14 31 16
  18597354.893   -15698689.69249 -12219357.03749  18597352.7114   18597358.2284
  15854370.405   -36320013.91049 -28277631.71649  15854369.5684   15854374.3014
  17962439.666   -30803626.77849 -19785140.65449  17962438.3634   17962445.0594
  18444831.514   -11661092.52549  -9068036.52749  18444829.5204   18444835.0154
  17100044.969   -20231705.74949 -15751581.80749  17100044.4664   17100049.3524
  14864771.460   -49796759.72649 -38789683.19849  14864770.6434   14864774.6864
  18189161.994   -12251555.35049  -9332597.88349  18189161.1164   18189168.6954
  17957371.290   -19492992.10049 -15162933.95549  17957370.5814   17957376.2694
  16492802.271   -28846922.18449 -22417646.04349  16492801.3514   16492807.6244
 97  1  8 20 20 29.9820000  0  9 22 19  3 27 29 18 14 31 16
  18600388.292   -15682748.95249 -12206935.68249  18600386.8804   18600392.7134
  15830469.270   -36445615.26549 -28375502.86349  15830468.4054   15830473.5074
  17939233.921   -30925572.87649 -19880163.52549  17939233.2874   17939238.9254
  18414293.291   -11821568.82949  -9193082.90449  18414291.3114   18414298.1854
  17097022.931   -20247586.92449 -15763956.77649  17097023.0674   17097027.3244
  14842992.694   -49911207.49449 -38878863.25949  14842991.7414   14842996.0524
  18193037.552   -12231188.39849  -9316727.57649  18193036.2034   18193043.2404
  17924613.370   -19665136.11949 -15297072.12749  17924611.8694   17924618.6074
  16491136.374   -28855676.36749 -22424467.49949  16491134.8654   16491141.8894
 97  1  8 20 20 59.9820000  0  9 22 19  3 27 29 18 14 31 16
  18603439.608   -15666713.59849 -12194440.60149  18603437.9584   18603444.3894
  15806600.406   -36571047.19849 -28473241.99549  15806599.4094   15806604.6154
  17916104.728   -31047117.52849 -19974873.59549  17916104.2394   17916109.5364
  18383761.299   -11982014.29849  -9318105.27549  18383759.5484   18383766.5754
  17094050.586   -20263206.89849 -15776128.20449  17094050.2354   17094055.8434
  14821290.772   -50025251.45549 -38967728.66749  14821289.6154   14821294.2204
  18196929.133   -12210737.84449  -9300792.12949  18196928.0794   18196934.8924
  17891883.311   -19837134.31149 -15431096.59549  17891882.1784   17891888.4584
  16489531.272   -28864111.20949 -22431040.12349  16489530.1364   16489536.9414
 97  1  8 20 21 29.9820000  0  9 22 19  3 27 29 18 14 31 16
  18606514.032   -15650556.88949 -12181850.95949  18606512.4494   18606518.7284
  15782764.629   -36696304.71949 -28570845.23149  15782763.6304   15782768.3224
  17893055.549   -31168242.12249 -20069256.34349  17893055.8654   17893060.7114
  18353241.369   -12142395.93549  -9443077.92249  18353239.0874   18353246.4824
  17091132.951   -20278539.23249 -15788075.50749  17091131.9364   17091137.2734
  14799668.137   -50138878.66449 -39056269.33949  14799667.0544   14799671.4734
  18200837.683   -12190198.29849  -9284787.33449  18200836.2034   18200842.5924
  17859185.175   -20008964.41149 -15564990.07449  17859183.6044   17859190.6684
  16487993.186   -28872194.05449 -22437338.46549  16487991.9314   16487998.4804
 97  1  8 20 21 59.9820000  0  9 22 19  3 27 29 18 14 31 16
  18609617.355   -15634248.81749 -12169143.36749  18609616.1714   18609621.6364
  15758969.488   -36821348.84749 -28668282.18749  15758968.5934   15758973.1794
  17870094.339   -31288904.05449 -20163278.57849  17870093.0524   17870099.9214
  18322741.015   -12302675.17449  -9567970.77449  18322739.7614   18322746.1944
  17088278.892   -20293537.65049 -15799762.62049  17088278.5414   17088283.4054
  14778128.904   -50252067.62049 -39144468.51349  14778128.0154   14778132.7294
  18204766.640   -12169550.59749  -9268698.26049  18204765.3434   18204772.1064
  17826525.683   -20180591.12649 -15698725.03749  17826524.5744   17826530.2094
  16486527.156   -28879898.17249 -22443341.69249  16486525.9464   16486532.4944
 97  1  8 20 22 29.9810000  0  9 22 19  3 27 29 18 14 31 16
  18612741.450   -15617831.79549 -12156350.87549  18612740.0984   18612745.9144
  15735209.759   -36946206.90849 -28765574.14849  15735208.6024   15735213.3434
  17847216.843   -31409126.13749 -20256958.08049  17847216.4894   17847221.5074
  18292251.403   -12462899.07349  -9692820.50249  18292250.6584   18292255.5914
  17085482.322   -20308234.03049 -15811214.37249  17085481.8674   17085486.8914
  14756662.900   -50364872.08849 -39232368.08449  14756662.0354   14756666.4664
  18208704.893   -12148854.67449  -9252571.60849  18208704.0464   18208710.7444
  17793899.744   -20352040.78849 -15832322.02349  17793897.9514   17793904.5944
  16485126.274   -28887259.73649 -22449078.00649  16485125.2854   16485131.9334
 97  1  8 20 22 59.9810000  0  9 22 19  3 27 29 18 14 31 16
  18615902.662   -15601219.60049 -12143406.29549  18615901.6194   18615907.4264
  15711500.424   -37070800.00549 -28862659.65049  15711499.3354   15711504.0024
  17824443.201   -31528802.05149 -20350212.01049  17824441.6164   17824448.9664
  18261790.236   -12622974.12549  -9817554.25849  18261789.7064   18261794.3594
  17082759.289   -20322543.65249 -15822364.76249  17082759.3324   17082764.3444
  14735285.878   -50477209.10949 -39319903.41449  14735285.1244   14735289.7614
  18212671.891   -12128008.57749  -9236327.94449  18212671.5904   18212677.8074
  17761325.010   -20523221.82349 -15965709.68949  17761324.0014   17761331.2754
  16483809.753   -28894178.08049 -22454468.94649  16483808.8674   16483815.3874
 97  1  8 20 23 29.9810000  0  9 22 19  3 27 29 18 14 31 16
  18619094.316   -15584447.85549 -12130337.38349  18619093.0904   18619098.8164
  15687836.191   -37195156.06749 -28959560.45549  15687835.1884   15687839.9214
  17801770.214   -31647949.39649 -20443054.06749  17801769.0924   17801775.4864
  18231354.323   -12782916.05549  -9942184.27249  18231354.1764   18231357.7574
  17080103.312   -20336500.99949 -15833240.64649  17080102.6914   17080108.3724
  14713993.747   -50589100.33649 -39407091.37249  14713993.1744   14713997.6604
  18216661.976   -12107041.97849  -9219990.39549  18216662.5174   18216669.2964
  17728797.573   -20694154.13749 -16098903.54749  17728796.9094   17728802.2024
  16482572.927   -28900677.75449 -22459533.65149  16482572.2534   16482578.9634
 97  1  8 20 23 59.9810000  0  9 22 19  3 27 29 18 14 31 16
  18622289.597   -15567656.67449 -12117253.31849  18622288.5184   18622294.3334
  15664192.611   -37319403.79249 -29056376.83949  15664191.5764   15664196.7714
  17779173.183   -31766697.66149 -20535585.16149  17779171.4264   17779177.8484
  18200918.193   -12942859.61149 -10066815.56449  18200917.3274   18200921.6134
  17077489.107   -20350239.17949 -15843945.75749  17077488.4714   17077493.4624
  14692761.669   -50700675.90849 -39494033.36349  14692761.0034   14692765.4484
  18220647.469   -12086100.07249  -9203672.08649  18220648.1384   18220652.7594
  17696291.903   -20864972.19549 -16232008.37249  17696291.1034   17696296.5674
  16481386.030   -28906914.92049 -22464393.79049  16481384.9554   16481391.7254
 97  1  8 20 24 29.9810000  0  9 22 19  3 27 29 18 14 31 16
  18625506.226   -15550753.66449 -12104082.11649  18625504.3924   18625509.8324
  15640583.522   -37443470.29149 -29153052.00849  15640582.5304   15640587.4184
  17756668.062   -31884962.57849 -20627739.62949  17756666.6954   17756673.1784
  18170499.648   -13102710.81849 -10191374.87849  18170498.9154   18170503.1254
  17074931.207   -20363681.20349 -15854420.10249  17074931.1814   17074936.2534
  14671609.146   -50811833.40649 -39580649.58349  14671608.3074   14671612.8984
  18224644.833   -12065095.07549  -9187304.62749  18224645.9004   18224650.2874
  17663829.842   -21035561.15949 -16364934.70049  17663827.9864   17663834.3804
  16480264.030   -28912811.03349 -22468988.18849  16480262.7124   16480269.4004
 97  1  8 20 24 59.9810000  0  9 22 19  3 27 29 18 14 31 16
  18628732.843   -15533797.46249 -12090869.46949  18628731.1184   18628737.5894
  15616992.480   -37567441.78549 -29249653.15049  15616991.3824   15616996.5934
  17734239.166   -32002826.58749 -20719581.70149  17734236.8534   17734243.9684
  18140087.688   -13262527.05549 -10315906.97749  18140086.7694   18140090.7754
  17072414.682   -20376905.81649 -15864725.03549  17072414.0944   17072419.1384
  14650527.343   -50922618.96049 -39666975.98149  14650526.6914   14650531.0464
  18228643.705   -12044082.01149  -9170930.87649  18228643.3934   18228649.4734
  17631401.104   -21205974.82249 -16497724.43049  17631399.8564   17631405.3894
  16479189.018   -28918460.55849 -22473390.45549  16479188.1954   16479195.0534
 97  1  8 20 25 29.9810000  0  9 22 19  3 27 29 18 14 31 16
  18631977.700   -15516745.73149 -12077582.37349  18631975.9814   18631981.7714
  15593424.435   -37691292.46549 -29346160.15049  15593423.8274   15593428.4764
  17711888.984   -32120277.57549 -20811101.93849  17711888.1354   17711893.3084
  18109685.553   -13422291.37449 -10440398.60049  18109684.8464   18109689.8014
  17069946.497   -20389876.47349 -15874832.07049  17069946.0224   17069950.8234
  14629524.375   -51032990.28849 -39752979.60249  14629523.6224   14629527.8164
  18232647.776   -12023041.75049  -9154535.93349  18232647.6314   18232652.7174
  17599014.353   -21376167.19649 -16630341.73249  17599013.6064   17599019.2984
  16478165.164   -28923841.32849 -22477583.28549  16478164.0144   16478170.6334
 97  1  8 20 25 59.9810000  0  9 22 19  3 27 29 18 14 31 16
  18635258.671   -15499504.02049 -12064147.25349  18635257.1804   18635262.9164
  15569897.329   -37814928.14049 -29442499.62049  15569896.2954   15569900.9594
  17689631.651   -32237240.51649 -20902241.88849  17689630.9434   17689636.6164
  18079305.121   -13581941.19249 -10564801.01749  18079303.8184   18079309.8814
  17067542.405   -20402509.92249 -15884676.35749  17067541.7474   17067546.8854
  14608616.563   -51142861.68349 -39838593.66849  14608615.8564   14608619.7764
  18236670.638   -12001903.18149  -9138064.38849  18236669.8264   18236674.7294
  17566687.759   -21546044.42249 -16762713.48949  17566686.7464   17566692.8694
  16477208.690   -28928867.45549 -22481499.77149  16477207.0774   16477214.0484
 97  1  8 20 26 29.9810000  0  9 22 19  3 27 29 18 14 31 16
  18638558.919   -15482161.05549 -12050633.22449  18638557.1154   18638563.1794
  15546399.004   -37938412.39749 -29538721.09549  15546398.1134   15546402.9484
  17667453.868   -32353785.48149 -20993056.13549  17667453.0174   17667459.6244
  18048931.446   -13741555.35949 -10689175.64349  18048930.7354   18048936.1434
  17065187.681   -20414884.01249 -15894318.54249  17065187.2374   17065192.2404
  14587791.188   -51252299.99649 -39923870.26549  14587790.7134   14587794.5394
  18240700.246   -11980727.93049  -9121564.24749  18240699.5164   18240704.6474
  17534407.237   -21715679.84549 -16894896.82849  17534405.9334   17534411.3734
  16476310.407   -28933588.08849 -22485178.22049  16476309.8884   16476315.8224
 97  1  8 20 26 59.9810000  0  9 22 19  3 27 29 18 14 31 16
  18641884.093   -15464686.73749 -12037016.84749  18641882.3534   18641888.4684
  15522942.213   -38061678.43749 -29634772.53249  15522941.4814   15522946.1714
  17645367.838   -32469848.13949 -21083494.56349  17645366.8274   17645372.7504
  18018571.427   -13901097.82149 -10813494.40949  18018570.3034   18018576.1734
  17062894.611   -20426934.36549 -15903708.46149  17062894.6044   17062899.3674
  14567055.897   -51361264.85049 -40008777.92549  14567055.2084   14567059.1674
  18244745.747   -11959468.60149  -9104998.58849  18244745.3364   18244750.6494
  17502177.493   -21885048.12649 -17026872.00549  17502176.5354   17502182.6034
  16475481.291   -28937945.18149 -22488573.37749  16475480.6624   16475486.6504
 97  1  8 20 27 29.9810000  0  9 22 19  3 27 29 18 14 31 16
  18645228.195   -15447112.88349 -12023322.91749  18645226.8384   18645231.8174
  15499532.005   -38184700.11349 -29730633.54749  15499530.8984   15499536.0944
  17623377.017   -32585410.40949 -21173543.07349  17623376.4804   17623381.5654
  17988224.645   -14060571.08649 -10937759.23849  17988223.3624   17988229.6094
  17060664.417   -20438654.78949 -15912841.29549  17060664.1184   17060668.9114
  14546406.826   -51469776.61449 -40093332.53049  14546405.8934   14546410.0874
  18248804.580   -11938138.73749  -9088377.96549  18248803.6864   18248809.4714
  17469995.851   -22054163.39249 -17158650.05849  17469994.9244   17470000.5304
  16474722.932   -28941930.72049 -22491679.01049  16474722.0074   16474728.5664
 97  1  8 20 27 59.9810000  0  9 22 19  3 27 29 18 14 31 16
  18648579.963   -15429499.14049 -12009597.91649  18648578.5484   18648583.2904
  15476164.444   -38307497.99849 -29826320.18349  15476163.4854   15476168.5684
  17601478.981   -32700485.53849 -21263211.99549  17601478.2604   17601484.6604
  17957887.731   -14219992.62849 -11061983.77749  17957886.7644   17957892.7494
  17058487.936   -20450093.04949 -15921754.26349  17058487.1754   17058491.8044
  14525836.240   -51577875.78649 -40177565.63649  14525835.4234   14525839.5794
  18252872.569   -11916761.23749  -9071720.22349  18252871.0304   18252877.9804
  17437854.311   -22223068.35249 -17290264.25849  17437853.3654   17437858.7364
  16474028.269   -28945581.55849 -22494523.83649  16474027.8984   16474033.8424
 97  1  8 20 28 29.9810000  0  9 22 19  3 27 29 18 14 31 16
  18651936.152   -15411862.31149 -11995854.90849  18651934.6344   18651941.4504
  15452834.857   -38430095.50949 -29921850.67749  15452834.1764   15452838.9124
  17579675.430   -32815064.33149 -21352494.15949  17579675.4044   17579680.1974
  17927561.466   -14379358.18349 -11186164.68749  17927560.9284   17927565.7234
  17056364.385   -20461252.66949 -15930450.09849  17056363.8354   17056368.9874
  14505345.269   -51685556.75149 -40261472.85949  14505344.5194   14505348.7454
  18256949.802   -11895334.80349  -9055024.34049  18256949.1674   18256954.5754
  17405754.161   -22391755.93349 -17421709.06749  17405752.8484   17405758.6134
  16473393.575   -28948917.02349 -22497122.90349  16473392.7874   16473399.5604
 97  1  8 20 28 59.9810000  0  9 22 19  3 27 29 18 14 31 16
  18655288.862   -15394243.37349 -11982125.83849  18655287.7534   18655293.7524
  15429529.546   -38552565.27549 -30017281.65349  15429528.6704   15429533.5124
  17557953.303   -32929215.01849 -21441442.75649  17557952.3534   17557958.0454
  17897234.539   -14538727.00149 -11310348.14849  17897233.7734   17897239.1534
  17054281.726   -20472197.30549 -15938978.42449  17054281.2374   17054286.6704
  14484920.909   -51792887.56249 -40345107.25549  14484920.0784   14484924.3464
  18261022.460   -11873931.86549  -9038346.79649  18261021.6984   18261027.2674
  17373685.671   -22560276.58449 -17553023.80649  17373683.9894   17373690.4974
  16472802.452   -28952023.64149 -22499543.67949  16472801.4174   16472808.3224
 97  1  8 20 29 29.9810000  0  9 22 19  3 27 29 18 14 31 16
  18658672.924   -15376459.61449 -11968268.35649  18658671.2714   18658677.8794
  15406275.125   -38674768.36649 -30112504.81249  15406274.2784   15406279.0394
  17536340.862   -33042788.93349 -21529941.91349  17536339.4154   17536345.2414
  17866936.672   -14697943.54649 -11434412.96749  17866936.4774   17866941.3634
  17052267.958   -20482780.17349 -15947224.84549  17052267.5014   17052272.8934
  14464595.685   -51899697.28149 -40428335.59849  14464594.9894   14464598.9424
  18265121.390   -11852391.67049  -9021562.27749  18265120.4004   18265127.7104
  17341681.485   -22728459.43349 -17684075.32849  17341679.4654   17341686.1254
  16472285.100   -28954742.63749 -22501662.38749  16472283.9154   16472290.3214
 97  1  8 20 29 59.9810000  0  9 22 19  3 27 29 18 14 31 16
  18662074.764   -15358582.86449 -11954338.39449  18662073.5554   18662079.3984
  15383048.207   -38796826.50849 -30207615.02149  15383047.1384   15383052.1924
  17514818.002   -33155892.59149 -21618074.61649  17514816.8354   17514823.0744
  17836647.781   -14857112.86249 -11558440.96049  17836647.2164   17836652.1924
  17050304.174   -20493100.28549 -15955266.52449  17050304.6104   17050308.1774
  14444353.200   -52006072.26349 -40511225.18249  14444352.4634   14444356.5754
  18269226.464   -11830818.81949  -9004752.33249  18269226.0584   18269229.6404
  17309723.657   -22896398.37449 -17814936.79549  17309722.5784   17309728.3684
  16471821.357   -28957180.05849 -22503561.70349  16471820.4964   16471826.4554
 97  1  8 20 30 29.9810000  0  9 22 19  3 27 29 18 14 31 16
  18665496.782   -15340599.84149 -11940325.61149  18665494.8774   18665500.6924
  15359846.028   -38918754.76749 -30302624.03249  15359845.2704   15359849.7444
  17493378.830   -33268556.34249 -21705864.55649  17493378.2564   17493384.5494
  17806365.702   -15016247.38449 -11682441.83049  17806365.1204   17806368.9534
  17048392.388   -20503146.95449 -15963095.13649  17048392.3244   17048396.6904
  14424193.301   -52112013.11849 -40593776.48449  14424192.5294   14424196.7354
  18273334.678   -11809230.12849  -8987930.02349  18273334.1744   18273339.6734
  17277810.877   -23064101.07649 -17945614.18849  17277810.7514   17277816.7094
  16471407.478   -28959355.12049 -22505256.56549  16471405.7634   16471412.4684
 97  1  8 20 30 59.9810000  0  9 22 19  3 27 29 18 14 31 16
  18668941.565   -15322497.12349 -11926219.53549  18668939.6724   18668946.9454
  15336673.020   -39040529.62549 -30397513.50649  15336672.1234   15336676.7634
  17472022.501   -33380784.66849 -21793315.19249  17472021.2814   17472028.3974
  17776092.520   -15175334.51149 -11806405.77749  17776091.6884   17776095.2554
  17046533.034   -20512918.06549 -15970709.03349  17046532.3814   17046538.0644
  14404115.344   -52217523.53249 -40675992.37949  14404114.5594   14404118.5954
  18277447.376   -11787618.36149  -8971089.73849  18277446.3374   18277451.8534
  17245939.964   -23231583.37649 -18076119.83049  17245938.7654   17245944.8544
  16471044.248   -28961263.73149 -22506743.81949  16471043.1344   16471049.5354
 97  1  8 20 31 29.9800000  0  9 22 19  3 27 29 18 14 31 16
  18672415.193   -15304242.93649 -11911995.44049  18672413.2774   18672420.6014
  15313541.934   -39162084.11449 -30492231.26649  15313540.9164   15313545.6634
  17450762.418   -33492507.36349 -21880371.81949  17450762.1594   17450767.5694
  17745841.107   -15334306.86149 -11930280.28049  17745838.8814   17745843.9874
  17044735.145   -20522366.42049 -15978071.43149  17044734.6164   17044739.6264
  14384131.467   -52322539.68649 -40757823.13849  14384130.4544   14384134.3864
  18281572.601   -11765940.72849  -8954198.12549  18281572.4414   18281576.8274
  17214121.852   -23398788.68149 -18206409.63949  17214120.6824   17214127.0534
  16470741.341   -28962855.62449 -22507984.28149  16470740.4044   16470746.5974
 97  1  8 20 31 59.9800000  0  9 22 19  3 27 29 18 14 31 16
  18675904.425   -15285905.87949 -11897706.75649  18675903.7914   18675909.2214
  15290447.500   -39283445.95049 -30586798.91249  15290446.2844   15290451.2634
  17429591.014   -33603763.35249 -21967064.79649  17429590.0364   17429596.1184
  17715604.644   -15493200.15149 -12054093.17249  17715603.0134   17715607.0014
  17042990.406   -20531535.14249 -15985215.93649  17042989.5844   17042994.4284
  14364233.247   -52427105.25849 -40839302.79649  14364232.2994   14364236.2804
  18285702.456   -11744238.29649  -8937287.18349  18285700.6734   18285709.7194
  17182349.622   -23565752.84349 -18336511.53649  17182349.0374   17182354.5014
  16470489.393   -28964179.67249 -22509016.04149  16470488.3084   16470494.7284
 97  1  8 20 32 29.9800000  0  9 22 19  3 27 29 18 14 31 16
  18679401.683   -15267527.06449 -11883385.55449  18679401.5294   18679406.3034
  15267389.780   -39404614.78549 -30681216.16149  15267388.8574   15267393.7064
  17408507.981   -33714555.37749 -22053396.21449  17408506.8914   17408513.1174
  17685383.379   -15652012.44649 -12177842.93049  17685381.8654   17685386.7944
  17041294.944   -20540444.60849 -15992158.41449  17041293.7184   17041299.4064
  14344418.280   -52531233.58349 -40920441.73949  14344417.1874   14344421.4844
  18289834.838   -11722522.71649  -8920366.01849  18289833.1624   18289839.4804
  17150623.035   -23732477.28549 -18466426.62649  17150621.9714   17150627.3664
  16470285.862   -28965249.35949 -22509849.58249  16470284.8394   16470290.8704
 97  1  8 20 32 59.9800000  0  9 22 19  3 27 29 18 14 31 16
  18682909.405   -15249093.60549 -11869021.77149  18682907.8724   18682914.3574
  15244374.481   -39525561.03949 -30775459.97049  15244373.6104   15244378.4924
  17387526.231   -33824815.51949 -22139313.16549  17387525.0474   17387531.2484
  17655184.025   -15810709.11649 -12301502.59349  17655180.6834   17655187.7854
  17039651.766   -20549079.26749 -15998886.76249  17039650.8854   17039656.7444
  14324692.730   -52634891.73649 -41001214.31149  14324691.6524   14324695.9834
  18293972.858   -11700777.93849  -8903422.09549  18293970.8084   18293975.3914
  17118950.525   -23898917.26049 -18596120.06349  17118949.2584   17118955.7374
  16470138.014   -28966026.02749 -22510454.80249  16470136.8024   16470143.2184
 97  1  8 20 33 29.9800000  0  9 22 19  3 27 29 18 14 31 16
  18686435.092   -15230566.26049 -11854584.83849  18686433.3414   18686440.2254
  15221409.697   -39646241.93849 -30869497.00849  15221408.9684   15221413.9694
  17366658.056   -33934478.06949 -22224764.46749  17366656.8544   17366663.7214
  17625016.794   -15969236.37949 -12425030.26149  17625014.9364   17625020.4464
  17038072.023   -20557380.35549 -16005355.18049  17038071.8484   17038076.5624
  14305068.387   -52738018.13449 -41081572.53249  14305067.2084   14305071.7984
  18298123.760   -11678965.05049  -8886425.10049  18298123.6234   18298130.8314
  17087348.514   -24064987.32049 -18725525.23049  17087347.7154   17087353.4554
  16470058.190   -28966445.59349 -22510781.76249  16470057.3274   16470063.9654
 97  1  8 20 33 59.9800000  0  9 22 19  3 27 29 18 14 31 16
  18689972.150   -15211978.98749 -11840101.20249  18689971.0124   18689976.4994
  15198486.940   -39766701.74049 -30963361.76749  15198485.7274   15198490.8094
  17345893.661   -34043595.78949 -22309791.21649  17345892.9284   17345898.3574
  17594872.243   -16127645.40149 -12548465.79949  17594870.0854   17594876.5014
  17036547.095   -20565393.64649 -16011599.33249  17036546.6544   17036551.7564
  14285536.412   -52840659.15949 -41161552.54549  14285535.6094   14285539.7524
  18302281.025   -11657119.39249  -8869402.59049  18302281.4744   18302286.4454
  17055809.960   -24230722.95749 -18854669.81549  17055809.0394   17055814.7394
  16470040.230   -28966540.12849 -22510855.44849  16470039.3994   16470045.9584
 97  1  8 20 34 29.9800000  0  9 22 19  3 27 29 18 14 31 16
  18693516.256   -15193354.92049 -11825588.91449  18693514.5294   18693520.5864
  15175595.782   -39886995.22649 -31057096.93449  15175594.7444   15175599.5784
  17325224.011   -34152215.26249 -22394429.72249  17325223.3174   17325229.5184
  17564740.386   -16285988.37649 -12671849.89949  17564739.8644   17564745.7224
  17035069.165   -20573160.48349 -16017651.44149  17035069.1874   17035074.3664
  14266086.087   -52942871.40749 -41241198.45049  14266085.5544   14266089.5394
  18306433.854   -11635297.32949  -8852398.47649  18306434.4094   18306438.0384
  17024324.559   -24396179.04149 -18983596.57149  17024323.2764   17024329.8144
  16470075.364   -28966355.82449 -22510711.84849  16470074.2654   16470080.4984
 97  1  8 20 34 59.9800000  0  9 22 19  3 27 29 18 14 31 16
  18697066.971   -15174695.61549 -11811049.17049  18697064.7014   18697070.9434
  15152733.735   -40007135.77249 -31150712.92449  15152732.8114   15152737.7084
  17304644.398   -34260361.39949 -22478699.39049  17304642.2054   17304649.9644
  17534617.714   -16444284.45649 -12795197.46149  17534616.5384   17534622.3094
  17033635.823   -20580693.00149 -16023520.96649  17033635.5204   17033640.5744
  14246715.632   -53044664.11749 -41320517.44049  14246714.7654   14246718.8864
  18310580.344   -11613508.12349  -8835419.92249  18310579.6394   18310586.2044
  16992891.463   -24561360.41049 -19112309.25849  16992889.4374   16992895.9224
  16470161.300   -28965904.18549 -22510359.95249  16470159.6764   16470166.3784
 97  1  8 20 35 29.9800000  0  9 22 19  3 27 29 18 14 31 16
  18700626.837   -15155987.98249 -11796471.77349  18700625.1574   18700631.2724
  15129902.386   -40127115.14949 -31244203.33049  15129901.6674   15129906.1444
  17284151.393   -34368052.28149 -22562614.31449  17284150.0724   17284156.3684
  17504504.185   -16602532.89549 -12918507.89649  17504503.1954   17504508.9344
  17032250.132   -20587974.97549 -16029195.25749  17032249.7594   17032255.3954
  14227424.891   -53146037.48349 -41399509.66949  14227424.1694   14227428.0834
  18314724.432   -11591731.12049  -8818450.91049  18314723.7014   18314727.5944
  16961510.902   -24726266.10849 -19240807.13849  16961510.3714   16961515.6094
  16470299.350   -28965178.41049 -22509794.42949  16470298.5704   16470305.4014
 97  1  8 20 35 59.9800000  0  9 22 19  3 27 29 18 14 31 16
  18704194.978   -15137236.84449 -11781860.49749  18704193.4964   18704200.1794
  15107100.832   -40246938.32149 -31337572.01649  15107099.8724   15107104.7814
  17263743.592   -34475295.73049 -22646180.56949  17263742.8994   17263748.8314
  17474397.419   -16760746.20649 -13041790.99049  17474397.0174   17474401.3224
  17030912.113   -20595006.60549 -16034674.47649  17030911.4554   17030917.0654
  14208211.284   -53247005.79449 -41478186.27049  14208210.5014   14208214.3744
  18318864.113   -11569977.02949  -8801499.72749  18318864.0444   18318868.0494
  16930177.070   -24890926.47549 -19369113.85649  16930175.6734   16930181.2124
  16470485.095   -28964202.64749 -22509034.13149  16470484.1414   16470491.1034
 97  1  8 20 36 29.9800000  0  9 22 19  3 27 29 18 14 31 16
  18707791.627   -15118335.88349 -11767132.48049  18707791.0664   18707797.2004
  15084346.842   -40366511.46949 -31430745.88349  15084346.2844   15084351.1274
  17243440.830   -34581987.24649 -22729316.75649  17243440.1154   17243446.5904
  17444317.879   -16918816.84849 -13164962.91249  17444318.0604   17444321.8994
  17029644.889   -20601665.68549 -16039863.41249  17029644.7424   17029649.6604
  14189096.356   -53347455.31449 -41556458.62249  14189095.5244   14189099.5404
  18323019.155   -11548142.16249  -8784485.61449  18323018.5084   18323024.4224
  16898909.993   -25055235.41949 -19497146.75049  16898909.1194   16898914.9724
  16470735.868   -28962884.93849 -22508007.35149  16470734.4684   16470742.0104
 97  1  8 20 36 59.9800000  0  9 22 19  3 27 29 18 14 31 16
  18711388.937   -15099431.92949 -11752402.12449  18711387.9164   18711394.3274
  15061616.225   -40485961.67449 -31523823.94649  15061615.3014   15061620.1954
  17223218.959   -34688253.64249 -22812121.68149  17223218.9044   17223224.1144
  17414241.271   -17076871.71849 -13288122.56249  17414241.0524   17414245.2814
  17028424.628   -20608078.38749 -16044860.35149  17028424.9474   17028429.4304
  14170058.984   -53447497.11949 -41634413.27149  14170058.1634   14170062.0964
  18327166.689   -11526346.66249  -8767502.15749  18327165.2674   18327172.8184
  16867686.766   -25219314.43349 -19625000.47349  16867685.8544   16867691.1344
  16471028.141   -28961349.29049 -22506810.80049  16471028.0554   16471034.0284
 97  1  8 20 37 29.9800000  0  8 19  3 27 29 18 14 31 16
  15038915.189   -40605256.26649 -31616780.75149  15038914.3564   15038919.4044
  17203088.254   -34794041.00449 -22894553.32649  17203087.1214   17203093.0844
  17384173.109   -17234882.05749 -13411247.50449  17384172.3784   17384177.4494
  17027258.500   -20614206.62249 -16049635.64849  17027258.6644   17027264.0654
  14151106.654   -53547092.02049 -41712019.68449  14151105.7334   14151109.9274
  18331310.580   -11504570.24849  -8750533.59349  18331310.6784   18331316.5664
  16836512.591   -25383135.66249 -19752653.35049  16836511.5164   16836516.9454
  16471366.193   -28959573.17949 -22505426.83949  16471365.6814   16471372.5564
 97  1  8 20 37 59.9800000  0  8 19  3 27 29 18 14 31 16
  15016239.819   -40724415.81349 -31709632.33249  15016239.1644   15016243.8484
  17183044.045   -34899373.53249 -22976630.56049  17183043.4174   17183049.4124
  17354108.265   -17392874.49749 -13534358.49749  17354107.3614   17354112.9314
  17026139.699   -20620085.95349 -16054216.98149  17026140.0194   17026144.6884
  14132236.732   -53646253.99149 -41789288.74549  14132235.7174   14132240.0224
  18335445.233   -11482842.38049  -8733602.85549  18335444.2164   18335450.1724
  16805385.109   -25546711.63949 -19880115.12049  16805383.9454   16805390.1454
  16471742.196   -28957597.87249 -22503887.65649  16471740.8414   16471747.6394
 97  1  8 20 38 29.9800000  0  8 19  3 27 29 18 14 31 16
  14993599.973   -40843388.68849 -31802338.44949  14993598.9874   14993604.1804
  17163095.883   -35004201.40749 -23058314.56649  17163095.2264   17163100.8514
  17324055.059   -17550805.56249 -13657421.68249  17324054.6674   17324058.4714
  17025073.764   -20625687.74049 -16058582.04449  17025073.8374   17025078.7364
  14113461.072   -53744920.72649 -41866171.90749  14113460.2554   14113464.4244
  18339583.473   -11461095.56149  -8716657.34949  18339583.0614   18339589.8804
  16774318.644   -25709966.86949 -20007326.94849  16774317.2324   16774323.1704
  16472165.991   -28955370.86549 -22502152.35649  16472164.6884   16472171.1074
 97  1  8 20 38 59.9800000  0  8 19  3 27 29 18 14 31 16
  14971001.214   -40962145.74049 -31894876.39549  14971000.1224   14971005.3754
  17143250.639   -35108488.81849 -23139577.42249  17143250.1054   17143254.6314
  17294016.917   -17708656.78849 -13780422.64149  17294015.4324   17294020.0874
  17024061.698   -20631006.85549 -16062726.85349  17024061.0484   17024067.2334
  14094783.548   -53843071.85349 -41942653.29949  14094782.7654   14094786.8504
  18343726.572   -11439323.21349  -8699691.94249  18343726.1934   18343731.4804
  16743317.481   -25872878.67749 -20134271.18349  16743316.2634   16743322.2024
  16472641.977   -28952869.37249 -22500203.16149  16472639.8894   16472647.1494
 97  1  8 20 39 29.9800000  0  8 19  3 27 29 18 14 31 16
  14948442.219   -41080693.72949 -31987251.43549  14948441.2794   14948446.3644
  17123507.847   -35212238.11149 -23220420.96849  17123507.3034   17123511.7044
  17263991.734   -17866438.86149 -13903369.70449  17263989.7194   17263994.9304
  17023100.103   -20636060.38549 -16066664.72249  17023100.0634   17023105.3254
  14076200.025   -53940729.02049 -42018749.78149  14076199.0804   14076203.3244
  18347870.027   -11417549.92049  -8682725.79849  18347868.7554   18347875.0264
  16712382.012   -26035445.60049 -20260946.67949  16712380.6204   16712386.6734
  16473164.603   -28950123.06049 -22498063.22149  16473163.6564   16473169.7854
 97  1  8 20 39 59.9790000  0  8 19  3 27 29 18 14 31 16
  14925916.541   -41199066.85649 -32079490.22249  14925915.9534   14925920.8304
  17103860.580   -35315485.32149 -23300873.26949  17103860.1044   17103865.7894
  17233974.468   -18024179.32649 -14026284.35049  17233973.0894   17233978.6344
  17022179.793   -20640896.79149 -16070433.39949  17022179.4004   17022184.6554
  14057702.881   -54037931.84849 -42094492.23549  14057702.0054   14057706.3524
  18352008.034   -11395804.17049  -8665781.15249  18352006.6704   18352012.5944
  16681508.631   -26197685.94049 -20387367.69249  16681507.5434   16681512.5794
  16473728.301   -28947161.03649 -22495755.17449  16473726.9964   16473733.2284
 97  1  8 20 40 29.9790000  0  8 19  3 27 29 18 14 31 16
  14903434.642   -41317210.03049 -32171549.81949  14903433.7384   14903438.8294
  17084325.264   -35418144.29649 -23380867.20949  17084324.1884   17084329.9994
  17203978.249   -18181809.44249 -14149112.99649  17203976.4554   17203982.6064
  17021315.455   -20645439.42949 -16073973.15349  17021315.6384   17021321.4074
  14039303.058   -54134623.43249 -42169836.31149  14039302.0034   14039306.3164
  18356153.465   -11374020.34149  -8648806.80749  18356152.3804   18356159.1904
  16650707.373   -26359547.26249 -20513493.36649  16650706.4764   16650712.0594
  16474348.513   -28943902.05549 -22493215.73649  16474347.0574   16474353.9134
 97  1  8 20 40 59.9790000  0  8 19  3 27 29 18 14 31 16
  14880976.741   -41435226.81849 -32263510.94249  14880975.8954   14880980.9854
  17064881.102   -35520323.82349 -23460487.56149  17064879.9794   17064885.4244
  17173985.301   -18339421.74749 -14271927.74149  17173982.8194   17173989.9174
  17020489.484   -20649780.07849 -16077355.53449  17020488.1814   17020494.4394
  14020977.469   -54230924.54749 -42244876.13349  14020976.1104   14020980.6604
  18360280.212   -11352335.01149  -8631909.24149  18360279.3834   18360286.4074
  16619957.114   -26521141.08749 -20639410.60949  16619955.7744   16619961.5834
  16475004.167   -28940456.63249 -22490531.03149  16475003.0934   16475008.9554
 97  1  8 20 41 29.9790000  0  8 19  3 27 29 18 14 31 16
  14858557.566   -41553040.27349 -32355313.61549  14858556.8454   14858561.5714
  17045541.270   -35621954.96549 -23539680.59549  17045540.2784   17045546.5104
  17144011.347   -18496935.28449 -14394665.52949  17144009.8694   17144015.7724
  17019716.071   -20653844.01649 -16080522.27749  17019715.2564   17019721.0524
  14002740.020   -54326762.30749 -42319554.89749  14002738.9264   14002743.4774
  18364403.333   -11330667.72849  -8615025.70549  18364402.3394   18364408.5544
  16589274.195   -26682380.73349 -20765051.84849  16589273.0654   16589277.9334
  16475707.775   -28936759.13149 -22487649.89649  16475706.3164   16475713.5374
 97  1  8 20 41 59.9790000  0  8 19  3 27 29 18 14 31 16
  14836177.280   -41670649.53949 -32446957.18849  14836176.5594   14836181.1494
  17026305.064   -35723041.35049 -23618449.13949  17026304.3054   17026309.1754
  17114057.234   -18654344.10849 -14517321.72649  17114055.9564   17114062.6994
  17018996.993   -20657622.62849 -16083466.70549  17018995.8744   17019002.2514
  13984591.714   -54422132.15749 -42393869.05649  13984590.8394   13984595.4364
  18368523.980   -11309013.15249  -8598152.08949  18368523.7064   18368530.7354
  16558658.357   -26843268.26049 -20890418.70349  16558656.9704   16558662.4054
  16476462.909   -28932791.23149 -22484558.06149  16476462.0934   16476468.5584
 97  1  8 20 42 29.9790000  0  8 19  3 27 29 18 14 31 16
  14813826.922   -41788101.58449 -32538478.25149  14813826.1024   14813830.8624
  17007161.466   -35823641.49049 -23696838.79449  17007160.1584   17007166.6604
  17084115.917   -18811686.72449 -14639926.31349  17084115.1734   17084120.3094
  17018325.058   -20661153.84549 -16086218.35849  17018324.5794   17018330.3824
  13966524.920   -54517073.74249 -42467849.49849  13966523.9674   13966528.4284
  18372630.892   -11287431.41249  -8581335.24149  18372630.2034   18372634.5574
  16528099.491   -27003856.35549 -21015552.21549  16528098.3464   16528103.6704
  16477259.320   -28928606.40249 -22481297.17049  16477257.6824   16477264.5714
 97  1  8 20 42 59.9790000  0  8 19  3 27 29 18 14 31 16
  14791519.945   -41905325.50349 -32629821.55749  14791519.3544   14791524.1244
  16988117.880   -35923715.95249 -23774818.83249  16988117.0714   16988122.3634
  17054197.595   -18968908.46249 -14762436.71349  17054196.9654   17054202.4614
  17017708.931   -20664391.51749 -16088741.26349  17017708.2064   17017714.0554
  13948552.659   -54611518.75849 -42541443.00249  13948552.0984   13948556.2044
  18376733.684   -11265872.47649  -8564536.13549  18376732.3234   18376740.0834
  16497609.064   -27164084.27349 -21140405.07149  16497607.9544   16497613.2394
  16478104.880   -28924162.69549 -22477834.57849  16478104.2664   16478110.3894
 97  1  8 20 43 29.9790000  0  8 19  3 27 29 18 14 31 16
  14769256.950   -42022318.58749 -32720984.98849  14769256.1974   14769260.8504
  16969176.283   -36023254.42949 -23852381.20649  16969175.4644   16969181.2074
  17024303.275   -19126005.23149 -14884849.72749  17024302.8904   17024307.6534
  17017147.609   -20667341.34449 -16091039.87849  17017147.3244   17017152.1654
  13930680.292   -54705438.93849 -42614627.54249  13930679.3414   13930683.5794
  18380837.185   -11244309.53149  -8547733.96449  18380834.9834   18380841.3054
  16467189.416   -27323940.44449 -21264968.24549  16467187.9534   16467193.9044
  16478999.252   -28919462.70449 -22474172.26949  16478997.7674   16479004.1884
 97  1  8 20 43 59.9790000  0  8 19  3 27 29 18 14 31 16
  14747027.956   -42139132.90749 -32812009.12449  14747027.1564   14747031.6054
  16950327.864   -36122303.38449 -23929562.15049  16950326.5534   16950332.5804
  16994422.703   -19283029.83049 -15007206.50349  16994422.0064   16994426.7384
  17016631.384   -20670054.25549 -16093153.88949  17016630.5424   17016636.3624
  13912899.788   -54798876.21149 -42687435.79849  13912898.9804   13912903.1054
  18384934.048   -11222781.08949  -8530958.56749  18384937.2834   18384936.9814
  16436828.992   -27483484.97749 -21389288.59149  16436827.4914   16436833.1994
  16479934.358   -28914548.59849 -22470343.15849  16479933.3004   16479939.2604
 97  1  8 20 44 29.9790000  0  8 19  3 27 29 18 14 31 16
  14724831.703   -42255774.85449 -32902898.94449  14724830.9424   14724835.6094
  16931569.723   -36220877.88849 -24006373.38049  16931568.3294   16931574.8034
  16964552.425   -19439999.95749 -15129520.82849  16964551.9454   16964557.0634
  17016157.485   -20672545.05849 -16095094.83449  17016156.7804   17016161.2324
  13895210.231   -54891835.51249 -42759871.60549  13895209.2474   13895213.7064
  18389022.052   -11201298.78349  -8514219.20549  18389020.6964   18389028.1474
  16406525.442   -27642731.28249 -21513376.54149  16406523.6304   16406529.2334
  16480905.561   -28909444.94349 -22466366.30849  16480904.3574   16480910.5904
 97  1  8 20 44 59.9790000  0  8 19  3 27 29 18 14 31 16
  14702664.613   -42372263.84049 -32993669.57349  14702663.9284   14702668.3404
  16912899.316   -36318991.06449 -24082825.15849  16912898.3944   16912903.8014
  16934688.165   -19596938.51549 -15251810.53749  16934687.6104   16934692.2944
  17015722.206   -20674832.60049 -16096877.38349  17015721.7214   17015727.3504
  13877605.979   -54984346.37249 -42831957.98149  13877605.1644   13877609.5444
  18393098.324   -11179878.50549  -8497528.16249  18393099.4324   18393103.9414
  16376278.187   -27801681.62849 -21637233.87149  16376276.9994   16376282.4114
  16481908.962   -28904172.21849 -22462257.71849  16481908.3924   16481913.6484
 97  1  8 20 45 29.9790000  0  8 19  3 27 29 18 14 31 16
  14680517.924   -42488645.50149 -33084356.56549  14680517.2094   14680521.9154
  16894312.637   -36416664.33949 -24158934.15049  16894311.2924   16894317.7514
  16904823.469   -19753878.94349 -15374101.71149  16904822.3454   16904827.9914
  17015321.243   -20676940.26249 -16098519.77149  17015319.7594   17015324.5974
  13860081.171   -55076439.73349 -42903719.03849  13860080.3764   13860084.7774
  18397158.176   -11158544.43949  -8480904.23949  18397156.4644   18397162.0094
  16346083.713   -27960354.43149 -21760874.93349  16346082.6224   16346086.8444
  16482941.590   -28898745.93549 -22458029.46449  16482940.1284   16482945.9744
 97  1  8 20 45 59.9790000  0  8 19  3 27 29 18 14 31 16
  14658426.317   -42604738.00249 -33174818.24049  14658425.6834   14658430.1234
  16875844.926   -36513712.48049 -24234556.03849  16875843.5674   16875849.6484
  16874991.362   -19910647.66049 -15496259.07449  16874990.5074   16874995.1034
  17014991.713   -20678672.57249 -16099869.67049  17014992.2364   17014996.0174
  13842668.631   -55167943.14249 -42975020.39649  13842667.8304   13842672.4344
  18401230.633   -11137143.64249  -8464228.36649  18401228.3654   18401233.2134
  16315976.507   -28118568.38549 -21884158.45149  16315975.0954   16315980.9744
  16484037.865   -28892985.13049 -22453540.57649  16484036.7394   16484042.5234
 97  1  8 20 46 29.9790000  0 10 19 10  3 27 29  2 18 14 31 16
  14636373.404   -42720627.02449 -33265121.35949  14636372.8904   14636377.1304
  18491122.191   -11165564.76349  -8678033.95949  18491120.8934   18491124.0474
  16857481.255   -36610214.07249 -24309752.04149  16857480.4994   16857485.9914
  16845175.391   -20067331.81549 -15618350.54349  16845174.6484   16845179.8174
  17014717.854   -20680111.77149 -16100991.18349  17014717.0274   17014723.1864
  18719299.508    -1116419.64449   -840031.88549  18719298.0304   18719306.5374
  13825352.281   -55258941.29649 -43045928.04649  13825351.5784   13825355.7814
  18405294.145   -11115788.69349  -8447588.18749  18405290.3434   18405296.8344
  16285942.300   -28276398.93849 -22007143.21449  16285941.2574   16285946.6084
  16485178.340   -28886992.33949 -22448870.89549  16485176.9994   16485183.9674
 97  1  8 20 46 59.9790000  0  9 19 10  3 27 29  2 18 31 16
  14614346.034   -42836381.66449 -33355319.77149  14614345.1594   14614349.4504
  18460613.751   -11325887.69649  -8802960.88849  18460612.0044   18460615.2244
  16839215.294   -36706202.15149 -24384547.91149  16839214.4744   16839219.4084
  16815366.537   -20223977.57349 -15740412.11249  16815365.0254   16815370.8904
  17014487.397   -20681322.75949 -16101934.87449  17014486.6364   17014492.2914
  18684454.893    -1299529.34359                  18684453.5724   18684462.2444
  13808123.811   -55349477.71549 -43116475.90249  13808122.8954   13808127.1884
  16255972.173   -28433892.77949 -22129865.62249  16255971.2154   16255976.5414
  16486349.791   -28880836.77049 -22444074.38949  16486348.8284   16486355.1164
 97  1  8 20 47 29.9790000  0  9 19 10  3 27 29  2 18 31 16
  14592347.749   -42951983.51349 -33445399.11149  14592346.7194   14592351.0374
  18430177.863   -11485828.65649  -8927590.16849  18430175.6054   18430179.2674
  16821052.909   -36801645.94749 -24458919.66349  16821051.2494   16821057.5224
  16785566.997   -20380573.60049 -15862434.91549  16785565.2354   16785571.1204
  17014303.217   -20682290.63749 -16102689.13149  17014302.6834   17014307.7014
  18649632.022                                    18649631.239    18649639.7654
  13790988.891   -55439522.36149 -43186640.55449  13790988.0184   13790991.9764
  16226068.912   -28591035.03449 -22252314.06449  16226068.0574   16226073.1194
  16487553.308   -28874512.39249 -22439146.35049  16487552.2254   16487558.3654
 97  1  8 20 47 59.9790000  0  9 19 10  3 27 29  2 18 31 16
  14570397.935   -43067330.45749 -33535279.83449  14570397.0244   14570401.1934
  18399832.158   -11645296.23149  -9051850.58949  18399830.4624   18399834.0304
  16803011.649   -36896452.80749 -24532795.11349  16803010.2184   16803016.9034
  16755794.724   -20537026.54649 -15984346.24249  16755793.0864   16755799.5594
  17014182.476   -20682925.36049 -16103183.78849  17014181.6574   17014186.8774
  18614847.297    -1665319.30359                  18614845.2714   18614852.5884
  13773962.856   -55528995.04949 -43256359.52849  13773962.1444   13773966.0354
  16196250.686   -28747730.81549 -22374414.61149  16196249.7704   16196255.2294
  16488803.231   -28867943.80649 -22434028.01849  16488802.4204   16488808.7304
 97  1  8 20 48 29.9790000  0  9 19 10  3 27 29  2 18 31 16
  14548497.857   -43182416.05049 -33624956.89949  14548496.8254   14548501.1574
  18369578.596   -11804279.04549  -9175733.26849  18369576.6374   18369580.5454
  16785091.645   -36990623.05049 -24606174.49049  16785091.4134   16785095.2594
  16726053.070   -20693318.81749 -16106132.35249  16726051.2764   16726057.4254
  17014124.028   -20683232.00849 -16103422.77849  17014122.9284   17014129.1164
  18580102.352    -1847904.91859  -1410020.25459  18580101.0044   18580106.8364
  13757046.830   -55617889.47449 -43325627.91049  13757045.7854   13757049.7884
  16166521.530   -28903958.39449 -22496150.32349  16166520.1014   16166525.4164
  16490102.348   -28861117.17649 -22428708.60249  16490101.8104   16490108.4454
 97  1  8 20 48 59.9780000  0  9 19 10  3 27 29  2 18 31 16
  14526637.042   -43297295.60749 -33714473.41249  14526636.1994   14526640.3034
  18339405.895   -11962837.24949  -9299285.09449  18339404.3854   18339407.7904
  16767280.224   -37084222.41249 -24679109.02149  16767279.3944   16767284.6474
  16696329.873   -20849513.71049 -16227842.60549  16696328.4724   16696334.4384
  17014116.068   -20683273.28449 -16103454.99049  17014115.1034   17014121.1304
  18545386.641    -2030336.94349  -1552174.92449  18545383.7184   18545390.8154
  13740227.651   -55706274.75749 -43394499.55449  13740227.0394   13740230.9564
  16136873.406   -29059759.78249 -22617553.93949  16136871.6464   16136877.2634
  16491440.507   -28854085.53249 -22423229.44249  16491440.2044   16491445.8064
 97  1  8 20 49 29.9780000  0  9 19 10  3 27 29  2 18 31 16
  14504796.035   -43412070.87249 -33803908.66149  14504795.1194   14504799.2114
  18309290.052   -12121096.79349  -9422604.19149  18309288.4034   18309291.9084
  16749549.817   -37177396.11549 -24751711.90049  16749549.4284   16749554.0464
  16666599.283   -21005748.58449 -16349584.01249  16666598.3244   16666603.5104
  17014139.019   -20683152.30849 -16103360.78249  17014138.5774   17014144.5854
  18510674.344    -2212750.41949  -1694315.06649  18510672.1884   18510679.2624
  13723478.447   -55794292.48549 -43463084.80249  13723477.5744   13723481.4194
  16107283.261   -29215257.04349 -22738720.58649  16107281.3214   16107287.8524
  16492800.103   -28846941.45049 -22417662.66649  16492798.5334   16492806.3834
 97  1  8 20 49 59.9780000  0  9 19 10  3 27 29  2 18 31 16
  14482982.107   -43526703.81849 -33893233.01149  14482981.3514   14482985.2844
  18279239.176   -12279014.63849  -9545657.04749  18279236.8484   18279241.9334
  16731905.830   -37270115.82549 -24823960.99049  16731904.9034   16731910.3554
  16636869.953   -21161976.93949 -16471320.34249  16636869.3154   16636874.3464
  17014197.367   -20682846.10649 -16103122.22249  17014196.5574   17014202.2904
  18475973.798    -2395101.40949  -1836406.50749  18475971.9014   18475979.2244
  13706805.631   -55881908.89049 -43531357.32549  13706804.8264   13706809.0054
  16077755.962   -29370423.42049 -22859629.40749  16077753.8934   16077759.6174
  16494187.994   -28839648.35649 -22411979.81349  16494187.8014   16494193.6734
 97  1  8 20 50 29.9780000  0  9 19 10  3 27 29  2 18 31 16
  14461218.834   -43641070.82549 -33982350.13549  14461218.0374   14461222.2284
  18249280.054   -12436450.17249  -9668334.07849  18249278.2284   18249282.7684
  16714373.852   -37362246.86749 -24895751.37849  16714372.4714   16714378.4774
  16607167.731   -21318062.90549 -16592945.73149  16607166.9884   16607171.3574
  17014315.472   -20682225.96249 -16102639.05149  17014314.9754   17014321.3654
  18441315.287    -2577231.71749  -1978325.96849  18441313.9444   18441320.8714
  13690236.213   -55968981.89949 -43599206.42549  13690235.5074   13690239.5364
  16048314.501   -29525138.89149 -22980186.87649  16048313.7944   16048318.7924
  16495628.465   -28832078.63249 -22406081.35949  16495628.4544   16495633.5904
 97  1  8 20 50 59.9780000  0  9 19 10  3 27 29  2 18 31 16
  14439473.153   -43755345.24849 -34071395.11349  14439472.2314   14439476.3034
  18219379.382   -12593578.52349  -9790771.74849  18219378.1874   18219381.5044
  16696921.149   -37453961.58349 -24967217.35649  16696920.2034   16696925.5984
  16577457.242   -21474192.93949 -16714605.47149  16577455.6364   16577460.6754
  17014460.288   -20681465.11849 -16102046.25349  17014459.3854   17014466.2144
  18406667.049    -2759308.38049  -2120203.61049  18406662.6734   18406673.8234
  13673735.845   -56055692.00149 -43666772.73749  13673735.0504   13673738.9094
  16018921.895   -29679597.89449 -23100544.50349  16018921.1224   16018925.6554
  16497085.104   -28824424.13749 -22400116.85349  16497083.9464   16497090.3984
 97  1  8 20 51 29.9780000  0  9 19 10  3 27 29  2 18 31 16
  14417742.938   -43869538.27249 -34160376.66449  14417742.0754   14417746.3004
  18189538.245   -12750394.29849  -9912965.81849  18189536.9364   18189540.8114
  16679546.508   -37545266.02449 -25038363.60849  16679546.3004   16679551.5514
  16547740.571   -21630355.33449 -16836290.40749  16547741.0774   16547743.8084
  17014632.722   -20680558.92149 -16101340.18849  17014632.5154   17014639.3704
  18372031.239    -2941319.97059  -2262030.51849  18372029.1494   18372038.5334
  13657307.410   -56142023.95449 -43734044.39049  13657306.7534   13657311.1954
  15989574.731   -29833818.32249 -23220716.22049  15989574.4084   15989579.2604
  16498557.157   -28816688.62849 -22394089.21449  16498555.7484   16498562.7414
 97  1  8 20 51 59.9780000  0  8 19 10  3 27 29 18 31 16
  14396045.388   -43983559.43949 -34249224.30249  14396044.3264   14396048.7344
  18159778.745   -12906781.41249 -10034825.89949  18159776.5984   18159781.9934
  16662272.081   -37636043.67849 -25109099.39149  16662270.7904   16662276.0144
  16518040.992   -21786428.35249 -16957905.72749  16518040.1294   16518043.4454
  17014853.123   -20679401.37149 -16100438.26149  17014852.9824   17014858.9824
  13640976.328   -56227844.49449 -43800917.54349  13640975.4694   13640979.6744
  15960295.674   -29987680.90749 -23340609.10449  15960294.9984   15960300.1684
  16500062.546   -28808778.68149 -22387925.68549  16500061.5454   16500068.0144
 97  1  8 20 52 29.9780000  0  8 19 10  3 27 29 18 31 16
  14374384.848   -44097386.51049 -34337920.69849  14374384.0214   14374388.1324
  18130102.505   -13062730.96149 -10156345.01549  18130099.9334   18130106.0774
  16645100.850   -37726278.81849 -25179412.44649  16645100.4774   16645105.6604
  16488359.861   -21942404.42549 -17079445.49949  16488359.4164   16488361.8694
  17015125.420   -20677971.11749 -16099323.85449  17015125.4044   17015131.7794
  13624747.231   -56313129.00949 -43867373.01749  13624746.6544   13624750.5754
  15931093.795   -30141138.17749 -23460186.16349  15931092.9344   15931097.9994
  16501603.804   -28800679.64149 -22381614.78649  16501602.7184   16501610.1774
 97  1  8 20 52 59.9780000  0  8 19 10  3 27 29 18 31 16
  14352768.809   -44210979.39949 -34426434.61649  14352767.6364   14352772.2594
  18100513.788   -13218220.27149 -10277505.49249  18100511.6474   18100515.7894
  16628037.501   -37815947.19449 -25249283.86349  16628036.4404   16628042.1254
  16458701.874   -22098259.18249 -17200890.75349  16458701.2484   16458704.2084
  17015454.402   -20676243.06249 -16097977.38349  17015453.8864   17015460.5384
  13608626.669   -56397843.43649 -43933384.26249  13608625.8844   13608629.8994
  15901978.671   -30294139.30949 -23579407.77949  15901977.5404   15901983.0764
  16503188.712   -28792350.64349 -22375124.69849  16503187.5414   16503194.0044
 97  1  8 20 53 29.9780000  0  9 19 10  3 27 29  2 18 31 16
  14331181.044   -44324423.52149 -34514832.61949  14331179.9714   14331184.5614
  18070997.460   -13373328.83949 -10398369.26649  18070996.5994   18071000.7974
  16611068.935   -37905117.23349 -25318766.97649  16611067.6174   16611074.0944
  16429053.048   -22254065.12249 -17322297.95549  16429052.0444   16429055.1774
  17015820.704   -20674318.72749 -16096477.96849  17015820.1134   17015825.9234
                  -6595322.013
  13592600.374   -56482062.03549 -43999009.15349  13592599.5494   13592603.4374
  15872938.973   -30446743.83649 -23698320.35849  15872937.7844   15872942.8194
  16504800.995   -28783877.32349 -22368522.15549  16504799.8554   16504806.0354
 97  1  8 20 53 59.9780000  0  9 19 10  3 27 29  2 18 31 16
  14309632.956   -44437659.18349 -34603068.18049  14309632.1184   14309636.2464
  18041563.458   -13528005.25649 -10518896.35249  18041560.6674   18041566.0504
  16594208.855   -37993717.55049 -25387806.13949  16594207.3194   16594213.2174
  16399421.012   -22409782.93349 -17443636.47949  16399419.5084   16399422.8494
  17016229.587   -20672170.58149 -16094804.14549  17016229.4794   17016235.5614
  18199312.669    18199319.913                                    18199321.0624
  13576673.176   -56565759.86649 -44064228.23949  13576672.0854   13576676.0504
  15843987.029   -30598886.63349 -23816873.13049  15843985.6274   15843990.6624
  16506447.763   -28775223.19949 -22361778.72749  16506446.9454   16506452.5924
 97  1  8 20 54 29.9780000  0  9 19 10  3 27 29  2 18 31 16
  14288121.075   -44550704.94849 -34691155.77149  14288120.0004   14288124.4944
  18012205.772   -13682280.48049 -10639110.79449  18012204.4504   18012208.9244
  16577455.557   -38081756.50249 -25456407.88149  16577454.9174   16577459.7904
  16369799.596   -22565444.61349 -17564931.27749  16369798.2154   16369802.1324
  17016676.206   -20669824.03249 -16092975.70949  17016676.0804   17016681.7304
  18164839.576    18164847.738                                    18164848.1384
  13560836.305   -56648982.84849 -44129077.31549  13560835.3394   13560839.3354
  15815117.519   -30750596.68749 -23935088.70749  15815116.1234   15815121.8534
  16508123.381   -28766417.52549 -22354917.19249  16508121.3754   16508128.9644
 97  1  8 20 54 59.9780000  0  9 19 10  3 27 29  2 18 31 16
  14266646.535   -44663554.08249 -34779090.15449  14266645.3874   14266649.9904
  17982930.964   -13836120.37249 -10758985.98649  17982930.4964   17982933.4544
  16560814.722   -38169204.49249 -25524549.15049  16560813.4374   16560819.4884
  16340193.203   -22721027.22549 -17686164.46849  16340191.6114   16340195.6164
  17017165.889   -20667250.79349 -16090970.64149  17017164.9524   17017171.0844
  18130394.407     -377416.60059  18130393.460                    18130402.1374
  13545094.093   -56731708.52049 -44193538.88149  13545093.1774   13545097.2164
  15786332.942   -30901859.97749 -24052956.15949  15786331.9104   15786336.5494
  16509829.515   -28757451.58749 -22347930.81049  16509829.4434   16509834.9274
 97  1  8 20 55 29.9780000  0  9 19 10  3 27 29  2 18 31 16
  14245215.362   -44776175.11749 -34866846.79449  14245214.2734   14245218.8594
  17953749.551   -13989469.52349 -10878478.79949  17953749.0584   17953753.6454
  16544294.637   -38256017.80349 -25592195.84149  16544294.1534   16544298.8384
  16310610.339   -22876485.75549 -17807300.95749  16310609.2604   16310613.0054
  17017707.705   -20664404.08649 -16088752.50349  17017705.8374   17017712.8964
  18095989.025     -757452.05159   -518306.08049  18095987.0294   18095995.0664
  13529454.986   -56813892.55649 -44257578.39249  13529454.1144   13529458.1454
  15757642.707   -31052628.08849 -24170437.75249  15757641.1724   15757646.1554
  16511569.728   -28748306.81649 -22340805.02549  16511568.3594   16511574.9624
 97  1  8 20 55 59.9780000  0  9 19 10  3 27 29  2 18 31 16
  14223814.613   -44888636.56249 -34954479.08749  14223813.7094   14223817.9024
  17924649.471   -14142391.75049 -10997638.97449  17924648.6844   17924652.2484
  16527878.409   -38342285.42649 -25659417.33649  16527876.9494   16527883.1214
  16281037.846   -23031890.17349 -17928395.28149  16281036.6834   16281040.5004
  17018291.750   -20661334.60649 -16086360.75549  17018291.3024   17018295.7334
  18061609.500     -938118.27049   -659084.85849  18061608.4494   18061616.0314
  13513907.565   -56895594.78549 -44321242.46949  13513906.6974   13513910.8734
  15729032.515   -31202975.66849 -24287591.66949  15729031.4984   15729036.0944
  16513331.478   -28739049.32049 -22333591.43749  16513330.1794   16513336.7864
 97  1  8 20 56 29.9780000  0  9 19 10  3 27 29  2 18 31 16
  14202446.852   -45000924.95849 -35041976.52649  14202445.7914   14202450.3324
  17895634.976   -14294864.01849 -11116448.51349  17895633.5414   17895638.3444
  16511563.344   -38428021.36649 -25726224.54549  16511562.6034   16511568.3184
  16251479.453   -23187219.77249 -18049431.30249  16251477.5964   16251481.8574
  17018923.191   -20658016.90349 -16083775.60349  17018923.1454   17018927.6484
  18027263.485    -1118608.01349   -799726.13349  18027262.1264   18027269.7824
  13498461.247   -56976765.72749 -44384492.55349  13498460.4304   13498464.4594
  15700505.178   -31352887.80249 -24404406.27149  15700504.2674   15700508.9264
  16515117.521   -28729663.76049 -22326278.02849  16515116.0134   16515122.9134
 97  1  8 20 56 59.9780000  0  9 19 10  3 27 29  2 18 31 16
  14181124.221   -45112975.86649 -35129288.92249  14181123.2934   14181127.7214
  17866719.223   -14446816.65949 -11234853.11949  17866717.7194   17866723.5534
  16495358.745   -38513177.30849 -25792579.79749  16495358.0714   16495363.2684
  16221948.575   -23342405.05949 -18170354.87249  16221947.7694   16221951.6224
  17019612.354   -20654395.75149 -16080953.99349  17019611.1384   17019617.3414
  17992961.175    -1298867.29349   -940187.83849  17992959.6634   17992967.0774
  13483132.128   -57057320.86849 -44447262.79549  13483131.3524   13483135.3794
  15672072.573   -31502301.92949 -24520832.81049  15672071.4414   15672075.0264
  16516941.573   -28720079.01249 -22318809.42449  16516940.0404   16516947.2174
 97  1  8 20 57 29.9780000  0  9 19 10  3 27 29  2 18 31 16
  14159839.255   -45224829.04449 -35216447.23549  14159838.2084   14159842.7444
  17837888.934   -14598320.70049 -11352908.20949  17837886.8884   17837891.7114
  16479252.526   -38597816.22749 -25858532.18549  16479251.4824   16479256.3424
  16192436.479   -23497491.85649 -18291201.69849  16192435.4504   16192440.5154
  17020346.505   -20650537.75849 -16077947.83349  17020345.4204   17020351.5314
  17958691.216    -1478956.25349  -1080516.84149  17958689.7284   17958696.9264
  13467906.085   -57137334.40349 -44509611.00649  13467905.0734   13467909.3334
  15643719.265   -31651299.55849 -24636934.80649  15643717.9694   15643723.2274
  16518794.785   -28710340.72649 -22311221.19649  16518793.8974   16518799.7624
 97  1  8 20 57 59.9770000  0  9 19 10  3 27 29  2 18 31 16
  14138599.939   -45336442.21549 -35303418.52849  14138598.9324   14138603.6384
  17809148.614   -14749351.72849 -11470594.68449  17809146.3254   17809151.4814
  16463250.544   -38681907.24749 -25924057.62449  16463249.4904   16463255.1514
  16162949.387   -23652447.12649 -18411946.04349  16162947.5944   16162952.6894
  17021130.411   -20646418.18849 -16074737.84949  17021128.9884   17021134.6694
  17924460.154    -1658841.07149  -1220686.75149  17924458.8554   17924465.4124
  13452786.432   -57216788.46349 -44571523.25649  13452785.4304   13452789.7714
  15615448.275   -31799864.56249 -24752699.69249  15615446.9714   15615452.5124
  16520684.621   -28700410.50149 -22303483.37249  16520683.6094   16520690.2734
 97  1  8 20 58 29.9770000  0  9 19 10  3 27 29  2 18 31 16
  14117397.517   -45447861.78849 -35390238.97049  14117396.6504   14117401.1114
  17780488.392   -14899962.23949 -11587953.50749  17780487.2754   17780491.1284
  16447347.694   -38765477.13449 -25989176.98049  16447346.6094   16447352.0574
  16133478.959   -23807314.94449 -18532622.23649  16133477.6964   16133482.9674
  17021955.055   -20642084.11349 -16071360.71649  17021954.7964   17021959.9654
  17890257.470    -1838577.64349  -1360741.14749  17890255.4144   17890262.9314
  13437760.815   -57295748.38149 -44633050.47049  13437759.9224   13437764.1704
  15587249.379   -31948050.39649 -24868169.12849  15587248.3434   15587253.1894
  16522603.016   -28690329.82049 -22295628.35249  16522601.3514   16522608.2814
 97  1  8 20 58 59.9770000  0  9 19 10  3 27 29  2 18 31 16
  14096229.547   -45559100.08649 -35476918.15949  14096228.6344   14096233.0414
  17751904.976   -15050168.52549 -11704997.33149  17751902.6934   17751907.1694
  16431546.156   -38848514.45449 -26053881.33249  16431545.1784   16431550.5424
  16104024.195   -23962099.89649 -18653233.85649  16104022.8474   16104028.0324
  17022817.521   -20637551.48749 -16067828.85649  17022816.8794   17022822.7604
  17856080.127    -2018179.82649  -1500690.83649  17856078.1744   17856085.0204
  13422821.238   -57374256.35349 -44694225.51649  13422820.4854   13422824.5954
  15559119.115   -32095876.09349 -24983357.93149  15559117.6774   15559123.4524
  16524545.865   -28680120.62049 -22287673.18549  16524544.9364   16524550.3784
 97  1  8 20 59 29.9770000  0  9 19 10  3 27 29  2 18 31 16
  14075096.174   -45670156.84649 -35563455.88749  14075095.3644   14075099.6454
  17723399.971   -15199961.95949 -11821719.45749  17723397.7074   17723402.4174
  16415845.988   -38931018.99149 -26118170.52349  16415844.5974   16415850.5804
  16074583.955   -24116809.11349 -18773786.46249  16074583.0784   16074587.9974
  17023716.624   -20632826.93049 -16064147.45749  17023716.4064   17023722.0084
  17821930.145    -2197638.78549  -1640528.92749  17821928.3964   17821935.7994
  13407962.684   -57452338.73749 -44755068.92949  13407961.9314   13407966.0234
  15531059.051   -32243332.33549 -25098258.84749  15531057.6734   15531062.1874
  16526508.360   -28669807.74049 -22279637.21649  16526508.0074   16526513.5424
 97  1  8 20 59 59.9770000  0  9 19 10  3 27 29  2 18 31 16
  14053989.780   -45781071.77849 -35649883.10149  14053988.9564   14053993.3784
  17694973.790   -15349343.04049 -11938120.25149  17694972.1664   17694976.9154
  16400244.869   -39013002.99749 -26182054.10049  16400243.6984   16400249.9814
  16045151.618   -24271477.28049 -18894307.08549  16045151.1934   16045155.5664
  17024646.874   -20627938.69449 -16060338.50949  17024646.6024   17024652.4114
  17787801.737    -2376983.79249  -1780278.20849  17787799.5434   17787806.8704
  13393183.648   -57530003.20749 -44815586.69649  13393182.9424   13393187.0144
  15503072.119   -32390404.01949 -25212860.11549  15503070.6084   15503075.8324
  16528484.166   -28659424.79149 -22271546.63849  16528483.0694   16528489.8644
 97  1  8 21  0 29.9770000  0  9 19 10  3 27 29  2 18 31 16
  14032910.131   -45891846.22049 -35736200.83449  14032909.1994   14032913.3194
  17666628.245   -15498299.40249 -12054190.09149  17666626.0094   17666630.2944
  16384743.731   -39094461.78549 -26245528.41149  16384742.7194   16384748.3944
  16015725.743   -24426111.47049 -19014801.22749  16015724.6154   16015729.5754
  17025608.209   -20622887.55549 -16056402.60749  17025608.7564   17025613.9264
  17753694.468    -2556217.56749  -1919940.82749  17753692.7244   17753700.3404
  13378486.437   -57607237.74349 -44875769.45049  13378485.5574   13378489.4784
  15475162.277   -32537070.88249 -25327145.93149  15475161.1294   15475166.0524
  16530474.249   -28648967.14049 -22263397.84549  16530472.8824   16530479.7204
 97  1  8 21  0 59.9770000  0  9 19 10  3 27 29  2 18 31 16
  14011870.475   -46002410.34449 -35822354.69149  14011869.5854   14011873.6974
  17638377.107   -15646759.85249 -12169873.53449  17638376.0264   17638377.9944
  16369353.027   -39175339.93549 -26308550.27449  16369353.1134   16369357.5674
  15986314.275   -24580669.36449 -19135235.92449  15986313.2364   15986319.3564
  17026612.983   -20617608.18349 -16052288.88949  17026612.1924   17026619.0524
  17719619.618    -2735280.53749  -2059470.36249  17719617.5044   17719626.1614
  13363884.879   -57683969.38849 -44935560.34449  13363883.8364   13363888.0244
  15447346.001   -32683246.28449 -25441048.80249  15447345.3054   15447350.5114
  16532491.603   -28638366.32849 -22255137.50549  16532489.1064   16532496.5664
 97  1  8 21  1 29.9770000  0  9 19 10  3 27 29  2 18 31 16
  13990879.356   -46112719.45449 -35908309.82749  13990878.4464   13990882.9184
  17610228.948   -15794678.77649 -12285135.00449  17610226.1744   17610229.3514
  16354078.950   -39255605.99149 -26371095.18149  16354077.9674   16354084.3424
  15956922.240   -24735125.07849 -19255590.99049  15956920.6244   15956926.9684
  17027667.918   -20612064.76249 -16047969.39349  17027667.2514   17027673.1334
  17685583.553    -2914139.97049  -2198841.26849  17685580.1784   17685588.8134
  13349391.363   -57760132.92249 -44994908.55449  13349390.4294   13349394.4534
  15419636.411   -32828861.39649 -25554515.08049  15419635.5184   15419640.3094
  16534544.319   -28627579.56349 -22246732.31549  16534543.0744   16534549.1454
 97  1  8 21  1 59.9770000  0  9 19 10  3 27 29  2 18 31 16
  13969940.119   -46222755.75649 -35994052.38349  13969939.2924   13969943.6524
  17582185.567   -15942047.43749 -12399967.70349  17582184.7274   17582187.1874
  16338925.090   -39335239.78149 -26433147.41649  16338925.0484   16338928.9134
  15927554.002   -24889455.89949 -19375848.74549  15927553.4344   15927558.6194
  17028779.369   -20606224.34349 -16043418.48949  17028779.5414   17028784.5434
  17651589.887    -3092775.92849  -2338038.02749  17651585.6324   17651595.9014
  13335015.186   -57835680.00549 -45053776.41149  13335014.3324   13335018.4994
  15392036.914   -32973898.10949 -25667530.65549  15392035.6354   15392040.2774
  16536639.849   -28616567.91849 -22238151.85649  16536637.9044   16536645.1994
 97  1  8 21  2 29.9770000  0  9 19 10  3 27 29  2 18 31 16
  13949032.662   -46332625.26849 -36079664.97249  13949031.6464   13949035.9844
  17554221.279   -16089000.15949 -12514476.27349  17554218.9474   17554222.9574
  16323866.168   -39414374.75649 -26494810.95349  16323864.7944   16323871.0494
  15898188.237   -25043773.39049 -19496096.11749  15898187.5344   15898192.9294
  17029926.532   -20600196.57849 -16038721.58349  17029926.3974   17029932.5004
  17617620.070    -3271288.87549  -2477138.86249  17617619.5964   17617626.1544
  13320733.076   -57910732.61249 -45112258.96049  13320732.0994   13320736.5984
  15364521.905   -33118490.04749 -25780199.65349  15364520.5344   15364525.2674
  16538754.390   -28605455.39649 -22229492.80449  16538753.5994   16538758.8304
 97  1  8 21  2 59.9770000  0  9 19 10  3 27 29  2 18 31 16
  13928144.591   -46442392.66249 -36165197.99449  13928143.7274   13928147.9974
  17526320.853   -16235616.25549 -12628722.52949  17526319.0324   17526322.2024
  16308889.605   -39493076.78549 -26556137.13949  16308888.6014   16308893.4854
  15868816.073   -25198124.97949 -19616370.04949  15868815.0984   15868820.5384
  17031096.710   -20594047.52149 -16033930.17149  17031096.7574   17031102.3494
  17583664.307    -3449730.93849  -2616184.51849  17583662.7644   17583670.7634
  13306534.927   -57985344.37449 -45170398.00049  13306533.9584   13306538.6164
  15337078.120   -33262707.65049 -25892576.96649  15337077.0524   15337081.8334
  16540871.556   -28594329.95749 -22220823.67749  16540871.4834   16540876.3354
 97  1  8 21  3 29.9770000  0  9 19 10  3 27 29  2 18 31 16
  13907296.354   -46551950.90549 -36250568.03849  13907295.3504   13907299.7234
  17498505.660   -16381787.56649 -12742622.21349  17498506.0264   17498507.3534
  16294018.237   -39571226.20849 -26617032.73949  16294017.6064   16294022.3244
  15839464.512   -25352368.28649 -19736559.62049  15839463.2884   15839469.0704
  17032311.983   -20587661.07149 -16028953.78449  17032311.7564   17032317.8854
  17549747.141    -3627966.68649  -2755069.49849  17549745.5644   17549752.1494
  13292444.104   -58059392.31849 -45228097.69949  13292443.2034   13292447.3724
  15309725.608   -33406445.62949 -26004580.53849  15309724.2284   15309728.9374
  16543009.979   -28583092.93149 -22212067.59149  16543007.9544   16543014.4144
 97  1  8 21  3 59.9770000  0  9 19 10  3 27 29  2 18 31 16
  13886501.879   -46661226.50749 -36335717.84449  13886500.9954   13886505.1274
  17470789.822   -16527435.98249 -12856114.46249  17470788.4754   17470791.5714
  16279266.209   -39648748.15649 -26677439.39349  16279265.2394   16279270.3094
  15810150.994   -25506411.72549 -19856593.44049  15810149.9114   15810155.6804
  17033587.744   -20580956.96449 -16023729.87949  17033587.3134   17033593.6634
  17515885.181    -3805911.47149  -2893727.78749  17515884.0664   17515891.2384
  13278471.911   -58132817.02049 -45285311.75349  13278471.2264   13278475.1824
  15282476.857   -33549638.12649 -26116159.05049  15282475.5224   15282480.5614
  16545183.466   -28571670.75349 -22203167.23349  16545182.6184   16545188.3684
 97  1  8 21  4 29.9770000  0  9 19 10  3 27 29  2 18 31 16
  13865749.350   -46770281.66849 -36420695.87949  13865748.4324   13865752.7514
  17443164.383   -16672607.85649 -12969235.36249  17443162.9004   17443166.7054
  16264623.421   -39725696.05749 -26737398.74049  16264622.6264   16264628.1014
  15780864.083   -25660315.45049 -19976518.38949  15780862.8264   15780868.8214
  17034910.428   -20574006.17449 -16018313.73949  17034909.7874   17034916.2624
  17482065.117    -3983637.14149  -3032215.31949  17482064.2094   17482070.5254
  13264602.861   -58205699.50449 -45342103.29949  13264602.1074   13264606.2204
  15255320.107   -33692347.57849 -26227361.16149  15255319.1524   15255323.7064
  16547378.081   -28560138.10449 -22194180.79549  16547376.5604   16547383.4474
 97  1  8 21  4 59.9770000  0  9 19 10  3 27 29  2 18 31 16
  13845036.512   -46879128.10549 -36505511.27049  13845035.4414   13845039.8334
  17415630.036   -16817301.33849 -13081983.52149  17415628.3714   17415631.6984
  16250089.748   -39802070.80549 -26796911.48449  16250088.6284   16250093.6094
  15751601.318   -25814092.29749 -20096344.47549  15751600.6844   15751605.2474
  17036276.883   -20566826.40349 -16012719.17249  17036276.5714   17036282.4164
  17448282.755    -4161165.43849  -3170549.02749  17448282.0964   17448288.4444
  13250833.887   -58278055.95049 -45398484.94449  13250832.7294   13250836.7044
  15228255.180   -33834574.70149 -26338187.42449  15228254.1894   15228258.8164
  16549593.012   -28548499.15149 -22185111.52849  16549591.7264   16549597.2554
 97  1  8 21  5 29.9770000  0  9 19 10  3 27 29  2 18 31 16
  13824354.554   -46987812.36649 -36590200.29249  13824353.6294   13824358.1294
  17388184.125   -16961529.82649 -13194369.31649  17388182.9414   17388186.7894
  16235655.489   -39877922.81049 -26856016.91149  16235655.4204   16235660.1274
  15722351.213   -25967802.63549 -20216118.74249  15722350.3534   15722355.7014
  17037677.256   -20559467.60849 -16006985.10049  17037677.1724   17037682.4264
  17414526.697    -4338555.88949  -3308775.32049  17414525.6154   17414532.6924
  13237153.273   -58349948.01949 -45454504.73749  13237152.2104   13237156.3544
  15201274.231   -33976360.41849 -26448669.71449  15201272.9584   15201278.0894
  16551823.689   -28536777.06649 -22175977.46049  16551822.8414   16551828.1444
 97  1  8 21  5 59.9770000  0  9 19 10  3 27 29  2 18 31 16
  13803716.302   -47096266.99549 -36674710.38149  13803715.3474   13803719.8954
  17360840.653   -17105220.93049 -13306336.37649  17360839.2014   17360843.2204
  16221333.450   -39953185.24849 -26914662.93549  16221332.9254   16221338.5934
  15693124.667   -26121389.30549 -20335796.62849  15693123.5574   15693128.6344
  17039123.497   -20551867.74949 -16001063.19349  17039122.8314   17039129.3854
  17380807.038    -4515753.91449  -3446851.64649  17380806.0684   17380812.7664
  13223573.491   -58421310.34049 -45510111.74149  13223572.3014   13223576.4244
  15174388.812   -34117643.67549 -26558760.47449  15174387.6604   15174392.1734
  16554084.915   -28524894.54549 -22166718.39649  16554083.6364   16554090.0224
 97  1  8 21  6 29.9760000  0  9 19 10  3 27 29  2 18 31 16
  13783119.383   -47204504.26149 -36759051.10149  13783118.4364   13783123.0204
  17333596.309   -17248391.17449 -13417897.60249  17333595.2024   17333598.7714
  16207121.821   -40027867.82949 -26972857.12849  16207120.4844   16207125.8984
  15663917.992   -26274871.52549 -20455393.14149  15663916.9364   15663921.4814
  17040610.564   -20544053.37649 -15994974.14449  17040609.9214   17040615.8394
  17347123.991    -4692759.31749  -3584777.84849  17347122.7374   17347129.3124
  13210092.800   -58492151.58649 -45565312.71449  13210091.8044   13210095.8454
  15147596.410   -34258438.41449 -26668470.57849  15147595.6584   15147600.1774
  16556371.115   -28512880.84449 -22157357.11149  16556371.0834   16556377.8294
 97  1  8 21  6 59.9760000  0  9 19 10  3 27 29  2 18 31 16
  13762543.306   -47312632.50849 -36843306.87349  13762542.5104   13762546.9124
  17306427.978   -17391161.35849 -13529147.10649  17306425.7914   17306430.6594
  16193000.546   -40102075.54949 -27030681.30549  16192999.8104   16193004.9634
  15634710.362   -26428359.19949 -20574993.90249  15634709.5964   15634713.7504
  17042118.823   -20536127.00849 -15988797.81349  17042118.5074   17042124.9064
  17313459.548    -4869667.05149  -3722627.92649  17313458.2924   17313465.2464
  13196692.652   -58562569.85049 -45620184.08949  13196691.9204   13196695.9654
  15120878.141   -34398843.64849 -26777877.17849  15120876.9554   15120881.9034
  16558663.505   -28500834.07649 -22147970.05849  16558662.1574   16558670.4994
 97  1  8 21  7 29.9760000  0  9 19 10  3 27 29  2 18 31 16
  13741980.311   -47420691.90449 -36927508.98649  13741979.4164   13741983.8654
  17279328.290   -17533570.33249 -13640115.10349  17279326.4714   17279331.1874
  16178964.364   -40175836.47649 -27088157.33049  16178963.2574   16178969.8254
  15605498.025   -26581871.57249 -20694613.90949  15605497.3994   15605501.3294
  17043642.097   -20528121.93349 -15982560.16949  17043641.6024   17043647.4854
  17279810.423    -5046493.99149  -3860415.03449  17279808.8974   17279815.6574
  13183370.192   -58632580.20349 -45674737.61349  13183369.5034   13183373.5554
  15094229.540   -34538882.66849 -26886998.40649  15094228.5834   15094233.3224
  16560950.983   -28488813.31049 -22138603.25149  16560948.6444   16560956.7824
 97  1  8 21  7 59.9760000  0  9 19 10  3 27 29  2 18 31 16
  13721446.625   -47528597.30249 -37011591.10249  13721445.6414   13721450.0954
  17252311.687   -17675543.10049 -13750743.20149  17252309.4454   17252314.8244
  16165031.707   -40249053.41249 -27145209.46849  16165030.6724   16165036.2994
  15576298.849   -26735314.68349 -20814179.94049  15576298.0634   15576302.2904
  17045198.992   -20519940.40949 -15976185.01149  17045198.5754   17045204.1734
  17246197.412    -5223131.17949  -3998054.26649  17246195.6874   17246202.5974
  13170142.599   -58702092.17149 -45728902.78049  13170141.7014   13170145.7064
  15067669.528   -34678456.11949 -26995756.86549  15067668.5604   15067673.8484
  16563245.755   -28476753.89749 -22129206.37649  16563245.1444   16563250.7704
 97  1  8 21  8 29.9760000  0  9 19 10  3 27 29  2 18 31 16
  13700956.125   -47636275.57649 -37095496.24249  13700955.2164   13700959.5804
  17225393.669   -17816997.22249 -13860967.17949  17225391.9794   17225397.1424
  16151216.644   -40321651.87749 -27201779.68649  16151215.5764   16151221.4184
  15547124.863   -26888625.44849 -20933642.84549  15547123.5804   15547128.2144
  17046803.795   -20511507.23149 -15969613.76349  17046802.9744   17046809.5574
  17212633.770    -5399508.58349  -4135491.06749  17212631.9134   17212639.3274
  13157023.303   -58771034.38649 -45782623.98449  13157022.3934   13157026.4564
  15041215.535   -34817472.43949 -27104081.19449  15041213.8544   15041218.9394
  16565559.443   -28464594.90149 -22119731.87449  16565558.7024   16565565.1444
 97  1  8 21  8 59.9760000  0  9 19 10  3 27 29  2 18 31 16
  13680504.101   -47743751.35149 -37179243.59349  13680502.8954   13680507.3954
  17198571.615   -17957947.38849 -13970798.43749  17198570.2684   17198576.0034
  16137513.207   -40393663.66749 -27257892.76349  16137512.2434   16137518.0154
  15517971.023   -27041830.21049 -21053023.15749  15517970.3534   15517974.2614
  17048454.108   -20502834.99049 -15962856.23949  17048454.6804   17048459.3194
  17179113.126    -5575660.37249  -4272752.07249  17179111.4894   17179118.4384
  13144010.231   -58839418.41049 -45835910.24249  13144009.1524   13144013.3784
  15014862.727   -34955957.10149 -27211991.26649  15014861.5584   15014866.1514
  16567889.183   -28452352.22349 -22110192.17249  16567887.3404   16567894.1164
